<?xml version="1.0" encoding="UTF-8" standalone="no" ?>
<gpx xmlns="http://www.topografix.com/GPX/1/1" xmlns:xsi="http://www.w3.org/2001/XMLSchema-instance" xsi:schemaLocation="http://www.topografix.com/GPX/1/1 http://www.topografix.com/GPX/1/1/gpx.xsd" version="1.1" creator="VisuGPX - https://www.visugpx.com">
  <metadata>
    <name>Ternanteuil 6km</name>
  </metadata>
  <wpt lat="46.40999" lon="-0.42167">
    <ele>40</ele>
  </wpt>
  <wpt lat="46.4102" lon="-0.42186">
    <ele>40</ele>
  </wpt>
  <wpt lat="46.40736" lon="-0.42769">
    <ele>32</ele>
  </wpt>
  <trk>
    <name><![CDATA[Ternanteuil 6km_1]]></name>
    <trkseg>
      <trkpt lat="46.40777" lon="-0.42728">
        <ele>99.6</ele>
        <time>2012-05-01T14:02:44Z</time>
      </trkpt>
      <trkpt lat="46.40777" lon="-0.42728">
        <ele>99.5</ele>
        <time>2012-05-01T14:02:48Z</time>
      </trkpt>
      <trkpt lat="46.40778" lon="-0.42733">
        <ele>91.1</ele>
        <time>2012-05-01T14:02:53Z</time>
      </trkpt>
      <trkpt lat="46.40781" lon="-0.42736">
        <ele>82.4</ele>
        <time>2012-05-01T14:02:58Z</time>
      </trkpt>
      <trkpt lat="46.40784" lon="-0.42741">
        <ele>82.6</ele>
        <time>2012-05-01T14:03:03Z</time>
      </trkpt>
      <trkpt lat="46.40784" lon="-0.42742">
        <ele>83</ele>
        <time>2012-05-01T14:03:08Z</time>
      </trkpt>
      <trkpt lat="46.40784" lon="-0.42744">
        <ele>83</ele>
        <time>2012-05-01T14:03:15Z</time>
      </trkpt>
      <trkpt lat="46.40786" lon="-0.42746">
        <ele>83.7</ele>
        <time>2012-05-01T14:03:18Z</time>
      </trkpt>
      <trkpt lat="46.40786" lon="-0.42746">
        <ele>84.7</ele>
        <time>2012-05-01T14:03:23Z</time>
      </trkpt>
      <trkpt lat="46.40786" lon="-0.42746">
        <ele>85.3</ele>
        <time>2012-05-01T14:03:28Z</time>
      </trkpt>
      <trkpt lat="46.40785" lon="-0.42749">
        <ele>85.3</ele>
        <time>2012-05-01T14:03:34Z</time>
      </trkpt>
      <trkpt lat="46.40783" lon="-0.42752">
        <ele>83.8</ele>
        <time>2012-05-01T14:03:41Z</time>
      </trkpt>
      <trkpt lat="46.40782" lon="-0.42753">
        <ele>83.3</ele>
        <time>2012-05-01T14:03:43Z</time>
      </trkpt>
      <trkpt lat="46.40782" lon="-0.42754">
        <ele>83</ele>
        <time>2012-05-01T14:03:48Z</time>
      </trkpt>
      <trkpt lat="46.40782" lon="-0.42754">
        <ele>83</ele>
        <time>2012-05-01T14:03:55Z</time>
      </trkpt>
      <trkpt lat="46.40782" lon="-0.42754">
        <ele>83</ele>
        <time>2012-05-01T14:03:58Z</time>
      </trkpt>
      <trkpt lat="46.40783" lon="-0.42754">
        <ele>83.1</ele>
        <time>2012-05-01T14:04:03Z</time>
      </trkpt>
      <trkpt lat="46.40783" lon="-0.42754">
        <ele>83.1</ele>
        <time>2012-05-01T14:04:11Z</time>
      </trkpt>
      <trkpt lat="46.40783" lon="-0.42754">
        <ele>83.1</ele>
        <time>2012-05-01T14:04:13Z</time>
      </trkpt>
      <trkpt lat="46.40782" lon="-0.42754">
        <ele>81.6</ele>
        <time>2012-05-01T14:04:18Z</time>
      </trkpt>
      <trkpt lat="46.40783" lon="-0.42756">
        <ele>80</ele>
        <time>2012-05-01T14:04:24Z</time>
      </trkpt>
      <trkpt lat="46.40783" lon="-0.42756">
        <ele>79.7</ele>
        <time>2012-05-01T14:04:28Z</time>
      </trkpt>
      <trkpt lat="46.40783" lon="-0.42756">
        <ele>79.7</ele>
        <time>2012-05-01T14:04:33Z</time>
      </trkpt>
      <trkpt lat="46.40783" lon="-0.42756">
        <ele>79.8</ele>
        <time>2012-05-01T14:04:40Z</time>
      </trkpt>
      <trkpt lat="46.40783" lon="-0.42756">
        <ele>79.8</ele>
        <time>2012-05-01T14:04:43Z</time>
      </trkpt>
      <trkpt lat="46.40783" lon="-0.42756">
        <ele>79.8</ele>
        <time>2012-05-01T14:04:48Z</time>
      </trkpt>
      <trkpt lat="46.40783" lon="-0.42756">
        <ele>79.8</ele>
        <time>2012-05-01T14:04:55Z</time>
      </trkpt>
      <trkpt lat="46.40783" lon="-0.42756">
        <ele>79.8</ele>
        <time>2012-05-01T14:04:58Z</time>
      </trkpt>
      <trkpt lat="46.40784" lon="-0.42756">
        <ele>78</ele>
        <time>2012-05-01T14:05:03Z</time>
      </trkpt>
      <trkpt lat="46.40784" lon="-0.42755">
        <ele>78.9</ele>
        <time>2012-05-01T14:05:10Z</time>
      </trkpt>
      <trkpt lat="46.40784" lon="-0.42756">
        <ele>79.5</ele>
        <time>2012-05-01T14:05:13Z</time>
      </trkpt>
      <trkpt lat="46.40784" lon="-0.42756">
        <ele>79.7</ele>
        <time>2012-05-01T14:05:19Z</time>
      </trkpt>
      <trkpt lat="46.40784" lon="-0.42756">
        <ele>79.7</ele>
        <time>2012-05-01T14:05:23Z</time>
      </trkpt>
      <trkpt lat="46.40784" lon="-0.42756">
        <ele>79.7</ele>
        <time>2012-05-01T14:05:28Z</time>
      </trkpt>
      <trkpt lat="46.40784" lon="-0.42756">
        <ele>79.7</ele>
        <time>2012-05-01T14:05:35Z</time>
      </trkpt>
      <trkpt lat="46.40784" lon="-0.42756">
        <ele>79.7</ele>
        <time>2012-05-01T14:05:38Z</time>
      </trkpt>
      <trkpt lat="46.40784" lon="-0.42756">
        <ele>79.7</ele>
        <time>2012-05-01T14:05:43Z</time>
      </trkpt>
      <trkpt lat="46.40784" lon="-0.42756">
        <ele>79.7</ele>
        <time>2012-05-01T14:05:48Z</time>
      </trkpt>
      <trkpt lat="46.40784" lon="-0.42756">
        <ele>79.8</ele>
        <time>2012-05-01T14:05:53Z</time>
      </trkpt>
      <trkpt lat="46.40784" lon="-0.42756">
        <ele>79.8</ele>
        <time>2012-05-01T14:06:00Z</time>
      </trkpt>
      <trkpt lat="46.40784" lon="-0.42756">
        <ele>79.8</ele>
        <time>2012-05-01T14:06:03Z</time>
      </trkpt>
      <trkpt lat="46.40784" lon="-0.42756">
        <ele>80</ele>
        <time>2012-05-01T14:06:09Z</time>
      </trkpt>
      <trkpt lat="46.40784" lon="-0.42756">
        <ele>80.1</ele>
        <time>2012-05-01T14:06:13Z</time>
      </trkpt>
      <trkpt lat="46.40784" lon="-0.42756">
        <ele>80.1</ele>
        <time>2012-05-01T14:06:18Z</time>
      </trkpt>
      <trkpt lat="46.40784" lon="-0.42756">
        <ele>80.1</ele>
        <time>2012-05-01T14:06:24Z</time>
      </trkpt>
      <trkpt lat="46.40784" lon="-0.42756">
        <ele>80.1</ele>
        <time>2012-05-01T14:06:31Z</time>
      </trkpt>
      <trkpt lat="46.40784" lon="-0.42756">
        <ele>80.3</ele>
        <time>2012-05-01T14:06:33Z</time>
      </trkpt>
      <trkpt lat="46.40782" lon="-0.42756">
        <ele>82.4</ele>
        <time>2012-05-01T14:06:39Z</time>
      </trkpt>
      <trkpt lat="46.40783" lon="-0.42753">
        <ele>82.2</ele>
        <time>2012-05-01T14:06:45Z</time>
      </trkpt>
      <trkpt lat="46.40783" lon="-0.42753">
        <ele>82.2</ele>
        <time>2012-05-01T14:06:48Z</time>
      </trkpt>
      <trkpt lat="46.40783" lon="-0.42752">
        <ele>82.2</ele>
        <time>2012-05-01T14:06:53Z</time>
      </trkpt>
      <trkpt lat="46.40783" lon="-0.42752">
        <ele>82.2</ele>
        <time>2012-05-01T14:07:01Z</time>
      </trkpt>
      <trkpt lat="46.40783" lon="-0.42752">
        <ele>82.2</ele>
        <time>2012-05-01T14:07:03Z</time>
      </trkpt>
      <trkpt lat="46.40783" lon="-0.42752">
        <ele>82.2</ele>
        <time>2012-05-01T14:07:09Z</time>
      </trkpt>
      <trkpt lat="46.40783" lon="-0.42752">
        <ele>82.2</ele>
        <time>2012-05-01T14:07:13Z</time>
      </trkpt>
      <trkpt lat="46.40783" lon="-0.42752">
        <ele>82.2</ele>
        <time>2012-05-01T14:07:18Z</time>
      </trkpt>
      <trkpt lat="46.40783" lon="-0.42752">
        <ele>82.2</ele>
        <time>2012-05-01T14:07:24Z</time>
      </trkpt>
      <trkpt lat="46.40783" lon="-0.42752">
        <ele>82.3</ele>
        <time>2012-05-01T14:07:28Z</time>
      </trkpt>
      <trkpt lat="46.40783" lon="-0.42752">
        <ele>82.3</ele>
        <time>2012-05-01T14:07:35Z</time>
      </trkpt>
      <trkpt lat="46.40783" lon="-0.42752">
        <ele>82.3</ele>
        <time>2012-05-01T14:07:38Z</time>
      </trkpt>
      <trkpt lat="46.40783" lon="-0.42752">
        <ele>82.4</ele>
        <time>2012-05-01T14:07:46Z</time>
      </trkpt>
      <trkpt lat="46.40783" lon="-0.42752">
        <ele>82.4</ele>
        <time>2012-05-01T14:07:48Z</time>
      </trkpt>
      <trkpt lat="46.40783" lon="-0.42752">
        <ele>82.4</ele>
        <time>2012-05-01T14:07:53Z</time>
      </trkpt>
      <trkpt lat="46.40783" lon="-0.42752">
        <ele>82.4</ele>
        <time>2012-05-01T14:07:58Z</time>
      </trkpt>
      <trkpt lat="46.40783" lon="-0.42752">
        <ele>82.4</ele>
        <time>2012-05-01T14:08:06Z</time>
      </trkpt>
      <trkpt lat="46.40783" lon="-0.42752">
        <ele>82.5</ele>
        <time>2012-05-01T14:08:09Z</time>
      </trkpt>
      <trkpt lat="46.40784" lon="-0.42752">
        <ele>82.5</ele>
        <time>2012-05-01T14:08:13Z</time>
      </trkpt>
      <trkpt lat="46.40784" lon="-0.42752">
        <ele>82.5</ele>
        <time>2012-05-01T14:08:19Z</time>
      </trkpt>
      <trkpt lat="46.40784" lon="-0.42752">
        <ele>82.5</ele>
        <time>2012-05-01T14:08:25Z</time>
      </trkpt>
      <trkpt lat="46.40784" lon="-0.42752">
        <ele>82.5</ele>
        <time>2012-05-01T14:08:28Z</time>
      </trkpt>
      <trkpt lat="46.40784" lon="-0.42752">
        <ele>82.5</ele>
        <time>2012-05-01T14:08:34Z</time>
      </trkpt>
      <trkpt lat="46.40784" lon="-0.42752">
        <ele>82.5</ele>
        <time>2012-05-01T14:08:40Z</time>
      </trkpt>
      <trkpt lat="46.40784" lon="-0.42752">
        <ele>82.5</ele>
        <time>2012-05-01T14:08:43Z</time>
      </trkpt>
      <trkpt lat="46.40784" lon="-0.42752">
        <ele>82.5</ele>
        <time>2012-05-01T14:08:48Z</time>
      </trkpt>
      <trkpt lat="46.40784" lon="-0.42748">
        <ele>84</ele>
        <time>2012-05-01T14:08:56Z</time>
      </trkpt>
      <trkpt lat="46.40784" lon="-0.42747">
        <ele>84.5</ele>
        <time>2012-05-01T14:08:58Z</time>
      </trkpt>
      <trkpt lat="46.40785" lon="-0.4275">
        <ele>85.5</ele>
        <time>2012-05-01T14:09:06Z</time>
      </trkpt>
      <trkpt lat="46.40786" lon="-0.4275">
        <ele>85.6</ele>
        <time>2012-05-01T14:09:09Z</time>
      </trkpt>
      <trkpt lat="46.40786" lon="-0.42749">
        <ele>86.2</ele>
        <time>2012-05-01T14:09:13Z</time>
      </trkpt>
      <trkpt lat="46.40786" lon="-0.42749">
        <ele>86.3</ele>
        <time>2012-05-01T14:09:21Z</time>
      </trkpt>
      <trkpt lat="46.40786" lon="-0.42749">
        <ele>86.3</ele>
        <time>2012-05-01T14:09:24Z</time>
      </trkpt>
      <trkpt lat="46.40786" lon="-0.42749">
        <ele>86.3</ele>
        <time>2012-05-01T14:09:28Z</time>
      </trkpt>
      <trkpt lat="46.40787" lon="-0.42744">
        <ele>90.2</ele>
        <time>2012-05-01T14:09:34Z</time>
      </trkpt>
      <trkpt lat="46.40786" lon="-0.42742">
        <ele>93.2</ele>
        <time>2012-05-01T14:09:41Z</time>
      </trkpt>
      <trkpt lat="46.40786" lon="-0.42743">
        <ele>92.9</ele>
        <time>2012-05-01T14:09:43Z</time>
      </trkpt>
      <trkpt lat="46.40786" lon="-0.42743">
        <ele>92.5</ele>
        <time>2012-05-01T14:09:49Z</time>
      </trkpt>
      <trkpt lat="46.40786" lon="-0.42743">
        <ele>92.5</ele>
        <time>2012-05-01T14:09:57Z</time>
      </trkpt>
      <trkpt lat="46.40786" lon="-0.42743">
        <ele>92.5</ele>
        <time>2012-05-01T14:09:59Z</time>
      </trkpt>
      <trkpt lat="46.40786" lon="-0.42743">
        <ele>92.4</ele>
        <time>2012-05-01T14:10:03Z</time>
      </trkpt>
      <trkpt lat="46.40786" lon="-0.42743">
        <ele>92.5</ele>
        <time>2012-05-01T14:10:08Z</time>
      </trkpt>
      <trkpt lat="46.40787" lon="-0.42741">
        <ele>91.8</ele>
        <time>2012-05-01T14:10:15Z</time>
      </trkpt>
      <trkpt lat="46.40787" lon="-0.42743">
        <ele>92.7</ele>
        <time>2012-05-01T14:10:18Z</time>
      </trkpt>
      <trkpt lat="46.40787" lon="-0.42743">
        <ele>92.2</ele>
        <time>2012-05-01T14:10:24Z</time>
      </trkpt>
      <trkpt lat="46.40787" lon="-0.42742">
        <ele>92.2</ele>
        <time>2012-05-01T14:10:28Z</time>
      </trkpt>
      <trkpt lat="46.40787" lon="-0.42742">
        <ele>92.3</ele>
        <time>2012-05-01T14:10:33Z</time>
      </trkpt>
      <trkpt lat="46.40787" lon="-0.42743">
        <ele>92.4</ele>
        <time>2012-05-01T14:10:38Z</time>
      </trkpt>
      <trkpt lat="46.40786" lon="-0.42743">
        <ele>90</ele>
        <time>2012-05-01T14:10:43Z</time>
      </trkpt>
      <trkpt lat="46.40777" lon="-0.4275">
        <ele>88.4</ele>
        <time>2012-05-01T14:10:50Z</time>
      </trkpt>
      <trkpt lat="46.40774" lon="-0.42753">
        <ele>87.6</ele>
        <time>2012-05-01T14:10:53Z</time>
      </trkpt>
      <trkpt lat="46.4077" lon="-0.42757">
        <ele>85.9</ele>
        <time>2012-05-01T14:10:59Z</time>
      </trkpt>
      <trkpt lat="46.40764" lon="-0.4276">
        <ele>84.6</ele>
        <time>2012-05-01T14:11:03Z</time>
      </trkpt>
      <trkpt lat="46.4076" lon="-0.42764">
        <ele>82.9</ele>
        <time>2012-05-01T14:11:08Z</time>
      </trkpt>
      <trkpt lat="46.40755" lon="-0.42767">
        <ele>83</ele>
        <time>2012-05-01T14:11:13Z</time>
      </trkpt>
      <trkpt lat="46.4075" lon="-0.42769">
        <ele>81.7</ele>
        <time>2012-05-01T14:11:18Z</time>
      </trkpt>
      <trkpt lat="46.40747" lon="-0.42765">
        <ele>81.8</ele>
        <time>2012-05-01T14:11:23Z</time>
      </trkpt>
      <trkpt lat="46.40748" lon="-0.42757">
        <ele>82</ele>
        <time>2012-05-01T14:11:28Z</time>
      </trkpt>
      <trkpt lat="46.40745" lon="-0.4275">
        <ele>82.4</ele>
        <time>2012-05-01T14:11:36Z</time>
      </trkpt>
      <trkpt lat="46.40744" lon="-0.42748">
        <ele>83</ele>
        <time>2012-05-01T14:11:38Z</time>
      </trkpt>
      <trkpt lat="46.40743" lon="-0.42747">
        <ele>81.9</ele>
        <time>2012-05-01T14:11:44Z</time>
      </trkpt>
      <trkpt lat="46.40745" lon="-0.42743">
        <ele>81.2</ele>
        <time>2012-05-01T14:11:49Z</time>
      </trkpt>
      <trkpt lat="46.40751" lon="-0.42734">
        <ele>81.9</ele>
        <time>2012-05-01T14:11:54Z</time>
      </trkpt>
      <trkpt lat="46.40757" lon="-0.42726">
        <ele>80.8</ele>
        <time>2012-05-01T14:12:00Z</time>
      </trkpt>
      <trkpt lat="46.40758" lon="-0.42723">
        <ele>80.5</ele>
        <time>2012-05-01T14:12:03Z</time>
      </trkpt>
      <trkpt lat="46.40762" lon="-0.42716">
        <ele>80.3</ele>
        <time>2012-05-01T14:12:08Z</time>
      </trkpt>
      <trkpt lat="46.40764" lon="-0.42711">
        <ele>80.7</ele>
        <time>2012-05-01T14:12:14Z</time>
      </trkpt>
      <trkpt lat="46.40766" lon="-0.42705">
        <ele>79.9</ele>
        <time>2012-05-01T14:12:21Z</time>
      </trkpt>
      <trkpt lat="46.40768" lon="-0.42703">
        <ele>80.5</ele>
        <time>2012-05-01T14:12:23Z</time>
      </trkpt>
      <trkpt lat="46.40769" lon="-0.42698">
        <ele>82.1</ele>
        <time>2012-05-01T14:12:28Z</time>
      </trkpt>
      <trkpt lat="46.40769" lon="-0.42694">
        <ele>82.3</ele>
        <time>2012-05-01T14:12:34Z</time>
      </trkpt>
      <trkpt lat="46.40771" lon="-0.42688">
        <ele>82.9</ele>
        <time>2012-05-01T14:12:38Z</time>
      </trkpt>
      <trkpt lat="46.40773" lon="-0.42679">
        <ele>80.1</ele>
        <time>2012-05-01T14:12:43Z</time>
      </trkpt>
      <trkpt lat="46.40776" lon="-0.42673">
        <ele>81.4</ele>
        <time>2012-05-01T14:12:51Z</time>
      </trkpt>
      <trkpt lat="46.40778" lon="-0.42669">
        <ele>82.3</ele>
        <time>2012-05-01T14:12:53Z</time>
      </trkpt>
      <trkpt lat="46.40781" lon="-0.42665">
        <ele>82.9</ele>
        <time>2012-05-01T14:12:58Z</time>
      </trkpt>
      <trkpt lat="46.4078" lon="-0.42655">
        <ele>83.6</ele>
        <time>2012-05-01T14:13:05Z</time>
      </trkpt>
      <trkpt lat="46.40778" lon="-0.42652">
        <ele>83.4</ele>
        <time>2012-05-01T14:13:08Z</time>
      </trkpt>
      <trkpt lat="46.40778" lon="-0.42646">
        <ele>83.4</ele>
        <time>2012-05-01T14:13:13Z</time>
      </trkpt>
      <trkpt lat="46.40779" lon="-0.42638">
        <ele>85.1</ele>
        <time>2012-05-01T14:13:18Z</time>
      </trkpt>
      <trkpt lat="46.40781" lon="-0.42633">
        <ele>86.9</ele>
        <time>2012-05-01T14:13:23Z</time>
      </trkpt>
      <trkpt lat="46.4078" lon="-0.42626">
        <ele>88.7</ele>
        <time>2012-05-01T14:13:28Z</time>
      </trkpt>
      <trkpt lat="46.40778" lon="-0.42621">
        <ele>87.5</ele>
        <time>2012-05-01T14:13:33Z</time>
      </trkpt>
      <trkpt lat="46.40777" lon="-0.42617">
        <ele>88.4</ele>
        <time>2012-05-01T14:13:40Z</time>
      </trkpt>
      <trkpt lat="46.40777" lon="-0.4261">
        <ele>87.2</ele>
        <time>2012-05-01T14:13:46Z</time>
      </trkpt>
      <trkpt lat="46.40777" lon="-0.42603">
        <ele>85.3</ele>
        <time>2012-05-01T14:13:48Z</time>
      </trkpt>
      <trkpt lat="46.40779" lon="-0.42597">
        <ele>85.2</ele>
        <time>2012-05-01T14:13:53Z</time>
      </trkpt>
      <trkpt lat="46.40773" lon="-0.42588">
        <ele>86.2</ele>
        <time>2012-05-01T14:14:00Z</time>
      </trkpt>
      <trkpt lat="46.40774" lon="-0.42586">
        <ele>87</ele>
        <time>2012-05-01T14:14:03Z</time>
      </trkpt>
      <trkpt lat="46.40774" lon="-0.42585">
        <ele>87.3</ele>
        <time>2012-05-01T14:14:08Z</time>
      </trkpt>
      <trkpt lat="46.40771" lon="-0.42578">
        <ele>87.3</ele>
        <time>2012-05-01T14:14:16Z</time>
      </trkpt>
      <trkpt lat="46.4077" lon="-0.42575">
        <ele>87.5</ele>
        <time>2012-05-01T14:14:18Z</time>
      </trkpt>
      <trkpt lat="46.40771" lon="-0.42569">
        <ele>87.5</ele>
        <time>2012-05-01T14:14:24Z</time>
      </trkpt>
      <trkpt lat="46.40767" lon="-0.42565">
        <ele>88.5</ele>
        <time>2012-05-01T14:14:30Z</time>
      </trkpt>
      <trkpt lat="46.40762" lon="-0.42561">
        <ele>88.8</ele>
        <time>2012-05-01T14:14:34Z</time>
      </trkpt>
      <trkpt lat="46.40761" lon="-0.42559">
        <ele>89.1</ele>
        <time>2012-05-01T14:14:38Z</time>
      </trkpt>
      <trkpt lat="46.40762" lon="-0.42556">
        <ele>88.7</ele>
        <time>2012-05-01T14:14:44Z</time>
      </trkpt>
      <trkpt lat="46.40763" lon="-0.42555">
        <ele>89.3</ele>
        <time>2012-05-01T14:14:49Z</time>
      </trkpt>
      <trkpt lat="46.40762" lon="-0.42555">
        <ele>89.3</ele>
        <time>2012-05-01T14:14:53Z</time>
      </trkpt>
      <trkpt lat="46.40761" lon="-0.42554">
        <ele>88.5</ele>
        <time>2012-05-01T14:15:00Z</time>
      </trkpt>
      <trkpt lat="46.40755" lon="-0.42551">
        <ele>88</ele>
        <time>2012-05-01T14:15:03Z</time>
      </trkpt>
      <trkpt lat="46.40754" lon="-0.42549">
        <ele>87.1</ele>
        <time>2012-05-01T14:15:08Z</time>
      </trkpt>
      <trkpt lat="46.40752" lon="-0.4254">
        <ele>87.1</ele>
        <time>2012-05-01T14:15:16Z</time>
      </trkpt>
      <trkpt lat="46.40754" lon="-0.42536">
        <ele>87.5</ele>
        <time>2012-05-01T14:15:18Z</time>
      </trkpt>
      <trkpt lat="46.40754" lon="-0.42534">
        <ele>88.2</ele>
        <time>2012-05-01T14:15:23Z</time>
      </trkpt>
      <trkpt lat="46.40753" lon="-0.42531">
        <ele>89.2</ele>
        <time>2012-05-01T14:15:28Z</time>
      </trkpt>
      <trkpt lat="46.40752" lon="-0.4253">
        <ele>89.3</ele>
        <time>2012-05-01T14:15:33Z</time>
      </trkpt>
      <trkpt lat="46.40751" lon="-0.42529">
        <ele>89.7</ele>
        <time>2012-05-01T14:15:41Z</time>
      </trkpt>
      <trkpt lat="46.40751" lon="-0.42529">
        <ele>89.8</ele>
        <time>2012-05-01T14:15:44Z</time>
      </trkpt>
      <trkpt lat="46.40751" lon="-0.42529">
        <ele>90</ele>
        <time>2012-05-01T14:15:51Z</time>
      </trkpt>
      <trkpt lat="46.40751" lon="-0.42529">
        <ele>90.1</ele>
        <time>2012-05-01T14:15:53Z</time>
      </trkpt>
      <trkpt lat="46.40752" lon="-0.42529">
        <ele>90.2</ele>
        <time>2012-05-01T14:15:59Z</time>
      </trkpt>
      <trkpt lat="46.4075" lon="-0.42535">
        <ele>92.2</ele>
        <time>2012-05-01T14:16:03Z</time>
      </trkpt>
      <trkpt lat="46.40748" lon="-0.42536">
        <ele>92.2</ele>
        <time>2012-05-01T14:16:08Z</time>
      </trkpt>
      <trkpt lat="46.40746" lon="-0.42538">
        <ele>93.9</ele>
        <time>2012-05-01T14:16:16Z</time>
      </trkpt>
      <trkpt lat="46.40746" lon="-0.42538">
        <ele>93.9</ele>
        <time>2012-05-01T14:16:19Z</time>
      </trkpt>
      <trkpt lat="46.40743" lon="-0.4254">
        <ele>94.3</ele>
        <time>2012-05-01T14:16:23Z</time>
      </trkpt>
      <trkpt lat="46.40742" lon="-0.42541">
        <ele>93.8</ele>
        <time>2012-05-01T14:16:30Z</time>
      </trkpt>
      <trkpt lat="46.40742" lon="-0.42541">
        <ele>94</ele>
        <time>2012-05-01T14:16:34Z</time>
      </trkpt>
      <trkpt lat="46.40742" lon="-0.42541">
        <ele>94.2</ele>
        <time>2012-05-01T14:16:38Z</time>
      </trkpt>
      <trkpt lat="46.40742" lon="-0.42541">
        <ele>94.6</ele>
        <time>2012-05-01T14:16:44Z</time>
      </trkpt>
      <trkpt lat="46.40742" lon="-0.42541">
        <ele>94.6</ele>
        <time>2012-05-01T14:16:48Z</time>
      </trkpt>
      <trkpt lat="46.40742" lon="-0.42541">
        <ele>94.6</ele>
        <time>2012-05-01T14:16:53Z</time>
      </trkpt>
      <trkpt lat="46.40742" lon="-0.42541">
        <ele>94.6</ele>
        <time>2012-05-01T14:17:01Z</time>
      </trkpt>
      <trkpt lat="46.40742" lon="-0.42541">
        <ele>94.6</ele>
        <time>2012-05-01T14:17:03Z</time>
      </trkpt>
      <trkpt lat="46.40742" lon="-0.42541">
        <ele>94.6</ele>
        <time>2012-05-01T14:17:08Z</time>
      </trkpt>
      <trkpt lat="46.40742" lon="-0.42541">
        <ele>94.6</ele>
        <time>2012-05-01T14:17:16Z</time>
      </trkpt>
      <trkpt lat="46.40742" lon="-0.42541">
        <ele>94.6</ele>
        <time>2012-05-01T14:17:18Z</time>
      </trkpt>
      <trkpt lat="46.40742" lon="-0.42541">
        <ele>94.6</ele>
        <time>2012-05-01T14:17:24Z</time>
      </trkpt>
      <trkpt lat="46.40744" lon="-0.42537">
        <ele>95.4</ele>
        <time>2012-05-01T14:17:28Z</time>
      </trkpt>
      <trkpt lat="46.40746" lon="-0.42534">
        <ele>96.6</ele>
        <time>2012-05-01T14:17:33Z</time>
      </trkpt>
      <trkpt lat="46.40746" lon="-0.42531">
        <ele>99</ele>
        <time>2012-05-01T14:17:40Z</time>
      </trkpt>
      <trkpt lat="46.40746" lon="-0.4253">
        <ele>99.1</ele>
        <time>2012-05-01T14:17:43Z</time>
      </trkpt>
      <trkpt lat="46.40745" lon="-0.42529">
        <ele>98.8</ele>
        <time>2012-05-01T14:17:49Z</time>
      </trkpt>
      <trkpt lat="46.40745" lon="-0.42529">
        <ele>98.9</ele>
        <time>2012-05-01T14:17:53Z</time>
      </trkpt>
      <trkpt lat="46.40743" lon="-0.42529">
        <ele>99.1</ele>
        <time>2012-05-01T14:17:58Z</time>
      </trkpt>
      <trkpt lat="46.40741" lon="-0.42525">
        <ele>99.3</ele>
        <time>2012-05-01T14:18:06Z</time>
      </trkpt>
      <trkpt lat="46.40741" lon="-0.42523">
        <ele>99.1</ele>
        <time>2012-05-01T14:18:08Z</time>
      </trkpt>
      <trkpt lat="46.4074" lon="-0.42523">
        <ele>99.1</ele>
        <time>2012-05-01T14:18:13Z</time>
      </trkpt>
      <trkpt lat="46.4074" lon="-0.42523">
        <ele>99</ele>
        <time>2012-05-01T14:18:19Z</time>
      </trkpt>
      <trkpt lat="46.4073" lon="-0.42515">
        <ele>99.3</ele>
        <time>2012-05-01T14:18:23Z</time>
      </trkpt>
      <trkpt lat="46.40723" lon="-0.42509">
        <ele>100.9</ele>
        <time>2012-05-01T14:18:28Z</time>
      </trkpt>
      <trkpt lat="46.40723" lon="-0.42507">
        <ele>101.4</ele>
        <time>2012-05-01T14:18:36Z</time>
      </trkpt>
      <trkpt lat="46.40723" lon="-0.42506">
        <ele>101.6</ele>
        <time>2012-05-01T14:18:38Z</time>
      </trkpt>
      <trkpt lat="46.40722" lon="-0.42506">
        <ele>100.4</ele>
        <time>2012-05-01T14:18:43Z</time>
      </trkpt>
      <trkpt lat="46.40716" lon="-0.42507">
        <ele>101.4</ele>
        <time>2012-05-01T14:18:49Z</time>
      </trkpt>
      <trkpt lat="46.40715" lon="-0.42508">
        <ele>101.9</ele>
        <time>2012-05-01T14:18:55Z</time>
      </trkpt>
      <trkpt lat="46.40715" lon="-0.42507">
        <ele>101.9</ele>
        <time>2012-05-01T14:18:59Z</time>
      </trkpt>
      <trkpt lat="46.40714" lon="-0.42507">
        <ele>101.8</ele>
        <time>2012-05-01T14:19:03Z</time>
      </trkpt>
      <trkpt lat="46.40713" lon="-0.42509">
        <ele>101.4</ele>
        <time>2012-05-01T14:19:08Z</time>
      </trkpt>
      <trkpt lat="46.40711" lon="-0.42508">
        <ele>101.4</ele>
        <time>2012-05-01T14:19:13Z</time>
      </trkpt>
      <trkpt lat="46.40708" lon="-0.42507">
        <ele>100.9</ele>
        <time>2012-05-01T14:19:18Z</time>
      </trkpt>
      <trkpt lat="46.40708" lon="-0.42507">
        <ele>100.3</ele>
        <time>2012-05-01T14:19:25Z</time>
      </trkpt>
      <trkpt lat="46.40704" lon="-0.42508">
        <ele>100.5</ele>
        <time>2012-05-01T14:19:28Z</time>
      </trkpt>
      <trkpt lat="46.40703" lon="-0.4251">
        <ele>98.9</ele>
        <time>2012-05-01T14:19:35Z</time>
      </trkpt>
      <trkpt lat="46.40703" lon="-0.4251">
        <ele>98.2</ele>
        <time>2012-05-01T14:19:41Z</time>
      </trkpt>
      <trkpt lat="46.40703" lon="-0.4251">
        <ele>98.2</ele>
        <time>2012-05-01T14:19:44Z</time>
      </trkpt>
      <trkpt lat="46.40703" lon="-0.4251">
        <ele>98.2</ele>
        <time>2012-05-01T14:19:49Z</time>
      </trkpt>
      <trkpt lat="46.40699" lon="-0.42502">
        <ele>94.2</ele>
        <time>2012-05-01T14:19:56Z</time>
      </trkpt>
      <trkpt lat="46.40696" lon="-0.425">
        <ele>94.5</ele>
        <time>2012-05-01T14:19:58Z</time>
      </trkpt>
      <trkpt lat="46.40696" lon="-0.42491">
        <ele>93.9</ele>
        <time>2012-05-01T14:20:03Z</time>
      </trkpt>
      <trkpt lat="46.40696" lon="-0.42483">
        <ele>92.8</ele>
        <time>2012-05-01T14:20:11Z</time>
      </trkpt>
      <trkpt lat="46.40695" lon="-0.42478">
        <ele>93.2</ele>
        <time>2012-05-01T14:20:13Z</time>
      </trkpt>
      <trkpt lat="46.40695" lon="-0.42476">
        <ele>94.1</ele>
        <time>2012-05-01T14:20:18Z</time>
      </trkpt>
      <trkpt lat="46.40695" lon="-0.4247">
        <ele>94.3</ele>
        <time>2012-05-01T14:20:23Z</time>
      </trkpt>
      <trkpt lat="46.40695" lon="-0.42463">
        <ele>94.6</ele>
        <time>2012-05-01T14:20:29Z</time>
      </trkpt>
      <trkpt lat="46.40694" lon="-0.42457">
        <ele>96.8</ele>
        <time>2012-05-01T14:20:35Z</time>
      </trkpt>
      <trkpt lat="46.40695" lon="-0.42455">
        <ele>97.4</ele>
        <time>2012-05-01T14:20:38Z</time>
      </trkpt>
      <trkpt lat="46.40696" lon="-0.4245">
        <ele>97.7</ele>
        <time>2012-05-01T14:20:43Z</time>
      </trkpt>
      <trkpt lat="46.407" lon="-0.4245">
        <ele>98.2</ele>
        <time>2012-05-01T14:20:50Z</time>
      </trkpt>
      <trkpt lat="46.40704" lon="-0.42446">
        <ele>97.8</ele>
        <time>2012-05-01T14:20:54Z</time>
      </trkpt>
      <trkpt lat="46.40706" lon="-0.42445">
        <ele>98.2</ele>
        <time>2012-05-01T14:20:58Z</time>
      </trkpt>
      <trkpt lat="46.40708" lon="-0.42441">
        <ele>98.5</ele>
        <time>2012-05-01T14:21:06Z</time>
      </trkpt>
      <trkpt lat="46.40711" lon="-0.42439">
        <ele>98.2</ele>
        <time>2012-05-01T14:21:08Z</time>
      </trkpt>
      <trkpt lat="46.40714" lon="-0.42437">
        <ele>103</ele>
        <time>2012-05-01T14:21:13Z</time>
      </trkpt>
      <trkpt lat="46.40718" lon="-0.42437">
        <ele>107.1</ele>
        <time>2012-05-01T14:21:21Z</time>
      </trkpt>
      <trkpt lat="46.40718" lon="-0.42438">
        <ele>108.4</ele>
        <time>2012-05-01T14:21:23Z</time>
      </trkpt>
      <trkpt lat="46.40717" lon="-0.42437">
        <ele>109.1</ele>
        <time>2012-05-01T14:21:28Z</time>
      </trkpt>
      <trkpt lat="46.40719" lon="-0.4244">
        <ele>109.2</ele>
        <time>2012-05-01T14:21:36Z</time>
      </trkpt>
      <trkpt lat="46.40718" lon="-0.42441">
        <ele>109.6</ele>
        <time>2012-05-01T14:21:39Z</time>
      </trkpt>
      <trkpt lat="46.40719" lon="-0.42441">
        <ele>109.7</ele>
        <time>2012-05-01T14:21:44Z</time>
      </trkpt>
      <trkpt lat="46.40718" lon="-0.42442">
        <ele>109</ele>
        <time>2012-05-01T14:21:51Z</time>
      </trkpt>
      <trkpt lat="46.40718" lon="-0.42443">
        <ele>109.4</ele>
        <time>2012-05-01T14:21:53Z</time>
      </trkpt>
      <trkpt lat="46.40718" lon="-0.42443">
        <ele>109.4</ele>
        <time>2012-05-01T14:21:59Z</time>
      </trkpt>
      <trkpt lat="46.40718" lon="-0.42443">
        <ele>109.4</ele>
        <time>2012-05-01T14:22:03Z</time>
      </trkpt>
      <trkpt lat="46.40718" lon="-0.42443">
        <ele>109.4</ele>
        <time>2012-05-01T14:22:08Z</time>
      </trkpt>
      <trkpt lat="46.40718" lon="-0.42443">
        <ele>109.4</ele>
        <time>2012-05-01T14:22:16Z</time>
      </trkpt>
      <trkpt lat="46.40718" lon="-0.42443">
        <ele>109.4</ele>
        <time>2012-05-01T14:22:18Z</time>
      </trkpt>
      <trkpt lat="46.40718" lon="-0.42442">
        <ele>109</ele>
        <time>2012-05-01T14:22:24Z</time>
      </trkpt>
      <trkpt lat="46.40718" lon="-0.42443">
        <ele>110.8</ele>
        <time>2012-05-01T14:22:29Z</time>
      </trkpt>
      <trkpt lat="46.40718" lon="-0.42442">
        <ele>110.3</ele>
        <time>2012-05-01T14:22:33Z</time>
      </trkpt>
      <trkpt lat="46.40718" lon="-0.42442">
        <ele>110.3</ele>
        <time>2012-05-01T14:22:38Z</time>
      </trkpt>
      <trkpt lat="46.40718" lon="-0.4244">
        <ele>111.3</ele>
        <time>2012-05-01T14:22:46Z</time>
      </trkpt>
      <trkpt lat="46.40718" lon="-0.42439">
        <ele>111.8</ele>
        <time>2012-05-01T14:22:49Z</time>
      </trkpt>
      <trkpt lat="46.40715" lon="-0.4243">
        <ele>111.9</ele>
        <time>2012-05-01T14:22:56Z</time>
      </trkpt>
      <trkpt lat="46.40713" lon="-0.42426">
        <ele>112.1</ele>
        <time>2012-05-01T14:22:58Z</time>
      </trkpt>
      <trkpt lat="46.40713" lon="-0.42415">
        <ele>108.9</ele>
        <time>2012-05-01T14:23:06Z</time>
      </trkpt>
      <trkpt lat="46.40714" lon="-0.42409">
        <ele>108</ele>
        <time>2012-05-01T14:23:08Z</time>
      </trkpt>
      <trkpt lat="46.40714" lon="-0.42403">
        <ele>107.3</ele>
        <time>2012-05-01T14:23:13Z</time>
      </trkpt>
      <trkpt lat="46.40714" lon="-0.42395">
        <ele>107</ele>
        <time>2012-05-01T14:23:21Z</time>
      </trkpt>
      <trkpt lat="46.4071" lon="-0.42388">
        <ele>109</ele>
        <time>2012-05-01T14:23:23Z</time>
      </trkpt>
      <trkpt lat="46.40709" lon="-0.42382">
        <ele>109.8</ele>
        <time>2012-05-01T14:23:28Z</time>
      </trkpt>
      <trkpt lat="46.40708" lon="-0.42369">
        <ele>111.5</ele>
        <time>2012-05-01T14:23:33Z</time>
      </trkpt>
      <trkpt lat="46.40707" lon="-0.42361">
        <ele>111.2</ele>
        <time>2012-05-01T14:23:41Z</time>
      </trkpt>
      <trkpt lat="46.40709" lon="-0.42359">
        <ele>110.6</ele>
        <time>2012-05-01T14:23:43Z</time>
      </trkpt>
      <trkpt lat="46.40709" lon="-0.42349">
        <ele>109.7</ele>
        <time>2012-05-01T14:23:48Z</time>
      </trkpt>
      <trkpt lat="46.40708" lon="-0.42342">
        <ele>109.4</ele>
        <time>2012-05-01T14:23:54Z</time>
      </trkpt>
      <trkpt lat="46.40703" lon="-0.42335">
        <ele>109</ele>
        <time>2012-05-01T14:23:58Z</time>
      </trkpt>
      <trkpt lat="46.40702" lon="-0.42335">
        <ele>107.3</ele>
        <time>2012-05-01T14:24:03Z</time>
      </trkpt>
      <trkpt lat="46.40704" lon="-0.42328">
        <ele>107.7</ele>
        <time>2012-05-01T14:24:08Z</time>
      </trkpt>
      <trkpt lat="46.40704" lon="-0.4232">
        <ele>108.2</ele>
        <time>2012-05-01T14:24:16Z</time>
      </trkpt>
      <trkpt lat="46.40703" lon="-0.42315">
        <ele>106.9</ele>
        <time>2012-05-01T14:24:18Z</time>
      </trkpt>
      <trkpt lat="46.40702" lon="-0.4231">
        <ele>108.3</ele>
        <time>2012-05-01T14:24:24Z</time>
      </trkpt>
      <trkpt lat="46.407" lon="-0.42303">
        <ele>106.7</ele>
        <time>2012-05-01T14:24:28Z</time>
      </trkpt>
      <trkpt lat="46.40699" lon="-0.42297">
        <ele>106.3</ele>
        <time>2012-05-01T14:24:35Z</time>
      </trkpt>
      <trkpt lat="46.40699" lon="-0.42296">
        <ele>105.8</ele>
        <time>2012-05-01T14:24:38Z</time>
      </trkpt>
      <trkpt lat="46.40699" lon="-0.42297">
        <ele>106.1</ele>
        <time>2012-05-01T14:24:43Z</time>
      </trkpt>
      <trkpt lat="46.40699" lon="-0.42297">
        <ele>106.8</ele>
        <time>2012-05-01T14:24:48Z</time>
      </trkpt>
      <trkpt lat="46.40699" lon="-0.42297">
        <ele>106.8</ele>
        <time>2012-05-01T14:24:53Z</time>
      </trkpt>
      <trkpt lat="46.40699" lon="-0.42297">
        <ele>106.6</ele>
        <time>2012-05-01T14:25:01Z</time>
      </trkpt>
      <trkpt lat="46.40699" lon="-0.42297">
        <ele>106.6</ele>
        <time>2012-05-01T14:25:03Z</time>
      </trkpt>
      <trkpt lat="46.40699" lon="-0.42297">
        <ele>106.7</ele>
        <time>2012-05-01T14:25:08Z</time>
      </trkpt>
      <trkpt lat="46.40703" lon="-0.42295">
        <ele>106.3</ele>
        <time>2012-05-01T14:25:14Z</time>
      </trkpt>
      <trkpt lat="46.40706" lon="-0.42291">
        <ele>106.7</ele>
        <time>2012-05-01T14:25:20Z</time>
      </trkpt>
      <trkpt lat="46.40709" lon="-0.42291">
        <ele>107.1</ele>
        <time>2012-05-01T14:25:23Z</time>
      </trkpt>
      <trkpt lat="46.40712" lon="-0.42291">
        <ele>107</ele>
        <time>2012-05-01T14:25:29Z</time>
      </trkpt>
      <trkpt lat="46.40719" lon="-0.42287">
        <ele>106.7</ele>
        <time>2012-05-01T14:25:36Z</time>
      </trkpt>
      <trkpt lat="46.40722" lon="-0.42288">
        <ele>107.4</ele>
        <time>2012-05-01T14:25:39Z</time>
      </trkpt>
      <trkpt lat="46.40728" lon="-0.42292">
        <ele>107.7</ele>
        <time>2012-05-01T14:25:45Z</time>
      </trkpt>
      <trkpt lat="46.40732" lon="-0.4229">
        <ele>107</ele>
        <time>2012-05-01T14:25:51Z</time>
      </trkpt>
      <trkpt lat="46.40737" lon="-0.4229">
        <ele>105.9</ele>
        <time>2012-05-01T14:25:53Z</time>
      </trkpt>
      <trkpt lat="46.40742" lon="-0.42292">
        <ele>103.9</ele>
        <time>2012-05-01T14:26:01Z</time>
      </trkpt>
      <trkpt lat="46.40745" lon="-0.42292">
        <ele>103.4</ele>
        <time>2012-05-01T14:26:04Z</time>
      </trkpt>
      <trkpt lat="46.40753" lon="-0.42291">
        <ele>106</ele>
        <time>2012-05-01T14:26:10Z</time>
      </trkpt>
      <trkpt lat="46.40756" lon="-0.42291">
        <ele>107.5</ele>
        <time>2012-05-01T14:26:13Z</time>
      </trkpt>
      <trkpt lat="46.40761" lon="-0.42291">
        <ele>108.8</ele>
        <time>2012-05-01T14:26:18Z</time>
      </trkpt>
      <trkpt lat="46.40766" lon="-0.42292">
        <ele>109.4</ele>
        <time>2012-05-01T14:26:23Z</time>
      </trkpt>
      <trkpt lat="46.40771" lon="-0.42291">
        <ele>107.1</ele>
        <time>2012-05-01T14:26:28Z</time>
      </trkpt>
      <trkpt lat="46.40776" lon="-0.42293">
        <ele>106</ele>
        <time>2012-05-01T14:26:33Z</time>
      </trkpt>
      <trkpt lat="46.40781" lon="-0.42293">
        <ele>104</ele>
        <time>2012-05-01T14:26:38Z</time>
      </trkpt>
      <trkpt lat="46.40785" lon="-0.42295">
        <ele>105.2</ele>
        <time>2012-05-01T14:26:46Z</time>
      </trkpt>
      <trkpt lat="46.40789" lon="-0.42295">
        <ele>104.5</ele>
        <time>2012-05-01T14:26:48Z</time>
      </trkpt>
      <trkpt lat="46.40794" lon="-0.42296">
        <ele>105.3</ele>
        <time>2012-05-01T14:26:53Z</time>
      </trkpt>
      <trkpt lat="46.40797" lon="-0.42296">
        <ele>104.5</ele>
        <time>2012-05-01T14:27:00Z</time>
      </trkpt>
      <trkpt lat="46.408" lon="-0.42297">
        <ele>104.9</ele>
        <time>2012-05-01T14:27:03Z</time>
      </trkpt>
      <trkpt lat="46.40803" lon="-0.42295">
        <ele>104.8</ele>
        <time>2012-05-01T14:27:11Z</time>
      </trkpt>
      <trkpt lat="46.40803" lon="-0.42296">
        <ele>104.9</ele>
        <time>2012-05-01T14:27:15Z</time>
      </trkpt>
      <trkpt lat="46.40805" lon="-0.42296">
        <ele>105.9</ele>
        <time>2012-05-01T14:27:18Z</time>
      </trkpt>
      <trkpt lat="46.4081" lon="-0.42295">
        <ele>105.6</ele>
        <time>2012-05-01T14:27:23Z</time>
      </trkpt>
      <trkpt lat="46.40813" lon="-0.42293">
        <ele>107</ele>
        <time>2012-05-01T14:27:31Z</time>
      </trkpt>
      <trkpt lat="46.40816" lon="-0.42292">
        <ele>107.7</ele>
        <time>2012-05-01T14:27:34Z</time>
      </trkpt>
      <trkpt lat="46.40816" lon="-0.42291">
        <ele>107.7</ele>
        <time>2012-05-01T14:27:38Z</time>
      </trkpt>
      <trkpt lat="46.40822" lon="-0.42282">
        <ele>105.5</ele>
        <time>2012-05-01T14:27:44Z</time>
      </trkpt>
      <trkpt lat="46.40827" lon="-0.42279">
        <ele>103.7</ele>
        <time>2012-05-01T14:27:48Z</time>
      </trkpt>
      <trkpt lat="46.40833" lon="-0.42273">
        <ele>103.4</ele>
        <time>2012-05-01T14:27:53Z</time>
      </trkpt>
      <trkpt lat="46.40836" lon="-0.42269">
        <ele>102.2</ele>
        <time>2012-05-01T14:27:58Z</time>
      </trkpt>
      <trkpt lat="46.40839" lon="-0.42264">
        <ele>101.4</ele>
        <time>2012-05-01T14:28:06Z</time>
      </trkpt>
      <trkpt lat="46.40841" lon="-0.42262">
        <ele>100.8</ele>
        <time>2012-05-01T14:28:08Z</time>
      </trkpt>
      <trkpt lat="46.40849" lon="-0.42256">
        <ele>102.4</ele>
        <time>2012-05-01T14:28:13Z</time>
      </trkpt>
      <trkpt lat="46.40853" lon="-0.4225">
        <ele>104.2</ele>
        <time>2012-05-01T14:28:18Z</time>
      </trkpt>
      <trkpt lat="46.40854" lon="-0.42248">
        <ele>103.7</ele>
        <time>2012-05-01T14:28:23Z</time>
      </trkpt>
      <trkpt lat="46.40858" lon="-0.42244">
        <ele>102.7</ele>
        <time>2012-05-01T14:28:28Z</time>
      </trkpt>
      <trkpt lat="46.40864" lon="-0.42238">
        <ele>103.8</ele>
        <time>2012-05-01T14:28:33Z</time>
      </trkpt>
      <trkpt lat="46.40869" lon="-0.42231">
        <ele>99.7</ele>
        <time>2012-05-01T14:28:38Z</time>
      </trkpt>
      <trkpt lat="46.4087" lon="-0.42229">
        <ele>99.6</ele>
        <time>2012-05-01T14:28:43Z</time>
      </trkpt>
      <trkpt lat="46.40872" lon="-0.42226">
        <ele>99.3</ele>
        <time>2012-05-01T14:28:48Z</time>
      </trkpt>
      <trkpt lat="46.40872" lon="-0.42226">
        <ele>99.2</ele>
        <time>2012-05-01T14:28:55Z</time>
      </trkpt>
      <trkpt lat="46.40877" lon="-0.42222">
        <ele>100.1</ele>
        <time>2012-05-01T14:28:59Z</time>
      </trkpt>
      <trkpt lat="46.40884" lon="-0.42212">
        <ele>98.9</ele>
        <time>2012-05-01T14:29:03Z</time>
      </trkpt>
      <trkpt lat="46.40889" lon="-0.42204">
        <ele>95.8</ele>
        <time>2012-05-01T14:29:11Z</time>
      </trkpt>
      <trkpt lat="46.40891" lon="-0.42201">
        <ele>95.2</ele>
        <time>2012-05-01T14:29:13Z</time>
      </trkpt>
      <trkpt lat="46.40895" lon="-0.42199">
        <ele>94.6</ele>
        <time>2012-05-01T14:29:18Z</time>
      </trkpt>
      <trkpt lat="46.40906" lon="-0.4219">
        <ele>94.5</ele>
        <time>2012-05-01T14:29:26Z</time>
      </trkpt>
      <trkpt lat="46.4091" lon="-0.42186">
        <ele>90.6</ele>
        <time>2012-05-01T14:29:28Z</time>
      </trkpt>
      <trkpt lat="46.40914" lon="-0.42183">
        <ele>92.3</ele>
        <time>2012-05-01T14:29:33Z</time>
      </trkpt>
      <trkpt lat="46.40915" lon="-0.4218">
        <ele>92.2</ele>
        <time>2012-05-01T14:29:39Z</time>
      </trkpt>
      <trkpt lat="46.40917" lon="-0.4218">
        <ele>92.9</ele>
        <time>2012-05-01T14:29:46Z</time>
      </trkpt>
      <trkpt lat="46.40917" lon="-0.4218">
        <ele>92.8</ele>
        <time>2012-05-01T14:29:48Z</time>
      </trkpt>
      <trkpt lat="46.4092" lon="-0.42178">
        <ele>92.4</ele>
        <time>2012-05-01T14:29:54Z</time>
      </trkpt>
      <trkpt lat="46.4093" lon="-0.42174">
        <ele>92.1</ele>
        <time>2012-05-01T14:30:01Z</time>
      </trkpt>
      <trkpt lat="46.40933" lon="-0.42176">
        <ele>91.2</ele>
        <time>2012-05-01T14:30:03Z</time>
      </trkpt>
      <trkpt lat="46.40943" lon="-0.42168">
        <ele>88.4</ele>
        <time>2012-05-01T14:30:08Z</time>
      </trkpt>
      <trkpt lat="46.40948" lon="-0.42164">
        <ele>86.4</ele>
        <time>2012-05-01T14:30:13Z</time>
      </trkpt>
      <trkpt lat="46.40952" lon="-0.42165">
        <ele>85.9</ele>
        <time>2012-05-01T14:30:18Z</time>
      </trkpt>
      <trkpt lat="46.40957" lon="-0.42164">
        <ele>85.2</ele>
        <time>2012-05-01T14:30:23Z</time>
      </trkpt>
      <trkpt lat="46.40965" lon="-0.42159">
        <ele>84.8</ele>
        <time>2012-05-01T14:30:30Z</time>
      </trkpt>
      <trkpt lat="46.40971" lon="-0.42155">
        <ele>84.4</ele>
        <time>2012-05-01T14:30:33Z</time>
      </trkpt>
      <trkpt lat="46.40976" lon="-0.42152">
        <ele>82.2</ele>
        <time>2012-05-01T14:30:39Z</time>
      </trkpt>
      <trkpt lat="46.40981" lon="-0.42151">
        <ele>80.7</ele>
        <time>2012-05-01T14:30:44Z</time>
      </trkpt>
      <trkpt lat="46.40985" lon="-0.42148">
        <ele>81.3</ele>
        <time>2012-05-01T14:30:51Z</time>
      </trkpt>
      <trkpt lat="46.40987" lon="-0.42148">
        <ele>81.9</ele>
        <time>2012-05-01T14:30:53Z</time>
      </trkpt>
      <trkpt lat="46.40987" lon="-0.42149">
        <ele>81.7</ele>
        <time>2012-05-01T14:30:59Z</time>
      </trkpt>
      <trkpt lat="46.40988" lon="-0.4215">
        <ele>80.7</ele>
        <time>2012-05-01T14:31:03Z</time>
      </trkpt>
      <trkpt lat="46.4099" lon="-0.42153">
        <ele>81.6</ele>
        <time>2012-05-01T14:31:08Z</time>
      </trkpt>
      <trkpt lat="46.40995" lon="-0.42158">
        <ele>81.3</ele>
        <time>2012-05-01T14:31:13Z</time>
      </trkpt>
      <trkpt lat="46.40998" lon="-0.42162">
        <ele>79.3</ele>
        <time>2012-05-01T14:31:20Z</time>
      </trkpt>
      <trkpt lat="46.40999" lon="-0.42166">
        <ele>80.2</ele>
        <time>2012-05-01T14:31:23Z</time>
      </trkpt>
      <trkpt lat="46.40999" lon="-0.42167">
        <ele>80.1</ele>
        <time>2012-05-01T14:31:28Z</time>
      </trkpt>
      <trkpt lat="46.40999" lon="-0.42167">
        <ele>79.3</ele>
        <time>2012-05-01T14:31:33Z</time>
      </trkpt>
      <trkpt lat="46.40999" lon="-0.42167">
        <ele>79.4</ele>
        <time>2012-05-01T14:31:38Z</time>
      </trkpt>
      <trkpt lat="46.40999" lon="-0.42167">
        <ele>79.4</ele>
        <time>2012-05-01T14:31:43Z</time>
      </trkpt>
      <trkpt lat="46.41" lon="-0.42169">
        <ele>80.1</ele>
        <time>2012-05-01T14:31:48Z</time>
      </trkpt>
      <trkpt lat="46.41001" lon="-0.42173">
        <ele>80.7</ele>
        <time>2012-05-01T14:31:53Z</time>
      </trkpt>
      <trkpt lat="46.41001" lon="-0.42173">
        <ele>81</ele>
        <time>2012-05-01T14:31:58Z</time>
      </trkpt>
      <trkpt lat="46.41002" lon="-0.42178">
        <ele>81.9</ele>
        <time>2012-05-01T14:32:04Z</time>
      </trkpt>
      <trkpt lat="46.41002" lon="-0.42178">
        <ele>82.1</ele>
        <time>2012-05-01T14:32:08Z</time>
      </trkpt>
      <trkpt lat="46.41003" lon="-0.42178">
        <ele>82.2</ele>
        <time>2012-05-01T14:32:13Z</time>
      </trkpt>
      <trkpt lat="46.41003" lon="-0.42178">
        <ele>82.3</ele>
        <time>2012-05-01T14:32:18Z</time>
      </trkpt>
      <trkpt lat="46.41002" lon="-0.42178">
        <ele>82.4</ele>
        <time>2012-05-01T14:32:23Z</time>
      </trkpt>
      <trkpt lat="46.41005" lon="-0.42175">
        <ele>83</ele>
        <time>2012-05-01T14:32:28Z</time>
      </trkpt>
      <trkpt lat="46.41005" lon="-0.42175">
        <ele>83.3</ele>
        <time>2012-05-01T14:32:33Z</time>
      </trkpt>
      <trkpt lat="46.41006" lon="-0.42175">
        <ele>83.3</ele>
        <time>2012-05-01T14:32:38Z</time>
      </trkpt>
      <trkpt lat="46.41006" lon="-0.42175">
        <ele>83.2</ele>
        <time>2012-05-01T14:32:43Z</time>
      </trkpt>
      <trkpt lat="46.41006" lon="-0.42175">
        <ele>83.2</ele>
        <time>2012-05-01T14:32:51Z</time>
      </trkpt>
      <trkpt lat="46.41006" lon="-0.42175">
        <ele>83.2</ele>
        <time>2012-05-01T14:32:53Z</time>
      </trkpt>
      <trkpt lat="46.41006" lon="-0.42175">
        <ele>83.1</ele>
        <time>2012-05-01T14:33:00Z</time>
      </trkpt>
      <trkpt lat="46.41006" lon="-0.42175">
        <ele>82.6</ele>
        <time>2012-05-01T14:33:03Z</time>
      </trkpt>
      <trkpt lat="46.41006" lon="-0.42175">
        <ele>82.8</ele>
        <time>2012-05-01T14:33:09Z</time>
      </trkpt>
      <trkpt lat="46.41006" lon="-0.42177">
        <ele>82.3</ele>
        <time>2012-05-01T14:33:13Z</time>
      </trkpt>
      <trkpt lat="46.4101" lon="-0.42181">
        <ele>82.3</ele>
        <time>2012-05-01T14:33:18Z</time>
      </trkpt>
      <trkpt lat="46.41013" lon="-0.42183">
        <ele>82.6</ele>
        <time>2012-05-01T14:33:23Z</time>
      </trkpt>
      <trkpt lat="46.41013" lon="-0.42181">
        <ele>81</ele>
        <time>2012-05-01T14:33:28Z</time>
      </trkpt>
      <trkpt lat="46.41013" lon="-0.42182">
        <ele>81.3</ele>
        <time>2012-05-01T14:33:33Z</time>
      </trkpt>
      <trkpt lat="46.41013" lon="-0.42181">
        <ele>81.8</ele>
        <time>2012-05-01T14:33:38Z</time>
      </trkpt>
      <trkpt lat="46.41013" lon="-0.42182">
        <ele>82.3</ele>
        <time>2012-05-01T14:33:46Z</time>
      </trkpt>
      <trkpt lat="46.41013" lon="-0.42182">
        <ele>82.4</ele>
        <time>2012-05-01T14:33:48Z</time>
      </trkpt>
      <trkpt lat="46.41013" lon="-0.42182">
        <ele>82.5</ele>
        <time>2012-05-01T14:33:53Z</time>
      </trkpt>
      <trkpt lat="46.41013" lon="-0.42182">
        <ele>82.6</ele>
        <time>2012-05-01T14:33:59Z</time>
      </trkpt>
      <trkpt lat="46.41013" lon="-0.42182">
        <ele>82.5</ele>
        <time>2012-05-01T14:34:03Z</time>
      </trkpt>
      <trkpt lat="46.41013" lon="-0.42182">
        <ele>82.5</ele>
        <time>2012-05-01T14:34:08Z</time>
      </trkpt>
      <trkpt lat="46.41013" lon="-0.42183">
        <ele>82.9</ele>
        <time>2012-05-01T14:34:14Z</time>
      </trkpt>
      <trkpt lat="46.41015" lon="-0.42183">
        <ele>82.4</ele>
        <time>2012-05-01T14:34:20Z</time>
      </trkpt>
      <trkpt lat="46.41018" lon="-0.42186">
        <ele>83.6</ele>
        <time>2012-05-01T14:34:23Z</time>
      </trkpt>
      <trkpt lat="46.41019" lon="-0.42186">
        <ele>80.9</ele>
        <time>2012-05-01T14:34:28Z</time>
      </trkpt>
      <trkpt lat="46.41022" lon="-0.42186">
        <ele>80.7</ele>
        <time>2012-05-01T14:34:33Z</time>
      </trkpt>
      <trkpt lat="46.41028" lon="-0.42185">
        <ele>81.5</ele>
        <time>2012-05-01T14:34:38Z</time>
      </trkpt>
      <trkpt lat="46.41028" lon="-0.42185">
        <ele>81.3</ele>
        <time>2012-05-01T14:34:43Z</time>
      </trkpt>
      <trkpt lat="46.41028" lon="-0.42185">
        <ele>81.5</ele>
        <time>2012-05-01T14:34:48Z</time>
      </trkpt>
      <trkpt lat="46.41034" lon="-0.42185">
        <ele>82.6</ele>
        <time>2012-05-01T14:34:53Z</time>
      </trkpt>
      <trkpt lat="46.4104" lon="-0.42182">
        <ele>82.3</ele>
        <time>2012-05-01T14:34:58Z</time>
      </trkpt>
      <trkpt lat="46.41042" lon="-0.42182">
        <ele>82.1</ele>
        <time>2012-05-01T14:35:04Z</time>
      </trkpt>
      <trkpt lat="46.41043" lon="-0.42181">
        <ele>82.2</ele>
        <time>2012-05-01T14:35:11Z</time>
      </trkpt>
      <trkpt lat="46.41048" lon="-0.42177">
        <ele>81.8</ele>
        <time>2012-05-01T14:35:13Z</time>
      </trkpt>
      <trkpt lat="46.41053" lon="-0.42173">
        <ele>81.4</ele>
        <time>2012-05-01T14:35:18Z</time>
      </trkpt>
      <trkpt lat="46.41058" lon="-0.42168">
        <ele>77.7</ele>
        <time>2012-05-01T14:35:23Z</time>
      </trkpt>
      <trkpt lat="46.41061" lon="-0.42169">
        <ele>76.7</ele>
        <time>2012-05-01T14:35:28Z</time>
      </trkpt>
      <trkpt lat="46.41061" lon="-0.42171">
        <ele>77.1</ele>
        <time>2012-05-01T14:35:33Z</time>
      </trkpt>
      <trkpt lat="46.41065" lon="-0.42176">
        <ele>78.2</ele>
        <time>2012-05-01T14:35:41Z</time>
      </trkpt>
      <trkpt lat="46.41066" lon="-0.42176">
        <ele>78.4</ele>
        <time>2012-05-01T14:35:44Z</time>
      </trkpt>
      <trkpt lat="46.41065" lon="-0.42177">
        <ele>78.8</ele>
        <time>2012-05-01T14:35:48Z</time>
      </trkpt>
      <trkpt lat="46.41065" lon="-0.42177">
        <ele>79.4</ele>
        <time>2012-05-01T14:35:53Z</time>
      </trkpt>
      <trkpt lat="46.41069" lon="-0.4218">
        <ele>81</ele>
        <time>2012-05-01T14:35:59Z</time>
      </trkpt>
      <trkpt lat="46.41075" lon="-0.42183">
        <ele>76.6</ele>
        <time>2012-05-01T14:36:04Z</time>
      </trkpt>
      <trkpt lat="46.41078" lon="-0.42181">
        <ele>77.5</ele>
        <time>2012-05-01T14:36:11Z</time>
      </trkpt>
      <trkpt lat="46.41082" lon="-0.4218">
        <ele>80.1</ele>
        <time>2012-05-01T14:36:13Z</time>
      </trkpt>
      <trkpt lat="46.41088" lon="-0.42178">
        <ele>81.9</ele>
        <time>2012-05-01T14:36:18Z</time>
      </trkpt>
      <trkpt lat="46.41091" lon="-0.42174">
        <ele>84.2</ele>
        <time>2012-05-01T14:36:24Z</time>
      </trkpt>
      <trkpt lat="46.41097" lon="-0.42175">
        <ele>87.6</ele>
        <time>2012-05-01T14:36:30Z</time>
      </trkpt>
      <trkpt lat="46.41097" lon="-0.42174">
        <ele>89.2</ele>
        <time>2012-05-01T14:36:33Z</time>
      </trkpt>
      <trkpt lat="46.41101" lon="-0.42173">
        <ele>89.8</ele>
        <time>2012-05-01T14:36:38Z</time>
      </trkpt>
      <trkpt lat="46.41105" lon="-0.42171">
        <ele>90.3</ele>
        <time>2012-05-01T14:36:43Z</time>
      </trkpt>
      <trkpt lat="46.41109" lon="-0.42169">
        <ele>91.8</ele>
        <time>2012-05-01T14:36:48Z</time>
      </trkpt>
      <trkpt lat="46.4111" lon="-0.42169">
        <ele>92.3</ele>
        <time>2012-05-01T14:36:56Z</time>
      </trkpt>
      <trkpt lat="46.4111" lon="-0.42169">
        <ele>92.2</ele>
        <time>2012-05-01T14:36:58Z</time>
      </trkpt>
      <trkpt lat="46.41112" lon="-0.42169">
        <ele>94.3</ele>
        <time>2012-05-01T14:37:04Z</time>
      </trkpt>
      <trkpt lat="46.41115" lon="-0.42168">
        <ele>93.9</ele>
        <time>2012-05-01T14:37:11Z</time>
      </trkpt>
      <trkpt lat="46.41116" lon="-0.42169">
        <ele>94.6</ele>
        <time>2012-05-01T14:37:14Z</time>
      </trkpt>
      <trkpt lat="46.41123" lon="-0.4217">
        <ele>95.7</ele>
        <time>2012-05-01T14:37:18Z</time>
      </trkpt>
      <trkpt lat="46.41128" lon="-0.42171">
        <ele>97.7</ele>
        <time>2012-05-01T14:37:23Z</time>
      </trkpt>
      <trkpt lat="46.41131" lon="-0.42171">
        <ele>98</ele>
        <time>2012-05-01T14:37:28Z</time>
      </trkpt>
      <trkpt lat="46.41132" lon="-0.42172">
        <ele>98.4</ele>
        <time>2012-05-01T14:37:33Z</time>
      </trkpt>
      <trkpt lat="46.41137" lon="-0.42175">
        <ele>98.7</ele>
        <time>2012-05-01T14:38:13Z</time>
      </trkpt>
      <trkpt lat="46.41161" lon="-0.42188">
        <ele>106.7</ele>
        <time>2012-05-01T14:38:20Z</time>
      </trkpt>
      <trkpt lat="46.41161" lon="-0.42189">
        <ele>108.2</ele>
        <time>2012-05-01T14:38:23Z</time>
      </trkpt>
      <trkpt lat="46.41163" lon="-0.4219">
        <ele>107.3</ele>
        <time>2012-05-01T14:38:28Z</time>
      </trkpt>
      <trkpt lat="46.41164" lon="-0.42192">
        <ele>107.9</ele>
        <time>2012-05-01T14:38:35Z</time>
      </trkpt>
      <trkpt lat="46.41164" lon="-0.42192">
        <ele>109.7</ele>
        <time>2012-05-01T14:38:40Z</time>
      </trkpt>
      <trkpt lat="46.41164" lon="-0.42192">
        <ele>109.5</ele>
        <time>2012-05-01T14:38:44Z</time>
      </trkpt>
      <trkpt lat="46.41164" lon="-0.42192">
        <ele>109.6</ele>
        <time>2012-05-01T14:38:48Z</time>
      </trkpt>
      <trkpt lat="46.41164" lon="-0.42192">
        <ele>109.6</ele>
        <time>2012-05-01T14:38:53Z</time>
      </trkpt>
      <trkpt lat="46.41164" lon="-0.42192">
        <ele>109.6</ele>
        <time>2012-05-01T14:38:58Z</time>
      </trkpt>
      <trkpt lat="46.41164" lon="-0.42193">
        <ele>107.8</ele>
        <time>2012-05-01T14:39:03Z</time>
      </trkpt>
      <trkpt lat="46.41165" lon="-0.42194">
        <ele>107.6</ele>
        <time>2012-05-01T14:39:11Z</time>
      </trkpt>
      <trkpt lat="46.41165" lon="-0.42194">
        <ele>107.7</ele>
        <time>2012-05-01T14:39:14Z</time>
      </trkpt>
      <trkpt lat="46.41166" lon="-0.42195">
        <ele>107.2</ele>
        <time>2012-05-01T14:39:18Z</time>
      </trkpt>
      <trkpt lat="46.41168" lon="-0.42204">
        <ele>103.5</ele>
        <time>2012-05-01T14:39:26Z</time>
      </trkpt>
      <trkpt lat="46.41171" lon="-0.42208">
        <ele>102.7</ele>
        <time>2012-05-01T14:39:28Z</time>
      </trkpt>
      <trkpt lat="46.41174" lon="-0.4221">
        <ele>101.9</ele>
        <time>2012-05-01T14:39:33Z</time>
      </trkpt>
      <trkpt lat="46.41175" lon="-0.42211">
        <ele>102.1</ele>
        <time>2012-05-01T14:39:39Z</time>
      </trkpt>
      <trkpt lat="46.4118" lon="-0.42217">
        <ele>102.3</ele>
        <time>2012-05-01T14:39:43Z</time>
      </trkpt>
      <trkpt lat="46.41183" lon="-0.42226">
        <ele>102.3</ele>
        <time>2012-05-01T14:39:48Z</time>
      </trkpt>
      <trkpt lat="46.41186" lon="-0.42234">
        <ele>105.2</ele>
        <time>2012-05-01T14:39:56Z</time>
      </trkpt>
      <trkpt lat="46.41189" lon="-0.42234">
        <ele>105.5</ele>
        <time>2012-05-01T14:39:58Z</time>
      </trkpt>
      <trkpt lat="46.41189" lon="-0.42234">
        <ele>106.1</ele>
        <time>2012-05-01T14:40:03Z</time>
      </trkpt>
      <trkpt lat="46.4119" lon="-0.42235">
        <ele>106.1</ele>
        <time>2012-05-01T14:40:09Z</time>
      </trkpt>
      <trkpt lat="46.41195" lon="-0.42243">
        <ele>108.1</ele>
        <time>2012-05-01T14:40:16Z</time>
      </trkpt>
      <trkpt lat="46.41197" lon="-0.42247">
        <ele>106.4</ele>
        <time>2012-05-01T14:40:18Z</time>
      </trkpt>
      <trkpt lat="46.41201" lon="-0.42251">
        <ele>106.3</ele>
        <time>2012-05-01T14:40:23Z</time>
      </trkpt>
      <trkpt lat="46.41205" lon="-0.42255">
        <ele>107.1</ele>
        <time>2012-05-01T14:40:28Z</time>
      </trkpt>
      <trkpt lat="46.41209" lon="-0.42261">
        <ele>109.1</ele>
        <time>2012-05-01T14:40:33Z</time>
      </trkpt>
      <trkpt lat="46.41212" lon="-0.42265">
        <ele>109.9</ele>
        <time>2012-05-01T14:40:38Z</time>
      </trkpt>
      <trkpt lat="46.41216" lon="-0.42269">
        <ele>109.6</ele>
        <time>2012-05-01T14:40:46Z</time>
      </trkpt>
      <trkpt lat="46.41216" lon="-0.4227">
        <ele>106.7</ele>
        <time>2012-05-01T14:40:48Z</time>
      </trkpt>
      <trkpt lat="46.41215" lon="-0.4227">
        <ele>107.5</ele>
        <time>2012-05-01T14:40:55Z</time>
      </trkpt>
      <trkpt lat="46.41215" lon="-0.4227">
        <ele>106.8</ele>
        <time>2012-05-01T14:40:59Z</time>
      </trkpt>
      <trkpt lat="46.41216" lon="-0.42271">
        <ele>106.8</ele>
        <time>2012-05-01T14:41:03Z</time>
      </trkpt>
      <trkpt lat="46.41216" lon="-0.42271">
        <ele>107.4</ele>
        <time>2012-05-01T14:41:08Z</time>
      </trkpt>
      <trkpt lat="46.41218" lon="-0.42272">
        <ele>107.4</ele>
        <time>2012-05-01T14:41:13Z</time>
      </trkpt>
      <trkpt lat="46.41221" lon="-0.4227">
        <ele>109</ele>
        <time>2012-05-01T14:41:18Z</time>
      </trkpt>
      <trkpt lat="46.41224" lon="-0.42268">
        <ele>107.2</ele>
        <time>2012-05-01T14:41:24Z</time>
      </trkpt>
      <trkpt lat="46.41228" lon="-0.42265">
        <ele>105.9</ele>
        <time>2012-05-01T14:41:30Z</time>
      </trkpt>
      <trkpt lat="46.4123" lon="-0.42263">
        <ele>106.2</ele>
        <time>2012-05-01T14:41:33Z</time>
      </trkpt>
      <trkpt lat="46.41235" lon="-0.4226">
        <ele>105.6</ele>
        <time>2012-05-01T14:41:38Z</time>
      </trkpt>
      <trkpt lat="46.41241" lon="-0.4226">
        <ele>105</ele>
        <time>2012-05-01T14:41:43Z</time>
      </trkpt>
      <trkpt lat="46.41246" lon="-0.42259">
        <ele>103.8</ele>
        <time>2012-05-01T14:41:49Z</time>
      </trkpt>
      <trkpt lat="46.41249" lon="-0.42255">
        <ele>103.5</ele>
        <time>2012-05-01T14:41:54Z</time>
      </trkpt>
      <trkpt lat="46.41249" lon="-0.42255">
        <ele>103.4</ele>
        <time>2012-05-01T14:41:58Z</time>
      </trkpt>
      <trkpt lat="46.4125" lon="-0.42256">
        <ele>103.1</ele>
        <time>2012-05-01T14:42:03Z</time>
      </trkpt>
      <trkpt lat="46.4125" lon="-0.42256">
        <ele>104</ele>
        <time>2012-05-01T14:42:08Z</time>
      </trkpt>
      <trkpt lat="46.41252" lon="-0.42256">
        <ele>106.5</ele>
        <time>2012-05-01T14:42:14Z</time>
      </trkpt>
      <trkpt lat="46.41255" lon="-0.42256">
        <ele>106.7</ele>
        <time>2012-05-01T14:42:19Z</time>
      </trkpt>
      <trkpt lat="46.4126" lon="-0.42254">
        <ele>108.8</ele>
        <time>2012-05-01T14:42:23Z</time>
      </trkpt>
      <trkpt lat="46.41264" lon="-0.42253">
        <ele>109.4</ele>
        <time>2012-05-01T14:42:28Z</time>
      </trkpt>
      <trkpt lat="46.41268" lon="-0.42251">
        <ele>109.7</ele>
        <time>2012-05-01T14:42:33Z</time>
      </trkpt>
      <trkpt lat="46.41272" lon="-0.42245">
        <ele>108.6</ele>
        <time>2012-05-01T14:42:38Z</time>
      </trkpt>
      <trkpt lat="46.41276" lon="-0.42239">
        <ele>108.6</ele>
        <time>2012-05-01T14:42:44Z</time>
      </trkpt>
      <trkpt lat="46.41283" lon="-0.42235">
        <ele>109</ele>
        <time>2012-05-01T14:42:49Z</time>
      </trkpt>
      <trkpt lat="46.41287" lon="-0.42231">
        <ele>106.5</ele>
        <time>2012-05-01T14:42:53Z</time>
      </trkpt>
      <trkpt lat="46.41293" lon="-0.42232">
        <ele>107.1</ele>
        <time>2012-05-01T14:42:58Z</time>
      </trkpt>
      <trkpt lat="46.41294" lon="-0.42229">
        <ele>104</ele>
        <time>2012-05-01T14:43:03Z</time>
      </trkpt>
      <trkpt lat="46.41298" lon="-0.42227">
        <ele>101.8</ele>
        <time>2012-05-01T14:43:08Z</time>
      </trkpt>
      <trkpt lat="46.41305" lon="-0.42224">
        <ele>102</ele>
        <time>2012-05-01T14:43:13Z</time>
      </trkpt>
      <trkpt lat="46.41308" lon="-0.42218">
        <ele>102.1</ele>
        <time>2012-05-01T14:43:18Z</time>
      </trkpt>
      <trkpt lat="46.41311" lon="-0.42214">
        <ele>104.7</ele>
        <time>2012-05-01T14:43:24Z</time>
      </trkpt>
      <trkpt lat="46.41315" lon="-0.42212">
        <ele>104.6</ele>
        <time>2012-05-01T14:43:28Z</time>
      </trkpt>
      <trkpt lat="46.41319" lon="-0.4221">
        <ele>106.6</ele>
        <time>2012-05-01T14:43:33Z</time>
      </trkpt>
      <trkpt lat="46.41324" lon="-0.42209">
        <ele>107</ele>
        <time>2012-05-01T14:43:38Z</time>
      </trkpt>
      <trkpt lat="46.41329" lon="-0.42207">
        <ele>107.6</ele>
        <time>2012-05-01T14:43:43Z</time>
      </trkpt>
      <trkpt lat="46.41333" lon="-0.42207">
        <ele>108.8</ele>
        <time>2012-05-01T14:43:48Z</time>
      </trkpt>
      <trkpt lat="46.41335" lon="-0.42203">
        <ele>109</ele>
        <time>2012-05-01T14:43:53Z</time>
      </trkpt>
      <trkpt lat="46.41337" lon="-0.422">
        <ele>108.8</ele>
        <time>2012-05-01T14:43:59Z</time>
      </trkpt>
      <trkpt lat="46.41336" lon="-0.42201">
        <ele>109</ele>
        <time>2012-05-01T14:44:05Z</time>
      </trkpt>
      <trkpt lat="46.41335" lon="-0.422">
        <ele>108.8</ele>
        <time>2012-05-01T14:44:08Z</time>
      </trkpt>
      <trkpt lat="46.41334" lon="-0.42195">
        <ele>109.7</ele>
        <time>2012-05-01T14:44:13Z</time>
      </trkpt>
      <trkpt lat="46.41334" lon="-0.42195">
        <ele>110.2</ele>
        <time>2012-05-01T14:44:18Z</time>
      </trkpt>
      <trkpt lat="46.41334" lon="-0.42188">
        <ele>109.3</ele>
        <time>2012-05-01T14:44:23Z</time>
      </trkpt>
      <trkpt lat="46.41333" lon="-0.42188">
        <ele>108.2</ele>
        <time>2012-05-01T14:44:28Z</time>
      </trkpt>
      <trkpt lat="46.41332" lon="-0.42187">
        <ele>107.7</ele>
        <time>2012-05-01T14:44:33Z</time>
      </trkpt>
      <trkpt lat="46.41332" lon="-0.42182">
        <ele>107.6</ele>
        <time>2012-05-01T14:44:38Z</time>
      </trkpt>
      <trkpt lat="46.41332" lon="-0.42182">
        <ele>108.3</ele>
        <time>2012-05-01T14:44:43Z</time>
      </trkpt>
      <trkpt lat="46.41332" lon="-0.42181">
        <ele>107.7</ele>
        <time>2012-05-01T14:44:49Z</time>
      </trkpt>
      <trkpt lat="46.41331" lon="-0.42173">
        <ele>108.2</ele>
        <time>2012-05-01T14:44:53Z</time>
      </trkpt>
      <trkpt lat="46.4133" lon="-0.42168">
        <ele>107.3</ele>
        <time>2012-05-01T14:44:58Z</time>
      </trkpt>
      <trkpt lat="46.41328" lon="-0.42161">
        <ele>107.7</ele>
        <time>2012-05-01T14:45:03Z</time>
      </trkpt>
      <trkpt lat="46.41326" lon="-0.42159">
        <ele>109.4</ele>
        <time>2012-05-01T14:45:08Z</time>
      </trkpt>
      <trkpt lat="46.41326" lon="-0.42158">
        <ele>109.5</ele>
        <time>2012-05-01T14:45:13Z</time>
      </trkpt>
      <trkpt lat="46.41324" lon="-0.42153">
        <ele>110.3</ele>
        <time>2012-05-01T14:45:18Z</time>
      </trkpt>
      <trkpt lat="46.41323" lon="-0.42149">
        <ele>110.3</ele>
        <time>2012-05-01T14:45:24Z</time>
      </trkpt>
      <trkpt lat="46.41321" lon="-0.42146">
        <ele>111.1</ele>
        <time>2012-05-01T14:45:28Z</time>
      </trkpt>
      <trkpt lat="46.4132" lon="-0.42146">
        <ele>112.5</ele>
        <time>2012-05-01T14:45:33Z</time>
      </trkpt>
      <trkpt lat="46.41321" lon="-0.42145">
        <ele>113.3</ele>
        <time>2012-05-01T14:45:39Z</time>
      </trkpt>
      <trkpt lat="46.4132" lon="-0.42145">
        <ele>113.3</ele>
        <time>2012-05-01T14:45:44Z</time>
      </trkpt>
      <trkpt lat="46.41322" lon="-0.4214">
        <ele>111.6</ele>
        <time>2012-05-01T14:45:48Z</time>
      </trkpt>
      <trkpt lat="46.41321" lon="-0.42138">
        <ele>110.4</ele>
        <time>2012-05-01T14:45:53Z</time>
      </trkpt>
      <trkpt lat="46.41319" lon="-0.42134">
        <ele>109.3</ele>
        <time>2012-05-01T14:45:58Z</time>
      </trkpt>
      <trkpt lat="46.41318" lon="-0.42129">
        <ele>107.9</ele>
        <time>2012-05-01T14:46:03Z</time>
      </trkpt>
      <trkpt lat="46.41316" lon="-0.42125">
        <ele>107</ele>
        <time>2012-05-01T14:46:08Z</time>
      </trkpt>
      <trkpt lat="46.41314" lon="-0.42118">
        <ele>106.4</ele>
        <time>2012-05-01T14:46:13Z</time>
      </trkpt>
      <trkpt lat="46.41312" lon="-0.42111">
        <ele>106.1</ele>
        <time>2012-05-01T14:46:18Z</time>
      </trkpt>
      <trkpt lat="46.4131" lon="-0.42109">
        <ele>105.6</ele>
        <time>2012-05-01T14:46:23Z</time>
      </trkpt>
      <trkpt lat="46.4131" lon="-0.42103">
        <ele>104.8</ele>
        <time>2012-05-01T14:46:28Z</time>
      </trkpt>
      <trkpt lat="46.41309" lon="-0.42098">
        <ele>106.1</ele>
        <time>2012-05-01T14:46:33Z</time>
      </trkpt>
      <trkpt lat="46.41308" lon="-0.42092">
        <ele>109.1</ele>
        <time>2012-05-01T14:46:40Z</time>
      </trkpt>
      <trkpt lat="46.41307" lon="-0.42088">
        <ele>109.9</ele>
        <time>2012-05-01T14:46:44Z</time>
      </trkpt>
      <trkpt lat="46.41303" lon="-0.42082">
        <ele>108.5</ele>
        <time>2012-05-01T14:46:48Z</time>
      </trkpt>
      <trkpt lat="46.41301" lon="-0.42079">
        <ele>107.8</ele>
        <time>2012-05-01T14:46:53Z</time>
      </trkpt>
      <trkpt lat="46.41298" lon="-0.42076">
        <ele>106</ele>
        <time>2012-05-01T14:46:58Z</time>
      </trkpt>
      <trkpt lat="46.41297" lon="-0.42074">
        <ele>104.4</ele>
        <time>2012-05-01T14:47:03Z</time>
      </trkpt>
      <trkpt lat="46.41296" lon="-0.42073">
        <ele>105.8</ele>
        <time>2012-05-01T14:47:08Z</time>
      </trkpt>
      <trkpt lat="46.41294" lon="-0.42072">
        <ele>107.1</ele>
        <time>2012-05-01T14:47:13Z</time>
      </trkpt>
      <trkpt lat="46.41294" lon="-0.42071">
        <ele>107.3</ele>
        <time>2012-05-01T14:47:18Z</time>
      </trkpt>
      <trkpt lat="46.41293" lon="-0.42069">
        <ele>107.7</ele>
        <time>2012-05-01T14:47:23Z</time>
      </trkpt>
      <trkpt lat="46.41293" lon="-0.42067">
        <ele>106.8</ele>
        <time>2012-05-01T14:47:28Z</time>
      </trkpt>
      <trkpt lat="46.41293" lon="-0.42062">
        <ele>104.6</ele>
        <time>2012-05-01T14:47:33Z</time>
      </trkpt>
      <trkpt lat="46.41295" lon="-0.42057">
        <ele>101</ele>
        <time>2012-05-01T14:47:39Z</time>
      </trkpt>
      <trkpt lat="46.41295" lon="-0.42055">
        <ele>100</ele>
        <time>2012-05-01T14:47:44Z</time>
      </trkpt>
      <trkpt lat="46.41297" lon="-0.42053">
        <ele>99.1</ele>
        <time>2012-05-01T14:47:48Z</time>
      </trkpt>
      <trkpt lat="46.41299" lon="-0.42051">
        <ele>100.3</ele>
        <time>2012-05-01T14:47:53Z</time>
      </trkpt>
      <trkpt lat="46.41304" lon="-0.42047">
        <ele>99.7</ele>
        <time>2012-05-01T14:47:58Z</time>
      </trkpt>
      <trkpt lat="46.41308" lon="-0.42046">
        <ele>100.5</ele>
        <time>2012-05-01T14:48:03Z</time>
      </trkpt>
      <trkpt lat="46.41311" lon="-0.42043">
        <ele>100.4</ele>
        <time>2012-05-01T14:48:08Z</time>
      </trkpt>
      <trkpt lat="46.41314" lon="-0.4204">
        <ele>98.6</ele>
        <time>2012-05-01T14:48:13Z</time>
      </trkpt>
      <trkpt lat="46.41319" lon="-0.42039">
        <ele>99</ele>
        <time>2012-05-01T14:48:18Z</time>
      </trkpt>
      <trkpt lat="46.41324" lon="-0.42036">
        <ele>98.9</ele>
        <time>2012-05-01T14:48:23Z</time>
      </trkpt>
      <trkpt lat="46.4133" lon="-0.42035">
        <ele>91.9</ele>
        <time>2012-05-01T14:48:28Z</time>
      </trkpt>
      <trkpt lat="46.41336" lon="-0.42035">
        <ele>92.5</ele>
        <time>2012-05-01T14:48:33Z</time>
      </trkpt>
      <trkpt lat="46.41338" lon="-0.42032">
        <ele>91.6</ele>
        <time>2012-05-01T14:48:38Z</time>
      </trkpt>
      <trkpt lat="46.41339" lon="-0.42026">
        <ele>90.7</ele>
        <time>2012-05-01T14:48:44Z</time>
      </trkpt>
      <trkpt lat="46.41341" lon="-0.42022">
        <ele>89.8</ele>
        <time>2012-05-01T14:48:49Z</time>
      </trkpt>
      <trkpt lat="46.41341" lon="-0.42015">
        <ele>89.7</ele>
        <time>2012-05-01T14:48:53Z</time>
      </trkpt>
      <trkpt lat="46.41341" lon="-0.42013">
        <ele>91.2</ele>
        <time>2012-05-01T14:48:58Z</time>
      </trkpt>
      <trkpt lat="46.41343" lon="-0.42011">
        <ele>90.1</ele>
        <time>2012-05-01T14:49:03Z</time>
      </trkpt>
      <trkpt lat="46.41346" lon="-0.42009">
        <ele>88.8</ele>
        <time>2012-05-01T14:49:08Z</time>
      </trkpt>
      <trkpt lat="46.41348" lon="-0.42009">
        <ele>88.8</ele>
        <time>2012-05-01T14:49:13Z</time>
      </trkpt>
      <trkpt lat="46.41348" lon="-0.42009">
        <ele>89.5</ele>
        <time>2012-05-01T14:49:18Z</time>
      </trkpt>
      <trkpt lat="46.41348" lon="-0.42009">
        <ele>89.9</ele>
        <time>2012-05-01T14:49:23Z</time>
      </trkpt>
      <trkpt lat="46.41348" lon="-0.42009">
        <ele>89.9</ele>
        <time>2012-05-01T14:49:28Z</time>
      </trkpt>
      <trkpt lat="46.41348" lon="-0.42009">
        <ele>89.8</ele>
        <time>2012-05-01T14:49:33Z</time>
      </trkpt>
      <trkpt lat="46.41348" lon="-0.42009">
        <ele>89.8</ele>
        <time>2012-05-01T14:49:38Z</time>
      </trkpt>
      <trkpt lat="46.41349" lon="-0.42008">
        <ele>90.3</ele>
        <time>2012-05-01T14:49:43Z</time>
      </trkpt>
      <trkpt lat="46.4135" lon="-0.42006">
        <ele>89.3</ele>
        <time>2012-05-01T14:49:48Z</time>
      </trkpt>
      <trkpt lat="46.41351" lon="-0.42005">
        <ele>90.7</ele>
        <time>2012-05-01T14:49:53Z</time>
      </trkpt>
      <trkpt lat="46.41353" lon="-0.42005">
        <ele>91.9</ele>
        <time>2012-05-01T14:49:59Z</time>
      </trkpt>
      <trkpt lat="46.4136" lon="-0.42002">
        <ele>90.7</ele>
        <time>2012-05-01T14:50:04Z</time>
      </trkpt>
      <trkpt lat="46.41364" lon="-0.42001">
        <ele>86.7</ele>
        <time>2012-05-01T14:50:08Z</time>
      </trkpt>
      <trkpt lat="46.4137" lon="-0.41996">
        <ele>84.1</ele>
        <time>2012-05-01T14:50:13Z</time>
      </trkpt>
      <trkpt lat="46.41375" lon="-0.41993">
        <ele>83.9</ele>
        <time>2012-05-01T14:50:18Z</time>
      </trkpt>
      <trkpt lat="46.41379" lon="-0.41989">
        <ele>82.6</ele>
        <time>2012-05-01T14:50:23Z</time>
      </trkpt>
      <trkpt lat="46.41381" lon="-0.41985">
        <ele>77</ele>
        <time>2012-05-01T14:50:28Z</time>
      </trkpt>
      <trkpt lat="46.41385" lon="-0.41982">
        <ele>80.1</ele>
        <time>2012-05-01T14:50:33Z</time>
      </trkpt>
      <trkpt lat="46.41387" lon="-0.41982">
        <ele>81.2</ele>
        <time>2012-05-01T14:50:38Z</time>
      </trkpt>
      <trkpt lat="46.41388" lon="-0.41981">
        <ele>81.2</ele>
        <time>2012-05-01T14:50:43Z</time>
      </trkpt>
      <trkpt lat="46.4139" lon="-0.4198">
        <ele>81.5</ele>
        <time>2012-05-01T14:50:48Z</time>
      </trkpt>
      <trkpt lat="46.41391" lon="-0.41979">
        <ele>81.3</ele>
        <time>2012-05-01T14:50:53Z</time>
      </trkpt>
      <trkpt lat="46.41391" lon="-0.4198">
        <ele>81.5</ele>
        <time>2012-05-01T14:50:58Z</time>
      </trkpt>
      <trkpt lat="46.41394" lon="-0.41975">
        <ele>81.3</ele>
        <time>2012-05-01T14:51:03Z</time>
      </trkpt>
      <trkpt lat="46.41396" lon="-0.41971">
        <ele>81.4</ele>
        <time>2012-05-01T14:51:08Z</time>
      </trkpt>
      <trkpt lat="46.41399" lon="-0.41967">
        <ele>83.2</ele>
        <time>2012-05-01T14:51:13Z</time>
      </trkpt>
      <trkpt lat="46.41399" lon="-0.41964">
        <ele>77.2</ele>
        <time>2012-05-01T14:51:19Z</time>
      </trkpt>
      <trkpt lat="46.41403" lon="-0.4196">
        <ele>73.1</ele>
        <time>2012-05-01T14:51:23Z</time>
      </trkpt>
      <trkpt lat="46.41405" lon="-0.41955">
        <ele>72.3</ele>
        <time>2012-05-01T14:51:28Z</time>
      </trkpt>
      <trkpt lat="46.41409" lon="-0.41951">
        <ele>75</ele>
        <time>2012-05-01T14:51:33Z</time>
      </trkpt>
      <trkpt lat="46.41413" lon="-0.41948">
        <ele>75</ele>
        <time>2012-05-01T14:51:38Z</time>
      </trkpt>
      <trkpt lat="46.41418" lon="-0.41948">
        <ele>75.5</ele>
        <time>2012-05-01T14:51:43Z</time>
      </trkpt>
      <trkpt lat="46.4142" lon="-0.41946">
        <ele>74.5</ele>
        <time>2012-05-01T14:51:48Z</time>
      </trkpt>
      <trkpt lat="46.41423" lon="-0.41945">
        <ele>75.3</ele>
        <time>2012-05-01T14:51:53Z</time>
      </trkpt>
      <trkpt lat="46.41424" lon="-0.41945">
        <ele>74.8</ele>
        <time>2012-05-01T14:51:58Z</time>
      </trkpt>
      <trkpt lat="46.41427" lon="-0.41946">
        <ele>75.5</ele>
        <time>2012-05-01T14:52:03Z</time>
      </trkpt>
      <trkpt lat="46.41427" lon="-0.41946">
        <ele>76</ele>
        <time>2012-05-01T14:52:08Z</time>
      </trkpt>
      <trkpt lat="46.41438" lon="-0.41948">
        <ele>77.2</ele>
        <time>2012-05-01T14:52:13Z</time>
      </trkpt>
      <trkpt lat="46.41442" lon="-0.41948">
        <ele>77.2</ele>
        <time>2012-05-01T14:52:18Z</time>
      </trkpt>
      <trkpt lat="46.41445" lon="-0.41945">
        <ele>79.5</ele>
        <time>2012-05-01T14:52:23Z</time>
      </trkpt>
      <trkpt lat="46.41449" lon="-0.41944">
        <ele>78.3</ele>
        <time>2012-05-01T14:52:28Z</time>
      </trkpt>
      <trkpt lat="46.41452" lon="-0.41942">
        <ele>78.9</ele>
        <time>2012-05-01T14:52:33Z</time>
      </trkpt>
      <trkpt lat="46.41458" lon="-0.4194">
        <ele>76.5</ele>
        <time>2012-05-01T14:52:39Z</time>
      </trkpt>
      <trkpt lat="46.41461" lon="-0.41937">
        <ele>76.5</ele>
        <time>2012-05-01T14:52:45Z</time>
      </trkpt>
      <trkpt lat="46.41464" lon="-0.41938">
        <ele>76.2</ele>
        <time>2012-05-01T14:52:49Z</time>
      </trkpt>
      <trkpt lat="46.41468" lon="-0.4194">
        <ele>79.3</ele>
        <time>2012-05-01T14:52:53Z</time>
      </trkpt>
      <trkpt lat="46.41473" lon="-0.4194">
        <ele>77.4</ele>
        <time>2012-05-01T14:52:58Z</time>
      </trkpt>
      <trkpt lat="46.41476" lon="-0.4194">
        <ele>77.3</ele>
        <time>2012-05-01T14:53:03Z</time>
      </trkpt>
      <trkpt lat="46.4148" lon="-0.4194">
        <ele>77.4</ele>
        <time>2012-05-01T14:53:08Z</time>
      </trkpt>
      <trkpt lat="46.41485" lon="-0.41939">
        <ele>77.3</ele>
        <time>2012-05-01T14:53:13Z</time>
      </trkpt>
      <trkpt lat="46.41487" lon="-0.41938">
        <ele>78.9</ele>
        <time>2012-05-01T14:53:18Z</time>
      </trkpt>
      <trkpt lat="46.4149" lon="-0.41939">
        <ele>79.2</ele>
        <time>2012-05-01T14:53:23Z</time>
      </trkpt>
      <trkpt lat="46.41491" lon="-0.41939">
        <ele>79.9</ele>
        <time>2012-05-01T14:53:28Z</time>
      </trkpt>
      <trkpt lat="46.4149" lon="-0.41939">
        <ele>78.6</ele>
        <time>2012-05-01T14:53:33Z</time>
      </trkpt>
      <trkpt lat="46.4149" lon="-0.4194">
        <ele>79.4</ele>
        <time>2012-05-01T14:53:38Z</time>
      </trkpt>
      <trkpt lat="46.4149" lon="-0.41941">
        <ele>79.8</ele>
        <time>2012-05-01T14:53:43Z</time>
      </trkpt>
      <trkpt lat="46.41488" lon="-0.41939">
        <ele>80.5</ele>
        <time>2012-05-01T14:53:48Z</time>
      </trkpt>
      <trkpt lat="46.41487" lon="-0.41937">
        <ele>81</ele>
        <time>2012-05-01T14:53:53Z</time>
      </trkpt>
      <trkpt lat="46.41489" lon="-0.41937">
        <ele>80.7</ele>
        <time>2012-05-01T14:53:58Z</time>
      </trkpt>
      <trkpt lat="46.41491" lon="-0.41937">
        <ele>80.7</ele>
        <time>2012-05-01T14:54:03Z</time>
      </trkpt>
      <trkpt lat="46.41491" lon="-0.41937">
        <ele>80.8</ele>
        <time>2012-05-01T14:54:09Z</time>
      </trkpt>
      <trkpt lat="46.41491" lon="-0.41937">
        <ele>80.8</ele>
        <time>2012-05-01T14:54:14Z</time>
      </trkpt>
      <trkpt lat="46.41491" lon="-0.41937">
        <ele>80.8</ele>
        <time>2012-05-01T14:54:19Z</time>
      </trkpt>
      <trkpt lat="46.41491" lon="-0.41937">
        <ele>80.8</ele>
        <time>2012-05-01T14:54:24Z</time>
      </trkpt>
      <trkpt lat="46.41497" lon="-0.41943">
        <ele>82.2</ele>
        <time>2012-05-01T14:54:29Z</time>
      </trkpt>
      <trkpt lat="46.41497" lon="-0.41942">
        <ele>84.5</ele>
        <time>2012-05-01T14:54:33Z</time>
      </trkpt>
      <trkpt lat="46.41497" lon="-0.41943">
        <ele>84.2</ele>
        <time>2012-05-01T14:54:39Z</time>
      </trkpt>
      <trkpt lat="46.41498" lon="-0.41943">
        <ele>84.2</ele>
        <time>2012-05-01T14:54:43Z</time>
      </trkpt>
      <trkpt lat="46.41498" lon="-0.41943">
        <ele>84.2</ele>
        <time>2012-05-01T14:54:48Z</time>
      </trkpt>
      <trkpt lat="46.41498" lon="-0.41943">
        <ele>84.7</ele>
        <time>2012-05-01T14:54:53Z</time>
      </trkpt>
      <trkpt lat="46.41498" lon="-0.41943">
        <ele>85.2</ele>
        <time>2012-05-01T14:54:59Z</time>
      </trkpt>
      <trkpt lat="46.41496" lon="-0.41941">
        <ele>84.5</ele>
        <time>2012-05-01T14:55:03Z</time>
      </trkpt>
      <trkpt lat="46.41487" lon="-0.41938">
        <ele>84.8</ele>
        <time>2012-05-01T14:55:08Z</time>
      </trkpt>
      <trkpt lat="46.41486" lon="-0.41936">
        <ele>83.5</ele>
        <time>2012-05-01T14:55:13Z</time>
      </trkpt>
      <trkpt lat="46.41487" lon="-0.41935">
        <ele>83.6</ele>
        <time>2012-05-01T14:55:18Z</time>
      </trkpt>
      <trkpt lat="46.41489" lon="-0.41932">
        <ele>84.6</ele>
        <time>2012-05-01T14:55:24Z</time>
      </trkpt>
      <trkpt lat="46.41491" lon="-0.41931">
        <ele>85.7</ele>
        <time>2012-05-01T14:55:28Z</time>
      </trkpt>
      <trkpt lat="46.41494" lon="-0.41935">
        <ele>84</ele>
        <time>2012-05-01T14:55:33Z</time>
      </trkpt>
      <trkpt lat="46.41494" lon="-0.41937">
        <ele>84.1</ele>
        <time>2012-05-01T14:55:38Z</time>
      </trkpt>
      <trkpt lat="46.41496" lon="-0.41936">
        <ele>84.1</ele>
        <time>2012-05-01T14:55:43Z</time>
      </trkpt>
      <trkpt lat="46.41497" lon="-0.41937">
        <ele>84.4</ele>
        <time>2012-05-01T14:55:49Z</time>
      </trkpt>
      <trkpt lat="46.41502" lon="-0.41933">
        <ele>83.3</ele>
        <time>2012-05-01T14:55:55Z</time>
      </trkpt>
      <trkpt lat="46.41506" lon="-0.41932">
        <ele>83.5</ele>
        <time>2012-05-01T14:55:59Z</time>
      </trkpt>
      <trkpt lat="46.41508" lon="-0.41931">
        <ele>85.2</ele>
        <time>2012-05-01T14:56:03Z</time>
      </trkpt>
      <trkpt lat="46.41512" lon="-0.41931">
        <ele>85.1</ele>
        <time>2012-05-01T14:56:08Z</time>
      </trkpt>
      <trkpt lat="46.41515" lon="-0.41928">
        <ele>85.2</ele>
        <time>2012-05-01T14:56:13Z</time>
      </trkpt>
      <trkpt lat="46.4152" lon="-0.41928">
        <ele>90.1</ele>
        <time>2012-05-01T14:56:18Z</time>
      </trkpt>
      <trkpt lat="46.41525" lon="-0.41924">
        <ele>90.3</ele>
        <time>2012-05-01T14:56:23Z</time>
      </trkpt>
      <trkpt lat="46.41532" lon="-0.41922">
        <ele>87.1</ele>
        <time>2012-05-01T14:56:28Z</time>
      </trkpt>
      <trkpt lat="46.41535" lon="-0.41919">
        <ele>85.9</ele>
        <time>2012-05-01T14:56:34Z</time>
      </trkpt>
      <trkpt lat="46.41538" lon="-0.41914">
        <ele>84.5</ele>
        <time>2012-05-01T14:56:38Z</time>
      </trkpt>
      <trkpt lat="46.41541" lon="-0.41908">
        <ele>85.8</ele>
        <time>2012-05-01T14:56:43Z</time>
      </trkpt>
      <trkpt lat="46.41544" lon="-0.41904">
        <ele>87.2</ele>
        <time>2012-05-01T14:56:48Z</time>
      </trkpt>
      <trkpt lat="46.41548" lon="-0.41901">
        <ele>88.5</ele>
        <time>2012-05-01T14:56:53Z</time>
      </trkpt>
      <trkpt lat="46.41552" lon="-0.41899">
        <ele>89.1</ele>
        <time>2012-05-01T14:56:58Z</time>
      </trkpt>
      <trkpt lat="46.41557" lon="-0.41891">
        <ele>90.2</ele>
        <time>2012-05-01T14:57:03Z</time>
      </trkpt>
      <trkpt lat="46.41562" lon="-0.41887">
        <ele>88.9</ele>
        <time>2012-05-01T14:57:08Z</time>
      </trkpt>
      <trkpt lat="46.41566" lon="-0.41886">
        <ele>87.5</ele>
        <time>2012-05-01T14:57:14Z</time>
      </trkpt>
      <trkpt lat="46.41569" lon="-0.4188">
        <ele>86.1</ele>
        <time>2012-05-01T14:57:19Z</time>
      </trkpt>
      <trkpt lat="46.41573" lon="-0.41874">
        <ele>85.8</ele>
        <time>2012-05-01T14:57:23Z</time>
      </trkpt>
      <trkpt lat="46.41576" lon="-0.41868">
        <ele>86.5</ele>
        <time>2012-05-01T14:57:28Z</time>
      </trkpt>
      <trkpt lat="46.4158" lon="-0.41862">
        <ele>88.1</ele>
        <time>2012-05-01T14:57:33Z</time>
      </trkpt>
      <trkpt lat="46.41582" lon="-0.41859">
        <ele>89.5</ele>
        <time>2012-05-01T14:57:38Z</time>
      </trkpt>
      <trkpt lat="46.41613" lon="-0.41821">
        <ele>82.7</ele>
        <time>2012-05-01T14:58:08Z</time>
      </trkpt>
      <trkpt lat="46.41619" lon="-0.41816">
        <ele>93.6</ele>
        <time>2012-05-01T14:58:13Z</time>
      </trkpt>
      <trkpt lat="46.41622" lon="-0.41811">
        <ele>94.4</ele>
        <time>2012-05-01T14:58:21Z</time>
      </trkpt>
      <trkpt lat="46.41624" lon="-0.41808">
        <ele>93.9</ele>
        <time>2012-05-01T14:58:23Z</time>
      </trkpt>
      <trkpt lat="46.41628" lon="-0.41803">
        <ele>95.2</ele>
        <time>2012-05-01T14:58:29Z</time>
      </trkpt>
      <trkpt lat="46.41631" lon="-0.41798">
        <ele>95.6</ele>
        <time>2012-05-01T14:58:33Z</time>
      </trkpt>
      <trkpt lat="46.41633" lon="-0.41795">
        <ele>97.2</ele>
        <time>2012-05-01T14:58:38Z</time>
      </trkpt>
      <trkpt lat="46.41637" lon="-0.4179">
        <ele>93.5</ele>
        <time>2012-05-01T14:58:46Z</time>
      </trkpt>
      <trkpt lat="46.4164" lon="-0.41787">
        <ele>93.8</ele>
        <time>2012-05-01T14:58:48Z</time>
      </trkpt>
      <trkpt lat="46.41642" lon="-0.41783">
        <ele>94.7</ele>
        <time>2012-05-01T14:58:53Z</time>
      </trkpt>
      <trkpt lat="46.41648" lon="-0.4178">
        <ele>94.2</ele>
        <time>2012-05-01T14:59:00Z</time>
      </trkpt>
      <trkpt lat="46.4165" lon="-0.41776">
        <ele>94.3</ele>
        <time>2012-05-01T14:59:03Z</time>
      </trkpt>
      <trkpt lat="46.41653" lon="-0.41772">
        <ele>93.7</ele>
        <time>2012-05-01T14:59:09Z</time>
      </trkpt>
      <trkpt lat="46.41657" lon="-0.41766">
        <ele>94.5</ele>
        <time>2012-05-01T14:59:13Z</time>
      </trkpt>
      <trkpt lat="46.41661" lon="-0.41763">
        <ele>95.3</ele>
        <time>2012-05-01T14:59:18Z</time>
      </trkpt>
      <trkpt lat="46.41665" lon="-0.41757">
        <ele>95.2</ele>
        <time>2012-05-01T14:59:23Z</time>
      </trkpt>
      <trkpt lat="46.41664" lon="-0.41752">
        <ele>94.6</ele>
        <time>2012-05-01T14:59:31Z</time>
      </trkpt>
      <trkpt lat="46.41667" lon="-0.41748">
        <ele>94.9</ele>
        <time>2012-05-01T14:59:33Z</time>
      </trkpt>
      <trkpt lat="46.41675" lon="-0.41743">
        <ele>96.6</ele>
        <time>2012-05-01T14:59:38Z</time>
      </trkpt>
      <trkpt lat="46.41679" lon="-0.41738">
        <ele>96.1</ele>
        <time>2012-05-01T14:59:46Z</time>
      </trkpt>
      <trkpt lat="46.41682" lon="-0.41732">
        <ele>94.7</ele>
        <time>2012-05-01T14:59:48Z</time>
      </trkpt>
      <trkpt lat="46.41686" lon="-0.41726">
        <ele>93.1</ele>
        <time>2012-05-01T14:59:53Z</time>
      </trkpt>
      <trkpt lat="46.41687" lon="-0.41724">
        <ele>93.4</ele>
        <time>2012-05-01T14:59:59Z</time>
      </trkpt>
      <trkpt lat="46.41689" lon="-0.41724">
        <ele>94.3</ele>
        <time>2012-05-01T15:00:03Z</time>
      </trkpt>
      <trkpt lat="46.41692" lon="-0.41721">
        <ele>94.8</ele>
        <time>2012-05-01T15:00:08Z</time>
      </trkpt>
      <trkpt lat="46.41695" lon="-0.41714">
        <ele>97.2</ele>
        <time>2012-05-01T15:00:16Z</time>
      </trkpt>
      <trkpt lat="46.41699" lon="-0.41708">
        <ele>97.4</ele>
        <time>2012-05-01T15:00:18Z</time>
      </trkpt>
      <trkpt lat="46.41703" lon="-0.41703">
        <ele>99.8</ele>
        <time>2012-05-01T15:00:24Z</time>
      </trkpt>
      <trkpt lat="46.41706" lon="-0.41696">
        <ele>100.8</ele>
        <time>2012-05-01T15:00:28Z</time>
      </trkpt>
      <trkpt lat="46.41707" lon="-0.41688">
        <ele>100</ele>
        <time>2012-05-01T15:00:33Z</time>
      </trkpt>
      <trkpt lat="46.4171" lon="-0.41681">
        <ele>100.1</ele>
        <time>2012-05-01T15:00:40Z</time>
      </trkpt>
      <trkpt lat="46.41714" lon="-0.41674">
        <ele>99.4</ele>
        <time>2012-05-01T15:00:43Z</time>
      </trkpt>
      <trkpt lat="46.41717" lon="-0.41666">
        <ele>100.3</ele>
        <time>2012-05-01T15:00:48Z</time>
      </trkpt>
      <trkpt lat="46.41718" lon="-0.41657">
        <ele>98.2</ele>
        <time>2012-05-01T15:00:53Z</time>
      </trkpt>
      <trkpt lat="46.41721" lon="-0.4165">
        <ele>95.3</ele>
        <time>2012-05-01T15:00:58Z</time>
      </trkpt>
      <trkpt lat="46.41725" lon="-0.41643">
        <ele>96.4</ele>
        <time>2012-05-01T15:01:06Z</time>
      </trkpt>
      <trkpt lat="46.41725" lon="-0.41639">
        <ele>93.7</ele>
        <time>2012-05-01T15:01:08Z</time>
      </trkpt>
      <trkpt lat="46.41729" lon="-0.41632">
        <ele>93.8</ele>
        <time>2012-05-01T15:01:14Z</time>
      </trkpt>
      <trkpt lat="46.41731" lon="-0.41627">
        <ele>95.1</ele>
        <time>2012-05-01T15:01:18Z</time>
      </trkpt>
      <trkpt lat="46.41734" lon="-0.41625">
        <ele>94.8</ele>
        <time>2012-05-01T15:01:26Z</time>
      </trkpt>
      <trkpt lat="46.41736" lon="-0.4162">
        <ele>93.1</ele>
        <time>2012-05-01T15:01:28Z</time>
      </trkpt>
      <trkpt lat="46.41739" lon="-0.41614">
        <ele>92.7</ele>
        <time>2012-05-01T15:01:33Z</time>
      </trkpt>
      <trkpt lat="46.41742" lon="-0.41608">
        <ele>94.5</ele>
        <time>2012-05-01T15:01:39Z</time>
      </trkpt>
      <trkpt lat="46.41751" lon="-0.41605">
        <ele>96.6</ele>
        <time>2012-05-01T15:01:45Z</time>
      </trkpt>
      <trkpt lat="46.41756" lon="-0.41603">
        <ele>96.5</ele>
        <time>2012-05-01T15:01:48Z</time>
      </trkpt>
      <trkpt lat="46.4176" lon="-0.41601">
        <ele>97.1</ele>
        <time>2012-05-01T15:01:53Z</time>
      </trkpt>
      <trkpt lat="46.41764" lon="-0.41601">
        <ele>96.7</ele>
        <time>2012-05-01T15:01:58Z</time>
      </trkpt>
      <trkpt lat="46.41765" lon="-0.41604">
        <ele>96.6</ele>
        <time>2012-05-01T15:02:03Z</time>
      </trkpt>
      <trkpt lat="46.41766" lon="-0.41611">
        <ele>97.3</ele>
        <time>2012-05-01T15:02:11Z</time>
      </trkpt>
      <trkpt lat="46.41767" lon="-0.41616">
        <ele>96.7</ele>
        <time>2012-05-01T15:02:13Z</time>
      </trkpt>
      <trkpt lat="46.41767" lon="-0.41627">
        <ele>99.3</ele>
        <time>2012-05-01T15:02:18Z</time>
      </trkpt>
      <trkpt lat="46.41767" lon="-0.41633">
        <ele>102.7</ele>
        <time>2012-05-01T15:02:23Z</time>
      </trkpt>
      <trkpt lat="46.41768" lon="-0.41634">
        <ele>102.6</ele>
        <time>2012-05-01T15:02:31Z</time>
      </trkpt>
      <trkpt lat="46.41767" lon="-0.41634">
        <ele>103.6</ele>
        <time>2012-05-01T15:02:33Z</time>
      </trkpt>
      <trkpt lat="46.41767" lon="-0.41636">
        <ele>103.5</ele>
        <time>2012-05-01T15:02:38Z</time>
      </trkpt>
      <trkpt lat="46.41769" lon="-0.41639">
        <ele>103.4</ele>
        <time>2012-05-01T15:02:46Z</time>
      </trkpt>
      <trkpt lat="46.4177" lon="-0.41643">
        <ele>103.1</ele>
        <time>2012-05-01T15:02:48Z</time>
      </trkpt>
      <trkpt lat="46.4177" lon="-0.41648">
        <ele>103.8</ele>
        <time>2012-05-01T15:02:54Z</time>
      </trkpt>
      <trkpt lat="46.4177" lon="-0.41657">
        <ele>106.4</ele>
        <time>2012-05-01T15:02:58Z</time>
      </trkpt>
      <trkpt lat="46.41773" lon="-0.41661">
        <ele>106.5</ele>
        <time>2012-05-01T15:03:03Z</time>
      </trkpt>
      <trkpt lat="46.41776" lon="-0.41669">
        <ele>107.6</ele>
        <time>2012-05-01T15:03:10Z</time>
      </trkpt>
      <trkpt lat="46.41778" lon="-0.41671">
        <ele>109.5</ele>
        <time>2012-05-01T15:03:13Z</time>
      </trkpt>
      <trkpt lat="46.41779" lon="-0.41673">
        <ele>110.4</ele>
        <time>2012-05-01T15:03:18Z</time>
      </trkpt>
      <trkpt lat="46.4178" lon="-0.41675">
        <ele>110.5</ele>
        <time>2012-05-01T15:03:23Z</time>
      </trkpt>
      <trkpt lat="46.41783" lon="-0.41674">
        <ele>108.3</ele>
        <time>2012-05-01T15:03:29Z</time>
      </trkpt>
      <trkpt lat="46.41785" lon="-0.41678">
        <ele>108.6</ele>
        <time>2012-05-01T15:03:36Z</time>
      </trkpt>
      <trkpt lat="46.41788" lon="-0.41679">
        <ele>111.2</ele>
        <time>2012-05-01T15:03:39Z</time>
      </trkpt>
      <trkpt lat="46.41788" lon="-0.41679">
        <ele>110.7</ele>
        <time>2012-05-01T15:03:43Z</time>
      </trkpt>
      <trkpt lat="46.41788" lon="-0.4168">
        <ele>109.5</ele>
        <time>2012-05-01T15:03:48Z</time>
      </trkpt>
      <trkpt lat="46.41789" lon="-0.41684">
        <ele>109.7</ele>
        <time>2012-05-01T15:03:53Z</time>
      </trkpt>
      <trkpt lat="46.41791" lon="-0.41688">
        <ele>108.4</ele>
        <time>2012-05-01T15:03:58Z</time>
      </trkpt>
      <trkpt lat="46.41794" lon="-0.41693">
        <ele>108.8</ele>
        <time>2012-05-01T15:04:05Z</time>
      </trkpt>
      <trkpt lat="46.41796" lon="-0.41693">
        <ele>109.2</ele>
        <time>2012-05-01T15:04:08Z</time>
      </trkpt>
      <trkpt lat="46.41794" lon="-0.41692">
        <ele>108.9</ele>
        <time>2012-05-01T15:04:13Z</time>
      </trkpt>
      <trkpt lat="46.41794" lon="-0.4169">
        <ele>109.4</ele>
        <time>2012-05-01T15:04:21Z</time>
      </trkpt>
      <trkpt lat="46.41794" lon="-0.4169">
        <ele>109</ele>
        <time>2012-05-01T15:04:23Z</time>
      </trkpt>
      <trkpt lat="46.41796" lon="-0.41695">
        <ele>106.8</ele>
        <time>2012-05-01T15:04:28Z</time>
      </trkpt>
      <trkpt lat="46.41798" lon="-0.417">
        <ele>109.3</ele>
        <time>2012-05-01T15:04:33Z</time>
      </trkpt>
      <trkpt lat="46.418" lon="-0.41705">
        <ele>109.9</ele>
        <time>2012-05-01T15:04:38Z</time>
      </trkpt>
      <trkpt lat="46.41801" lon="-0.41707">
        <ele>110.6</ele>
        <time>2012-05-01T15:04:46Z</time>
      </trkpt>
      <trkpt lat="46.41803" lon="-0.41712">
        <ele>109.9</ele>
        <time>2012-05-01T15:04:48Z</time>
      </trkpt>
      <trkpt lat="46.41805" lon="-0.41715">
        <ele>110.4</ele>
        <time>2012-05-01T15:04:54Z</time>
      </trkpt>
      <trkpt lat="46.41807" lon="-0.4172">
        <ele>110.8</ele>
        <time>2012-05-01T15:04:58Z</time>
      </trkpt>
      <trkpt lat="46.4181" lon="-0.41726">
        <ele>110.8</ele>
        <time>2012-05-01T15:05:05Z</time>
      </trkpt>
      <trkpt lat="46.41812" lon="-0.41731">
        <ele>111.5</ele>
        <time>2012-05-01T15:05:08Z</time>
      </trkpt>
      <trkpt lat="46.41815" lon="-0.41735">
        <ele>112.7</ele>
        <time>2012-05-01T15:05:13Z</time>
      </trkpt>
      <trkpt lat="46.41818" lon="-0.41742">
        <ele>112.8</ele>
        <time>2012-05-01T15:05:18Z</time>
      </trkpt>
      <trkpt lat="46.41819" lon="-0.41748">
        <ele>113.2</ele>
        <time>2012-05-01T15:05:23Z</time>
      </trkpt>
      <trkpt lat="46.41822" lon="-0.41752">
        <ele>114.3</ele>
        <time>2012-05-01T15:05:29Z</time>
      </trkpt>
      <trkpt lat="46.41824" lon="-0.41758">
        <ele>115.9</ele>
        <time>2012-05-01T15:05:33Z</time>
      </trkpt>
      <trkpt lat="46.41827" lon="-0.41764">
        <ele>117.2</ele>
        <time>2012-05-01T15:05:38Z</time>
      </trkpt>
      <trkpt lat="46.4183" lon="-0.41769">
        <ele>118.4</ele>
        <time>2012-05-01T15:05:43Z</time>
      </trkpt>
      <trkpt lat="46.41835" lon="-0.41775">
        <ele>118.9</ele>
        <time>2012-05-01T15:05:51Z</time>
      </trkpt>
      <trkpt lat="46.41836" lon="-0.41778">
        <ele>118.7</ele>
        <time>2012-05-01T15:05:53Z</time>
      </trkpt>
      <trkpt lat="46.41838" lon="-0.41783">
        <ele>119.5</ele>
        <time>2012-05-01T15:05:58Z</time>
      </trkpt>
      <trkpt lat="46.41839" lon="-0.41785">
        <ele>119.9</ele>
        <time>2012-05-01T15:06:03Z</time>
      </trkpt>
      <trkpt lat="46.41839" lon="-0.41786">
        <ele>119.2</ele>
        <time>2012-05-01T15:06:08Z</time>
      </trkpt>
      <trkpt lat="46.41839" lon="-0.41787">
        <ele>118.8</ele>
        <time>2012-05-01T15:06:13Z</time>
      </trkpt>
      <trkpt lat="46.41839" lon="-0.41787">
        <ele>118.8</ele>
        <time>2012-05-01T15:06:18Z</time>
      </trkpt>
      <trkpt lat="46.41838" lon="-0.41787">
        <ele>119</ele>
        <time>2012-05-01T15:06:23Z</time>
      </trkpt>
      <trkpt lat="46.41838" lon="-0.41787">
        <ele>119.4</ele>
        <time>2012-05-01T15:06:28Z</time>
      </trkpt>
      <trkpt lat="46.41838" lon="-0.41787">
        <ele>119.1</ele>
        <time>2012-05-01T15:06:33Z</time>
      </trkpt>
      <trkpt lat="46.41838" lon="-0.41787">
        <ele>119.3</ele>
        <time>2012-05-01T15:06:39Z</time>
      </trkpt>
      <trkpt lat="46.41838" lon="-0.41787">
        <ele>119.3</ele>
        <time>2012-05-01T15:06:46Z</time>
      </trkpt>
      <trkpt lat="46.41838" lon="-0.41787">
        <ele>119.5</ele>
        <time>2012-05-01T15:06:48Z</time>
      </trkpt>
      <trkpt lat="46.41838" lon="-0.41787">
        <ele>119.6</ele>
        <time>2012-05-01T15:06:53Z</time>
      </trkpt>
      <trkpt lat="46.41838" lon="-0.41787">
        <ele>119.5</ele>
        <time>2012-05-01T15:06:59Z</time>
      </trkpt>
      <trkpt lat="46.41838" lon="-0.41787">
        <ele>119.5</ele>
        <time>2012-05-01T15:07:03Z</time>
      </trkpt>
      <trkpt lat="46.41839" lon="-0.41788">
        <ele>120.2</ele>
        <time>2012-05-01T15:07:10Z</time>
      </trkpt>
      <trkpt lat="46.41841" lon="-0.41794">
        <ele>122.4</ele>
        <time>2012-05-01T15:07:13Z</time>
      </trkpt>
      <trkpt lat="46.41843" lon="-0.41801">
        <ele>121.7</ele>
        <time>2012-05-01T15:07:18Z</time>
      </trkpt>
      <trkpt lat="46.41849" lon="-0.41804">
        <ele>119.3</ele>
        <time>2012-05-01T15:07:26Z</time>
      </trkpt>
      <trkpt lat="46.41849" lon="-0.41806">
        <ele>119</ele>
        <time>2012-05-01T15:07:28Z</time>
      </trkpt>
      <trkpt lat="46.41852" lon="-0.41811">
        <ele>119.1</ele>
        <time>2012-05-01T15:07:34Z</time>
      </trkpt>
      <trkpt lat="46.41856" lon="-0.41819">
        <ele>119.7</ele>
        <time>2012-05-01T15:07:38Z</time>
      </trkpt>
      <trkpt lat="46.41858" lon="-0.41823">
        <ele>120.9</ele>
        <time>2012-05-01T15:07:43Z</time>
      </trkpt>
      <trkpt lat="46.41861" lon="-0.41829">
        <ele>121.6</ele>
        <time>2012-05-01T15:07:51Z</time>
      </trkpt>
      <trkpt lat="46.41862" lon="-0.41832">
        <ele>121.6</ele>
        <time>2012-05-01T15:07:53Z</time>
      </trkpt>
      <trkpt lat="46.41866" lon="-0.41837">
        <ele>122.1</ele>
        <time>2012-05-01T15:07:58Z</time>
      </trkpt>
      <trkpt lat="46.41868" lon="-0.41843">
        <ele>123.1</ele>
        <time>2012-05-01T15:08:03Z</time>
      </trkpt>
      <trkpt lat="46.4187" lon="-0.41848">
        <ele>123.3</ele>
        <time>2012-05-01T15:08:08Z</time>
      </trkpt>
      <trkpt lat="46.41873" lon="-0.41854">
        <ele>123.6</ele>
        <time>2012-05-01T15:08:13Z</time>
      </trkpt>
      <trkpt lat="46.41876" lon="-0.41862">
        <ele>123</ele>
        <time>2012-05-01T15:08:21Z</time>
      </trkpt>
      <trkpt lat="46.41878" lon="-0.41867">
        <ele>123.3</ele>
        <time>2012-05-01T15:08:23Z</time>
      </trkpt>
      <trkpt lat="46.4188" lon="-0.41873">
        <ele>123.7</ele>
        <time>2012-05-01T15:08:29Z</time>
      </trkpt>
      <trkpt lat="46.41883" lon="-0.4188">
        <ele>124.9</ele>
        <time>2012-05-01T15:08:35Z</time>
      </trkpt>
      <trkpt lat="46.41885" lon="-0.41883">
        <ele>125.6</ele>
        <time>2012-05-01T15:08:38Z</time>
      </trkpt>
      <trkpt lat="46.41887" lon="-0.41892">
        <ele>125</ele>
        <time>2012-05-01T15:08:43Z</time>
      </trkpt>
      <trkpt lat="46.4189" lon="-0.41898">
        <ele>126.3</ele>
        <time>2012-05-01T15:08:49Z</time>
      </trkpt>
      <trkpt lat="46.41892" lon="-0.41905">
        <ele>125.1</ele>
        <time>2012-05-01T15:08:56Z</time>
      </trkpt>
      <trkpt lat="46.41894" lon="-0.41909">
        <ele>126</ele>
        <time>2012-05-01T15:08:58Z</time>
      </trkpt>
      <trkpt lat="46.41897" lon="-0.41913">
        <ele>126.4</ele>
        <time>2012-05-01T15:09:03Z</time>
      </trkpt>
      <trkpt lat="46.419" lon="-0.41919">
        <ele>126.2</ele>
        <time>2012-05-01T15:09:08Z</time>
      </trkpt>
      <trkpt lat="46.419" lon="-0.41921">
        <ele>127</ele>
        <time>2012-05-01T15:09:16Z</time>
      </trkpt>
      <trkpt lat="46.41901" lon="-0.41921">
        <ele>127.2</ele>
        <time>2012-05-01T15:09:18Z</time>
      </trkpt>
      <trkpt lat="46.419" lon="-0.41921">
        <ele>127.6</ele>
        <time>2012-05-01T15:09:23Z</time>
      </trkpt>
      <trkpt lat="46.419" lon="-0.41921">
        <ele>127.6</ele>
        <time>2012-05-01T15:09:28Z</time>
      </trkpt>
      <trkpt lat="46.419" lon="-0.41921">
        <ele>127.5</ele>
        <time>2012-05-01T15:09:33Z</time>
      </trkpt>
      <trkpt lat="46.419" lon="-0.41921">
        <ele>127.4</ele>
        <time>2012-05-01T15:09:41Z</time>
      </trkpt>
      <trkpt lat="46.419" lon="-0.41921">
        <ele>127.4</ele>
        <time>2012-05-01T15:09:44Z</time>
      </trkpt>
      <trkpt lat="46.419" lon="-0.41921">
        <ele>127.4</ele>
        <time>2012-05-01T15:09:48Z</time>
      </trkpt>
      <trkpt lat="46.419" lon="-0.41921">
        <ele>127.4</ele>
        <time>2012-05-01T15:09:53Z</time>
      </trkpt>
      <trkpt lat="46.419" lon="-0.41921">
        <ele>127.4</ele>
        <time>2012-05-01T15:10:01Z</time>
      </trkpt>
      <trkpt lat="46.419" lon="-0.41921">
        <ele>127.4</ele>
        <time>2012-05-01T15:10:03Z</time>
      </trkpt>
      <trkpt lat="46.419" lon="-0.41921">
        <ele>127.4</ele>
        <time>2012-05-01T15:10:10Z</time>
      </trkpt>
      <trkpt lat="46.419" lon="-0.41921">
        <ele>127.4</ele>
        <time>2012-05-01T15:10:15Z</time>
      </trkpt>
      <trkpt lat="46.419" lon="-0.41921">
        <ele>127.4</ele>
        <time>2012-05-01T15:10:18Z</time>
      </trkpt>
      <trkpt lat="46.419" lon="-0.41921">
        <ele>127.4</ele>
        <time>2012-05-01T15:10:24Z</time>
      </trkpt>
      <trkpt lat="46.419" lon="-0.41921">
        <ele>127.4</ele>
        <time>2012-05-01T15:10:28Z</time>
      </trkpt>
      <trkpt lat="46.419" lon="-0.41921">
        <ele>127.4</ele>
        <time>2012-05-01T15:10:33Z</time>
      </trkpt>
      <trkpt lat="46.419" lon="-0.41921">
        <ele>127.4</ele>
        <time>2012-05-01T15:10:41Z</time>
      </trkpt>
      <trkpt lat="46.419" lon="-0.41921">
        <ele>127.4</ele>
        <time>2012-05-01T15:10:43Z</time>
      </trkpt>
      <trkpt lat="46.419" lon="-0.41921">
        <ele>127.4</ele>
        <time>2012-05-01T15:10:49Z</time>
      </trkpt>
      <trkpt lat="46.419" lon="-0.41921">
        <ele>127.4</ele>
        <time>2012-05-01T15:10:53Z</time>
      </trkpt>
      <trkpt lat="46.419" lon="-0.41921">
        <ele>127.4</ele>
        <time>2012-05-01T15:10:58Z</time>
      </trkpt>
      <trkpt lat="46.419" lon="-0.41921">
        <ele>127.4</ele>
        <time>2012-05-01T15:11:06Z</time>
      </trkpt>
      <trkpt lat="46.419" lon="-0.41921">
        <ele>127.4</ele>
        <time>2012-05-01T15:11:08Z</time>
      </trkpt>
      <trkpt lat="46.419" lon="-0.41921">
        <ele>127.4</ele>
        <time>2012-05-01T15:11:14Z</time>
      </trkpt>
      <trkpt lat="46.419" lon="-0.41921">
        <ele>127.1</ele>
        <time>2012-05-01T15:11:19Z</time>
      </trkpt>
      <trkpt lat="46.41899" lon="-0.41924">
        <ele>127.3</ele>
        <time>2012-05-01T15:11:24Z</time>
      </trkpt>
      <trkpt lat="46.41893" lon="-0.4193">
        <ele>125.7</ele>
        <time>2012-05-01T15:11:28Z</time>
      </trkpt>
      <trkpt lat="46.41888" lon="-0.41935">
        <ele>124.4</ele>
        <time>2012-05-01T15:11:33Z</time>
      </trkpt>
      <trkpt lat="46.41885" lon="-0.4194">
        <ele>122.8</ele>
        <time>2012-05-01T15:11:41Z</time>
      </trkpt>
      <trkpt lat="46.41882" lon="-0.41942">
        <ele>122.1</ele>
        <time>2012-05-01T15:11:43Z</time>
      </trkpt>
      <trkpt lat="46.41877" lon="-0.41945">
        <ele>123.3</ele>
        <time>2012-05-01T15:11:49Z</time>
      </trkpt>
      <trkpt lat="46.41871" lon="-0.41948">
        <ele>120.2</ele>
        <time>2012-05-01T15:11:54Z</time>
      </trkpt>
      <trkpt lat="46.41867" lon="-0.41951">
        <ele>120.3</ele>
        <time>2012-05-01T15:11:59Z</time>
      </trkpt>
      <trkpt lat="46.41862" lon="-0.41954">
        <ele>119.9</ele>
        <time>2012-05-01T15:12:03Z</time>
      </trkpt>
      <trkpt lat="46.41856" lon="-0.41958">
        <ele>121.1</ele>
        <time>2012-05-01T15:12:11Z</time>
      </trkpt>
      <trkpt lat="46.41855" lon="-0.41959">
        <ele>119</ele>
        <time>2012-05-01T15:12:13Z</time>
      </trkpt>
      <trkpt lat="46.41849" lon="-0.41963">
        <ele>119.8</ele>
        <time>2012-05-01T15:12:18Z</time>
      </trkpt>
      <trkpt lat="46.41842" lon="-0.41968">
        <ele>121.6</ele>
        <time>2012-05-01T15:12:24Z</time>
      </trkpt>
      <trkpt lat="46.41836" lon="-0.41973">
        <ele>124.5</ele>
        <time>2012-05-01T15:12:28Z</time>
      </trkpt>
      <trkpt lat="46.4183" lon="-0.41977">
        <ele>124</ele>
        <time>2012-05-01T15:12:33Z</time>
      </trkpt>
      <trkpt lat="46.41826" lon="-0.41979">
        <ele>124.7</ele>
        <time>2012-05-01T15:12:41Z</time>
      </trkpt>
      <trkpt lat="46.41823" lon="-0.41981">
        <ele>123.9</ele>
        <time>2012-05-01T15:12:43Z</time>
      </trkpt>
      <trkpt lat="46.41818" lon="-0.41987">
        <ele>124.1</ele>
        <time>2012-05-01T15:12:48Z</time>
      </trkpt>
      <trkpt lat="46.41811" lon="-0.41988">
        <ele>122.8</ele>
        <time>2012-05-01T15:12:53Z</time>
      </trkpt>
      <trkpt lat="46.41807" lon="-0.41991">
        <ele>121.4</ele>
        <time>2012-05-01T15:12:58Z</time>
      </trkpt>
      <trkpt lat="46.41803" lon="-0.41994">
        <ele>121.6</ele>
        <time>2012-05-01T15:13:06Z</time>
      </trkpt>
      <trkpt lat="46.41799" lon="-0.41997">
        <ele>121.1</ele>
        <time>2012-05-01T15:13:09Z</time>
      </trkpt>
      <trkpt lat="46.41794" lon="-0.42001">
        <ele>120.5</ele>
        <time>2012-05-01T15:13:13Z</time>
      </trkpt>
      <trkpt lat="46.41788" lon="-0.42005">
        <ele>120.2</ele>
        <time>2012-05-01T15:13:21Z</time>
      </trkpt>
      <trkpt lat="46.41786" lon="-0.42006">
        <ele>118.1</ele>
        <time>2012-05-01T15:13:23Z</time>
      </trkpt>
      <trkpt lat="46.4178" lon="-0.42009">
        <ele>113.7</ele>
        <time>2012-05-01T15:13:28Z</time>
      </trkpt>
      <trkpt lat="46.41775" lon="-0.42014">
        <ele>114.4</ele>
        <time>2012-05-01T15:13:36Z</time>
      </trkpt>
      <trkpt lat="46.41771" lon="-0.42018">
        <ele>115.1</ele>
        <time>2012-05-01T15:13:38Z</time>
      </trkpt>
      <trkpt lat="46.41767" lon="-0.42023">
        <ele>114.9</ele>
        <time>2012-05-01T15:13:43Z</time>
      </trkpt>
      <trkpt lat="46.41762" lon="-0.42026">
        <ele>114.2</ele>
        <time>2012-05-01T15:13:48Z</time>
      </trkpt>
      <trkpt lat="46.41756" lon="-0.4203">
        <ele>116.2</ele>
        <time>2012-05-01T15:13:53Z</time>
      </trkpt>
      <trkpt lat="46.41751" lon="-0.42035">
        <ele>115.1</ele>
        <time>2012-05-01T15:13:58Z</time>
      </trkpt>
      <trkpt lat="46.41745" lon="-0.4204">
        <ele>116.3</ele>
        <time>2012-05-01T15:14:06Z</time>
      </trkpt>
      <trkpt lat="46.41743" lon="-0.42042">
        <ele>115.8</ele>
        <time>2012-05-01T15:14:08Z</time>
      </trkpt>
      <trkpt lat="46.41737" lon="-0.42045">
        <ele>117.3</ele>
        <time>2012-05-01T15:14:14Z</time>
      </trkpt>
      <trkpt lat="46.41733" lon="-0.42049">
        <ele>114.7</ele>
        <time>2012-05-01T15:14:18Z</time>
      </trkpt>
      <trkpt lat="46.41727" lon="-0.42054">
        <ele>114.9</ele>
        <time>2012-05-01T15:14:23Z</time>
      </trkpt>
      <trkpt lat="46.41723" lon="-0.4206">
        <ele>115.4</ele>
        <time>2012-05-01T15:14:31Z</time>
      </trkpt>
      <trkpt lat="46.41719" lon="-0.42063">
        <ele>115.4</ele>
        <time>2012-05-01T15:14:33Z</time>
      </trkpt>
      <trkpt lat="46.41715" lon="-0.42067">
        <ele>116.3</ele>
        <time>2012-05-01T15:14:39Z</time>
      </trkpt>
      <trkpt lat="46.4171" lon="-0.42073">
        <ele>116.4</ele>
        <time>2012-05-01T15:14:43Z</time>
      </trkpt>
      <trkpt lat="46.41704" lon="-0.42076">
        <ele>117.9</ele>
        <time>2012-05-01T15:14:48Z</time>
      </trkpt>
      <trkpt lat="46.41699" lon="-0.42081">
        <ele>118.4</ele>
        <time>2012-05-01T15:14:56Z</time>
      </trkpt>
      <trkpt lat="46.41695" lon="-0.42085">
        <ele>118.7</ele>
        <time>2012-05-01T15:14:59Z</time>
      </trkpt>
      <trkpt lat="46.4169" lon="-0.42088">
        <ele>117.8</ele>
        <time>2012-05-01T15:15:03Z</time>
      </trkpt>
      <trkpt lat="46.41684" lon="-0.42093">
        <ele>119.1</ele>
        <time>2012-05-01T15:15:11Z</time>
      </trkpt>
      <trkpt lat="46.41681" lon="-0.42096">
        <ele>119.3</ele>
        <time>2012-05-01T15:15:13Z</time>
      </trkpt>
      <trkpt lat="46.41677" lon="-0.42101">
        <ele>119.5</ele>
        <time>2012-05-01T15:15:18Z</time>
      </trkpt>
      <trkpt lat="46.41671" lon="-0.42107">
        <ele>120.3</ele>
        <time>2012-05-01T15:15:24Z</time>
      </trkpt>
      <trkpt lat="46.41667" lon="-0.4211">
        <ele>119.1</ele>
        <time>2012-05-01T15:15:31Z</time>
      </trkpt>
      <trkpt lat="46.41664" lon="-0.42113">
        <ele>118.6</ele>
        <time>2012-05-01T15:15:33Z</time>
      </trkpt>
      <trkpt lat="46.41657" lon="-0.42117">
        <ele>117.5</ele>
        <time>2012-05-01T15:15:38Z</time>
      </trkpt>
      <trkpt lat="46.41652" lon="-0.42119">
        <ele>116.8</ele>
        <time>2012-05-01T15:15:44Z</time>
      </trkpt>
      <trkpt lat="46.41645" lon="-0.42121">
        <ele>116.9</ele>
        <time>2012-05-01T15:15:50Z</time>
      </trkpt>
      <trkpt lat="46.41641" lon="-0.42121">
        <ele>116.7</ele>
        <time>2012-05-01T15:15:53Z</time>
      </trkpt>
      <trkpt lat="46.41634" lon="-0.42121">
        <ele>116.6</ele>
        <time>2012-05-01T15:16:01Z</time>
      </trkpt>
      <trkpt lat="46.4163" lon="-0.42121">
        <ele>116.8</ele>
        <time>2012-05-01T15:16:04Z</time>
      </trkpt>
      <trkpt lat="46.41624" lon="-0.4212">
        <ele>115.3</ele>
        <time>2012-05-01T15:16:08Z</time>
      </trkpt>
      <trkpt lat="46.41617" lon="-0.42119">
        <ele>115.5</ele>
        <time>2012-05-01T15:16:16Z</time>
      </trkpt>
      <trkpt lat="46.41612" lon="-0.42117">
        <ele>114.8</ele>
        <time>2012-05-01T15:16:18Z</time>
      </trkpt>
      <trkpt lat="46.41607" lon="-0.42117">
        <ele>114.9</ele>
        <time>2012-05-01T15:16:23Z</time>
      </trkpt>
      <trkpt lat="46.41603" lon="-0.42117">
        <ele>114.2</ele>
        <time>2012-05-01T15:16:29Z</time>
      </trkpt>
      <trkpt lat="46.41598" lon="-0.42116">
        <ele>114.8</ele>
        <time>2012-05-01T15:16:33Z</time>
      </trkpt>
      <trkpt lat="46.41592" lon="-0.42115">
        <ele>114.7</ele>
        <time>2012-05-01T15:16:38Z</time>
      </trkpt>
      <trkpt lat="46.41585" lon="-0.42116">
        <ele>114.8</ele>
        <time>2012-05-01T15:16:46Z</time>
      </trkpt>
      <trkpt lat="46.41581" lon="-0.42116">
        <ele>114.5</ele>
        <time>2012-05-01T15:16:48Z</time>
      </trkpt>
      <trkpt lat="46.41575" lon="-0.42118">
        <ele>115.2</ele>
        <time>2012-05-01T15:16:53Z</time>
      </trkpt>
      <trkpt lat="46.4157" lon="-0.42117">
        <ele>115.5</ele>
        <time>2012-05-01T15:16:58Z</time>
      </trkpt>
      <trkpt lat="46.41565" lon="-0.42118">
        <ele>116</ele>
        <time>2012-05-01T15:17:03Z</time>
      </trkpt>
      <trkpt lat="46.4156" lon="-0.42123">
        <ele>116.6</ele>
        <time>2012-05-01T15:17:08Z</time>
      </trkpt>
      <trkpt lat="46.41554" lon="-0.42124">
        <ele>117.1</ele>
        <time>2012-05-01T15:17:13Z</time>
      </trkpt>
      <trkpt lat="46.4155" lon="-0.42126">
        <ele>117.2</ele>
        <time>2012-05-01T15:17:18Z</time>
      </trkpt>
      <trkpt lat="46.41545" lon="-0.42129">
        <ele>116.7</ele>
        <time>2012-05-01T15:17:23Z</time>
      </trkpt>
      <trkpt lat="46.41541" lon="-0.42131">
        <ele>116.8</ele>
        <time>2012-05-01T15:17:31Z</time>
      </trkpt>
      <trkpt lat="46.41537" lon="-0.42131">
        <ele>117</ele>
        <time>2012-05-01T15:17:33Z</time>
      </trkpt>
      <trkpt lat="46.41532" lon="-0.42134">
        <ele>116.6</ele>
        <time>2012-05-01T15:17:38Z</time>
      </trkpt>
      <trkpt lat="46.41526" lon="-0.42136">
        <ele>115.5</ele>
        <time>2012-05-01T15:17:43Z</time>
      </trkpt>
      <trkpt lat="46.41522" lon="-0.42137">
        <ele>116</ele>
        <time>2012-05-01T15:17:48Z</time>
      </trkpt>
      <trkpt lat="46.41517" lon="-0.42138">
        <ele>116.8</ele>
        <time>2012-05-01T15:17:56Z</time>
      </trkpt>
      <trkpt lat="46.41513" lon="-0.4214">
        <ele>116.9</ele>
        <time>2012-05-01T15:17:59Z</time>
      </trkpt>
      <trkpt lat="46.41506" lon="-0.42141">
        <ele>118</ele>
        <time>2012-05-01T15:18:03Z</time>
      </trkpt>
      <trkpt lat="46.41501" lon="-0.42143">
        <ele>117.9</ele>
        <time>2012-05-01T15:18:08Z</time>
      </trkpt>
      <trkpt lat="46.41497" lon="-0.42143">
        <ele>116.5</ele>
        <time>2012-05-01T15:18:13Z</time>
      </trkpt>
      <trkpt lat="46.41493" lon="-0.42145">
        <ele>117.2</ele>
        <time>2012-05-01T15:18:18Z</time>
      </trkpt>
      <trkpt lat="46.41493" lon="-0.42145">
        <ele>117.5</ele>
        <time>2012-05-01T15:18:26Z</time>
      </trkpt>
      <trkpt lat="46.41493" lon="-0.42145">
        <ele>117.7</ele>
        <time>2012-05-01T15:18:28Z</time>
      </trkpt>
      <trkpt lat="46.41493" lon="-0.42145">
        <ele>117.7</ele>
        <time>2012-05-01T15:18:33Z</time>
      </trkpt>
      <trkpt lat="46.41493" lon="-0.42145">
        <ele>117.8</ele>
        <time>2012-05-01T15:18:38Z</time>
      </trkpt>
      <trkpt lat="46.41492" lon="-0.42143">
        <ele>118.5</ele>
        <time>2012-05-01T15:18:43Z</time>
      </trkpt>
      <trkpt lat="46.41492" lon="-0.42142">
        <ele>119.1</ele>
        <time>2012-05-01T15:18:51Z</time>
      </trkpt>
      <trkpt lat="46.41491" lon="-0.42142">
        <ele>119.3</ele>
        <time>2012-05-01T15:18:53Z</time>
      </trkpt>
      <trkpt lat="46.41491" lon="-0.42142">
        <ele>119.4</ele>
        <time>2012-05-01T15:18:58Z</time>
      </trkpt>
      <trkpt lat="46.41492" lon="-0.42142">
        <ele>118.9</ele>
        <time>2012-05-01T15:19:04Z</time>
      </trkpt>
      <trkpt lat="46.41492" lon="-0.42141">
        <ele>119.4</ele>
        <time>2012-05-01T15:19:11Z</time>
      </trkpt>
      <trkpt lat="46.41492" lon="-0.42141">
        <ele>119.5</ele>
        <time>2012-05-01T15:19:13Z</time>
      </trkpt>
      <trkpt lat="46.41492" lon="-0.42141">
        <ele>119.5</ele>
        <time>2012-05-01T15:19:19Z</time>
      </trkpt>
      <trkpt lat="46.41492" lon="-0.42141">
        <ele>119.5</ele>
        <time>2012-05-01T15:19:23Z</time>
      </trkpt>
      <trkpt lat="46.41492" lon="-0.42142">
        <ele>119.6</ele>
        <time>2012-05-01T15:19:28Z</time>
      </trkpt>
      <trkpt lat="46.41493" lon="-0.42142">
        <ele>119.8</ele>
        <time>2012-05-01T15:19:36Z</time>
      </trkpt>
      <trkpt lat="46.41493" lon="-0.42142">
        <ele>119.8</ele>
        <time>2012-05-01T15:19:39Z</time>
      </trkpt>
      <trkpt lat="46.41493" lon="-0.42142">
        <ele>119.8</ele>
        <time>2012-05-01T15:19:43Z</time>
      </trkpt>
      <trkpt lat="46.41489" lon="-0.42143">
        <ele>117.8</ele>
        <time>2012-05-01T15:19:48Z</time>
      </trkpt>
      <trkpt lat="46.41484" lon="-0.42147">
        <ele>118.3</ele>
        <time>2012-05-01T15:19:53Z</time>
      </trkpt>
      <trkpt lat="46.41478" lon="-0.4215">
        <ele>118.3</ele>
        <time>2012-05-01T15:20:01Z</time>
      </trkpt>
      <trkpt lat="46.41475" lon="-0.4215">
        <ele>119.5</ele>
        <time>2012-05-01T15:20:04Z</time>
      </trkpt>
      <trkpt lat="46.41468" lon="-0.42151">
        <ele>118</ele>
        <time>2012-05-01T15:20:08Z</time>
      </trkpt>
      <trkpt lat="46.41463" lon="-0.42152">
        <ele>118.7</ele>
        <time>2012-05-01T15:20:14Z</time>
      </trkpt>
      <trkpt lat="46.41457" lon="-0.42154">
        <ele>119.1</ele>
        <time>2012-05-01T15:20:18Z</time>
      </trkpt>
      <trkpt lat="46.41451" lon="-0.42156">
        <ele>119.4</ele>
        <time>2012-05-01T15:20:23Z</time>
      </trkpt>
      <trkpt lat="46.41446" lon="-0.42159">
        <ele>119.4</ele>
        <time>2012-05-01T15:20:31Z</time>
      </trkpt>
      <trkpt lat="46.41443" lon="-0.42161">
        <ele>119.2</ele>
        <time>2012-05-01T15:20:33Z</time>
      </trkpt>
      <trkpt lat="46.4144" lon="-0.42162">
        <ele>117.6</ele>
        <time>2012-05-01T15:20:38Z</time>
      </trkpt>
      <trkpt lat="46.41434" lon="-0.42165">
        <ele>117.3</ele>
        <time>2012-05-01T15:20:43Z</time>
      </trkpt>
      <trkpt lat="46.41429" lon="-0.42167">
        <ele>116.4</ele>
        <time>2012-05-01T15:20:48Z</time>
      </trkpt>
      <trkpt lat="46.41423" lon="-0.42169">
        <ele>117.3</ele>
        <time>2012-05-01T15:20:56Z</time>
      </trkpt>
      <trkpt lat="46.4142" lon="-0.42171">
        <ele>117.8</ele>
        <time>2012-05-01T15:20:58Z</time>
      </trkpt>
      <trkpt lat="46.41415" lon="-0.42173">
        <ele>117</ele>
        <time>2012-05-01T15:21:04Z</time>
      </trkpt>
      <trkpt lat="46.4141" lon="-0.42177">
        <ele>114.8</ele>
        <time>2012-05-01T15:21:08Z</time>
      </trkpt>
      <trkpt lat="46.41406" lon="-0.4218">
        <ele>114.5</ele>
        <time>2012-05-01T15:21:13Z</time>
      </trkpt>
      <trkpt lat="46.41401" lon="-0.42183">
        <ele>113.6</ele>
        <time>2012-05-01T15:21:19Z</time>
      </trkpt>
      <trkpt lat="46.41395" lon="-0.42185">
        <ele>113.5</ele>
        <time>2012-05-01T15:21:26Z</time>
      </trkpt>
      <trkpt lat="46.41392" lon="-0.42187">
        <ele>112.7</ele>
        <time>2012-05-01T15:21:29Z</time>
      </trkpt>
      <trkpt lat="46.41387" lon="-0.4219">
        <ele>112</ele>
        <time>2012-05-01T15:21:33Z</time>
      </trkpt>
      <trkpt lat="46.4138" lon="-0.42193">
        <ele>112.6</ele>
        <time>2012-05-01T15:21:38Z</time>
      </trkpt>
      <trkpt lat="46.41374" lon="-0.42196">
        <ele>112.6</ele>
        <time>2012-05-01T15:21:46Z</time>
      </trkpt>
      <trkpt lat="46.41371" lon="-0.42197">
        <ele>112.8</ele>
        <time>2012-05-01T15:21:48Z</time>
      </trkpt>
      <trkpt lat="46.41368" lon="-0.422">
        <ele>113.7</ele>
        <time>2012-05-01T15:21:53Z</time>
      </trkpt>
      <trkpt lat="46.41363" lon="-0.42202">
        <ele>113.3</ele>
        <time>2012-05-01T15:21:58Z</time>
      </trkpt>
      <trkpt lat="46.41359" lon="-0.42202">
        <ele>114.2</ele>
        <time>2012-05-01T15:22:03Z</time>
      </trkpt>
      <trkpt lat="46.41354" lon="-0.42204">
        <ele>113.3</ele>
        <time>2012-05-01T15:22:11Z</time>
      </trkpt>
      <trkpt lat="46.41352" lon="-0.42205">
        <ele>110.8</ele>
        <time>2012-05-01T15:22:13Z</time>
      </trkpt>
      <trkpt lat="46.41347" lon="-0.42207">
        <ele>113</ele>
        <time>2012-05-01T15:22:18Z</time>
      </trkpt>
      <trkpt lat="46.41341" lon="-0.42211">
        <ele>115.4</ele>
        <time>2012-05-01T15:22:26Z</time>
      </trkpt>
      <trkpt lat="46.41338" lon="-0.42212">
        <ele>114.6</ele>
        <time>2012-05-01T15:22:28Z</time>
      </trkpt>
      <trkpt lat="46.41337" lon="-0.42212">
        <ele>114.2</ele>
        <time>2012-05-01T15:22:33Z</time>
      </trkpt>
      <trkpt lat="46.41337" lon="-0.42213">
        <ele>114.3</ele>
        <time>2012-05-01T15:22:38Z</time>
      </trkpt>
      <trkpt lat="46.41337" lon="-0.42213">
        <ele>114.2</ele>
        <time>2012-05-01T15:22:43Z</time>
      </trkpt>
      <trkpt lat="46.41337" lon="-0.42213">
        <ele>114.2</ele>
        <time>2012-05-01T15:22:48Z</time>
      </trkpt>
      <trkpt lat="46.41337" lon="-0.42213">
        <ele>114.2</ele>
        <time>2012-05-01T15:22:55Z</time>
      </trkpt>
      <trkpt lat="46.41337" lon="-0.42212">
        <ele>114.2</ele>
        <time>2012-05-01T15:22:58Z</time>
      </trkpt>
      <trkpt lat="46.41337" lon="-0.42212">
        <ele>114.1</ele>
        <time>2012-05-01T15:23:06Z</time>
      </trkpt>
      <trkpt lat="46.41337" lon="-0.42212">
        <ele>114.2</ele>
        <time>2012-05-01T15:23:08Z</time>
      </trkpt>
      <trkpt lat="46.41337" lon="-0.42213">
        <ele>114</ele>
        <time>2012-05-01T15:23:13Z</time>
      </trkpt>
      <trkpt lat="46.41337" lon="-0.42212">
        <ele>114.1</ele>
        <time>2012-05-01T15:23:20Z</time>
      </trkpt>
      <trkpt lat="46.41337" lon="-0.42212">
        <ele>114.2</ele>
        <time>2012-05-01T15:23:23Z</time>
      </trkpt>
      <trkpt lat="46.41338" lon="-0.42212">
        <ele>114.2</ele>
        <time>2012-05-01T15:23:28Z</time>
      </trkpt>
      <trkpt lat="46.41338" lon="-0.42212">
        <ele>114</ele>
        <time>2012-05-01T15:23:33Z</time>
      </trkpt>
      <trkpt lat="46.41337" lon="-0.42211">
        <ele>115.1</ele>
        <time>2012-05-01T15:23:38Z</time>
      </trkpt>
      <trkpt lat="46.41337" lon="-0.4221">
        <ele>115</ele>
        <time>2012-05-01T15:23:44Z</time>
      </trkpt>
      <trkpt lat="46.41336" lon="-0.42209">
        <ele>114.9</ele>
        <time>2012-05-01T15:23:48Z</time>
      </trkpt>
      <trkpt lat="46.41336" lon="-0.42207">
        <ele>114.9</ele>
        <time>2012-05-01T15:23:53Z</time>
      </trkpt>
      <trkpt lat="46.41334" lon="-0.42202">
        <ele>115.4</ele>
        <time>2012-05-01T15:23:58Z</time>
      </trkpt>
      <trkpt lat="46.41332" lon="-0.42195">
        <ele>113.8</ele>
        <time>2012-05-01T15:24:06Z</time>
      </trkpt>
      <trkpt lat="46.41331" lon="-0.42189">
        <ele>112.9</ele>
        <time>2012-05-01T15:24:08Z</time>
      </trkpt>
      <trkpt lat="46.41331" lon="-0.42182">
        <ele>112.2</ele>
        <time>2012-05-01T15:24:13Z</time>
      </trkpt>
      <trkpt lat="46.41331" lon="-0.42174">
        <ele>112</ele>
        <time>2012-05-01T15:24:18Z</time>
      </trkpt>
      <trkpt lat="46.4133" lon="-0.42164">
        <ele>112.1</ele>
        <time>2012-05-01T15:24:24Z</time>
      </trkpt>
      <trkpt lat="46.41327" lon="-0.42157">
        <ele>112.3</ele>
        <time>2012-05-01T15:24:29Z</time>
      </trkpt>
      <trkpt lat="46.41325" lon="-0.42151">
        <ele>111.7</ele>
        <time>2012-05-01T15:24:33Z</time>
      </trkpt>
      <trkpt lat="46.41322" lon="-0.42143">
        <ele>112.5</ele>
        <time>2012-05-01T15:24:40Z</time>
      </trkpt>
      <trkpt lat="46.4132" lon="-0.42137">
        <ele>112</ele>
        <time>2012-05-01T15:24:43Z</time>
      </trkpt>
      <trkpt lat="46.41317" lon="-0.42132">
        <ele>111.9</ele>
        <time>2012-05-01T15:24:48Z</time>
      </trkpt>
      <trkpt lat="46.41316" lon="-0.42128">
        <ele>110.9</ele>
        <time>2012-05-01T15:24:56Z</time>
      </trkpt>
      <trkpt lat="46.41316" lon="-0.42126">
        <ele>110.4</ele>
        <time>2012-05-01T15:24:58Z</time>
      </trkpt>
      <trkpt lat="46.41314" lon="-0.42119">
        <ele>109.5</ele>
        <time>2012-05-01T15:25:03Z</time>
      </trkpt>
      <trkpt lat="46.41314" lon="-0.42109">
        <ele>108.4</ele>
        <time>2012-05-01T15:25:11Z</time>
      </trkpt>
      <trkpt lat="46.41313" lon="-0.42108">
        <ele>108</ele>
        <time>2012-05-01T15:25:13Z</time>
      </trkpt>
      <trkpt lat="46.4131" lon="-0.42098">
        <ele>108.7</ele>
        <time>2012-05-01T15:25:21Z</time>
      </trkpt>
      <trkpt lat="46.41309" lon="-0.42096">
        <ele>107.8</ele>
        <time>2012-05-01T15:25:23Z</time>
      </trkpt>
      <trkpt lat="46.41307" lon="-0.42092">
        <ele>108.6</ele>
        <time>2012-05-01T15:25:28Z</time>
      </trkpt>
      <trkpt lat="46.41306" lon="-0.42089">
        <ele>108.9</ele>
        <time>2012-05-01T15:25:33Z</time>
      </trkpt>
      <trkpt lat="46.41304" lon="-0.42084">
        <ele>108.7</ele>
        <time>2012-05-01T15:25:38Z</time>
      </trkpt>
      <trkpt lat="46.41303" lon="-0.42082">
        <ele>107.5</ele>
        <time>2012-05-01T15:25:43Z</time>
      </trkpt>
      <trkpt lat="46.41298" lon="-0.42079">
        <ele>105.6</ele>
        <time>2012-05-01T15:25:48Z</time>
      </trkpt>
      <trkpt lat="46.41296" lon="-0.42076">
        <ele>105.8</ele>
        <time>2012-05-01T15:25:53Z</time>
      </trkpt>
      <trkpt lat="46.41293" lon="-0.42072">
        <ele>104.5</ele>
        <time>2012-05-01T15:25:58Z</time>
      </trkpt>
      <trkpt lat="46.41291" lon="-0.42067">
        <ele>104.9</ele>
        <time>2012-05-01T15:26:03Z</time>
      </trkpt>
      <trkpt lat="46.4129" lon="-0.42065">
        <ele>105.2</ele>
        <time>2012-05-01T15:26:11Z</time>
      </trkpt>
      <trkpt lat="46.4129" lon="-0.42062">
        <ele>104.3</ele>
        <time>2012-05-01T15:26:13Z</time>
      </trkpt>
      <trkpt lat="46.41291" lon="-0.42056">
        <ele>103</ele>
        <time>2012-05-01T15:26:18Z</time>
      </trkpt>
      <trkpt lat="46.41293" lon="-0.42054">
        <ele>101.7</ele>
        <time>2012-05-01T15:26:24Z</time>
      </trkpt>
      <trkpt lat="46.41296" lon="-0.42051">
        <ele>100.8</ele>
        <time>2012-05-01T15:26:28Z</time>
      </trkpt>
      <trkpt lat="46.41298" lon="-0.42053">
        <ele>101.3</ele>
        <time>2012-05-01T15:26:33Z</time>
      </trkpt>
      <trkpt lat="46.41302" lon="-0.42051">
        <ele>101.6</ele>
        <time>2012-05-01T15:26:40Z</time>
      </trkpt>
      <trkpt lat="46.41309" lon="-0.42049">
        <ele>101.5</ele>
        <time>2012-05-01T15:26:44Z</time>
      </trkpt>
      <trkpt lat="46.41316" lon="-0.42045">
        <ele>99.5</ele>
        <time>2012-05-01T15:26:48Z</time>
      </trkpt>
      <trkpt lat="46.4132" lon="-0.42043">
        <ele>96.5</ele>
        <time>2012-05-01T15:26:57Z</time>
      </trkpt>
      <trkpt lat="46.41323" lon="-0.42043">
        <ele>95</ele>
        <time>2012-05-01T15:26:59Z</time>
      </trkpt>
      <trkpt lat="46.41328" lon="-0.42041">
        <ele>95.1</ele>
        <time>2012-05-01T15:27:04Z</time>
      </trkpt>
      <trkpt lat="46.41335" lon="-0.4204">
        <ele>93.9</ele>
        <time>2012-05-01T15:27:08Z</time>
      </trkpt>
      <trkpt lat="46.41341" lon="-0.42035">
        <ele>93.4</ele>
        <time>2012-05-01T15:27:16Z</time>
      </trkpt>
      <trkpt lat="46.41343" lon="-0.42032">
        <ele>95.6</ele>
        <time>2012-05-01T15:27:18Z</time>
      </trkpt>
      <trkpt lat="46.4134" lon="-0.42028">
        <ele>96.5</ele>
        <time>2012-05-01T15:27:26Z</time>
      </trkpt>
      <trkpt lat="46.4134" lon="-0.42028">
        <ele>96.2</ele>
        <time>2012-05-01T15:27:28Z</time>
      </trkpt>
      <trkpt lat="46.41339" lon="-0.42024">
        <ele>95.4</ele>
        <time>2012-05-01T15:27:33Z</time>
      </trkpt>
      <trkpt lat="46.4134" lon="-0.42018">
        <ele>96.8</ele>
        <time>2012-05-01T15:27:38Z</time>
      </trkpt>
      <trkpt lat="46.41342" lon="-0.42014">
        <ele>95.9</ele>
        <time>2012-05-01T15:27:44Z</time>
      </trkpt>
      <trkpt lat="46.41342" lon="-0.42013">
        <ele>96.4</ele>
        <time>2012-05-01T15:27:48Z</time>
      </trkpt>
      <trkpt lat="46.41347" lon="-0.42011">
        <ele>96</ele>
        <time>2012-05-01T15:27:55Z</time>
      </trkpt>
      <trkpt lat="46.4135" lon="-0.42009">
        <ele>94.5</ele>
        <time>2012-05-01T15:27:59Z</time>
      </trkpt>
      <trkpt lat="46.41352" lon="-0.42008">
        <ele>92</ele>
        <time>2012-05-01T15:28:04Z</time>
      </trkpt>
      <trkpt lat="46.41353" lon="-0.42004">
        <ele>90.2</ele>
        <time>2012-05-01T15:28:09Z</time>
      </trkpt>
      <trkpt lat="46.41353" lon="-0.42006">
        <ele>90.4</ele>
        <time>2012-05-01T15:28:14Z</time>
      </trkpt>
      <trkpt lat="46.41356" lon="-0.42006">
        <ele>91.6</ele>
        <time>2012-05-01T15:28:18Z</time>
      </trkpt>
      <trkpt lat="46.41362" lon="-0.42005">
        <ele>88.9</ele>
        <time>2012-05-01T15:28:26Z</time>
      </trkpt>
      <trkpt lat="46.41365" lon="-0.42005">
        <ele>88.7</ele>
        <time>2012-05-01T15:28:28Z</time>
      </trkpt>
      <trkpt lat="46.41368" lon="-0.42003">
        <ele>89.8</ele>
        <time>2012-05-01T15:28:33Z</time>
      </trkpt>
      <trkpt lat="46.41377" lon="-0.42002">
        <ele>90.5</ele>
        <time>2012-05-01T15:28:38Z</time>
      </trkpt>
      <trkpt lat="46.41382" lon="-0.41999">
        <ele>89.5</ele>
        <time>2012-05-01T15:28:43Z</time>
      </trkpt>
      <trkpt lat="46.41385" lon="-0.41994">
        <ele>89.8</ele>
        <time>2012-05-01T15:28:51Z</time>
      </trkpt>
      <trkpt lat="46.41387" lon="-0.41992">
        <ele>89.1</ele>
        <time>2012-05-01T15:28:53Z</time>
      </trkpt>
      <trkpt lat="46.41391" lon="-0.41989">
        <ele>86.9</ele>
        <time>2012-05-01T15:28:59Z</time>
      </trkpt>
      <trkpt lat="46.41395" lon="-0.41984">
        <ele>89.1</ele>
        <time>2012-05-01T15:29:03Z</time>
      </trkpt>
      <trkpt lat="46.41397" lon="-0.41981">
        <ele>88.6</ele>
        <time>2012-05-01T15:29:08Z</time>
      </trkpt>
      <trkpt lat="46.41398" lon="-0.41979">
        <ele>89.2</ele>
        <time>2012-05-01T15:29:16Z</time>
      </trkpt>
      <trkpt lat="46.41399" lon="-0.41977">
        <ele>89.5</ele>
        <time>2012-05-01T15:29:18Z</time>
      </trkpt>
      <trkpt lat="46.41404" lon="-0.41966">
        <ele>89.9</ele>
        <time>2012-05-01T15:29:25Z</time>
      </trkpt>
      <trkpt lat="46.41407" lon="-0.41956">
        <ele>89.8</ele>
        <time>2012-05-01T15:29:29Z</time>
      </trkpt>
      <trkpt lat="46.41416" lon="-0.41951">
        <ele>93.4</ele>
        <time>2012-05-01T15:29:33Z</time>
      </trkpt>
      <trkpt lat="46.41417" lon="-0.41949">
        <ele>93.7</ele>
        <time>2012-05-01T15:29:41Z</time>
      </trkpt>
      <trkpt lat="46.41419" lon="-0.4195">
        <ele>93.6</ele>
        <time>2012-05-01T15:29:43Z</time>
      </trkpt>
      <trkpt lat="46.41425" lon="-0.41949">
        <ele>93.7</ele>
        <time>2012-05-01T15:29:48Z</time>
      </trkpt>
      <trkpt lat="46.41429" lon="-0.41948">
        <ele>95.6</ele>
        <time>2012-05-01T15:29:56Z</time>
      </trkpt>
      <trkpt lat="46.4143" lon="-0.41948">
        <ele>94.1</ele>
        <time>2012-05-01T15:29:58Z</time>
      </trkpt>
      <trkpt lat="46.41435" lon="-0.41948">
        <ele>95.8</ele>
        <time>2012-05-01T15:30:03Z</time>
      </trkpt>
      <trkpt lat="46.41438" lon="-0.41946">
        <ele>97.2</ele>
        <time>2012-05-01T15:30:08Z</time>
      </trkpt>
      <trkpt lat="46.41446" lon="-0.41944">
        <ele>95.1</ele>
        <time>2012-05-01T15:30:14Z</time>
      </trkpt>
      <trkpt lat="46.41451" lon="-0.41944">
        <ele>95.1</ele>
        <time>2012-05-01T15:30:18Z</time>
      </trkpt>
      <trkpt lat="46.41455" lon="-0.41941">
        <ele>95.8</ele>
        <time>2012-05-01T15:30:23Z</time>
      </trkpt>
      <trkpt lat="46.41462" lon="-0.4194">
        <ele>95.7</ele>
        <time>2012-05-01T15:30:31Z</time>
      </trkpt>
      <trkpt lat="46.41464" lon="-0.4194">
        <ele>95.5</ele>
        <time>2012-05-01T15:30:33Z</time>
      </trkpt>
      <trkpt lat="46.41467" lon="-0.4194">
        <ele>94.9</ele>
        <time>2012-05-01T15:30:38Z</time>
      </trkpt>
      <trkpt lat="46.41473" lon="-0.41941">
        <ele>93.8</ele>
        <time>2012-05-01T15:30:43Z</time>
      </trkpt>
      <trkpt lat="46.41476" lon="-0.41939">
        <ele>93.7</ele>
        <time>2012-05-01T15:30:50Z</time>
      </trkpt>
      <trkpt lat="46.41478" lon="-0.4194">
        <ele>93.7</ele>
        <time>2012-05-01T15:30:54Z</time>
      </trkpt>
      <trkpt lat="46.41482" lon="-0.4194">
        <ele>94</ele>
        <time>2012-05-01T15:30:58Z</time>
      </trkpt>
      <trkpt lat="46.41485" lon="-0.41939">
        <ele>93.2</ele>
        <time>2012-05-01T15:31:05Z</time>
      </trkpt>
      <trkpt lat="46.41485" lon="-0.41939">
        <ele>93</ele>
        <time>2012-05-01T15:31:08Z</time>
      </trkpt>
      <trkpt lat="46.41487" lon="-0.41941">
        <ele>95.1</ele>
        <time>2012-05-01T15:31:13Z</time>
      </trkpt>
      <trkpt lat="46.41487" lon="-0.41941">
        <ele>95.4</ele>
        <time>2012-05-01T15:31:20Z</time>
      </trkpt>
      <trkpt lat="46.41489" lon="-0.4194">
        <ele>96.5</ele>
        <time>2012-05-01T15:31:23Z</time>
      </trkpt>
      <trkpt lat="46.41491" lon="-0.4194">
        <ele>96.6</ele>
        <time>2012-05-01T15:31:30Z</time>
      </trkpt>
      <trkpt lat="46.41493" lon="-0.41939">
        <ele>97.7</ele>
        <time>2012-05-01T15:31:33Z</time>
      </trkpt>
      <trkpt lat="46.41495" lon="-0.4194">
        <ele>97.9</ele>
        <time>2012-05-01T15:31:39Z</time>
      </trkpt>
      <trkpt lat="46.41495" lon="-0.4194">
        <ele>98.7</ele>
        <time>2012-05-01T15:31:43Z</time>
      </trkpt>
      <trkpt lat="46.41494" lon="-0.41938">
        <ele>100.8</ele>
        <time>2012-05-01T15:31:48Z</time>
      </trkpt>
      <trkpt lat="46.41495" lon="-0.41938">
        <ele>101.4</ele>
        <time>2012-05-01T15:31:53Z</time>
      </trkpt>
      <trkpt lat="46.41495" lon="-0.41938">
        <ele>101.8</ele>
        <time>2012-05-01T15:31:58Z</time>
      </trkpt>
      <trkpt lat="46.41496" lon="-0.4194">
        <ele>102.4</ele>
        <time>2012-05-01T15:32:03Z</time>
      </trkpt>
      <trkpt lat="46.41497" lon="-0.41939">
        <ele>103.4</ele>
        <time>2012-05-01T15:32:08Z</time>
      </trkpt>
      <trkpt lat="46.41497" lon="-0.4194">
        <ele>104</ele>
        <time>2012-05-01T15:32:13Z</time>
      </trkpt>
      <trkpt lat="46.41498" lon="-0.4194">
        <ele>102.3</ele>
        <time>2012-05-01T15:32:18Z</time>
      </trkpt>
      <trkpt lat="46.41504" lon="-0.41937">
        <ele>102.8</ele>
        <time>2012-05-01T15:32:23Z</time>
      </trkpt>
      <trkpt lat="46.41507" lon="-0.41936">
        <ele>103.3</ele>
        <time>2012-05-01T15:32:28Z</time>
      </trkpt>
      <trkpt lat="46.41512" lon="-0.41934">
        <ele>102.9</ele>
        <time>2012-05-01T15:32:33Z</time>
      </trkpt>
      <trkpt lat="46.41518" lon="-0.41931">
        <ele>103.4</ele>
        <time>2012-05-01T15:32:38Z</time>
      </trkpt>
      <trkpt lat="46.4152" lon="-0.4193">
        <ele>104</ele>
        <time>2012-05-01T15:32:46Z</time>
      </trkpt>
      <trkpt lat="46.41526" lon="-0.41928">
        <ele>103.9</ele>
        <time>2012-05-01T15:32:49Z</time>
      </trkpt>
      <trkpt lat="46.41533" lon="-0.41925">
        <ele>101.1</ele>
        <time>2012-05-01T15:32:53Z</time>
      </trkpt>
      <trkpt lat="46.41537" lon="-0.41921">
        <ele>100.9</ele>
        <time>2012-05-01T15:32:58Z</time>
      </trkpt>
      <trkpt lat="46.41543" lon="-0.41916">
        <ele>99.7</ele>
        <time>2012-05-01T15:33:03Z</time>
      </trkpt>
      <trkpt lat="46.41547" lon="-0.41913">
        <ele>102.8</ele>
        <time>2012-05-01T15:33:11Z</time>
      </trkpt>
      <trkpt lat="46.41549" lon="-0.41909">
        <ele>102.5</ele>
        <time>2012-05-01T15:33:13Z</time>
      </trkpt>
      <trkpt lat="46.41549" lon="-0.41906">
        <ele>102</ele>
        <time>2012-05-01T15:33:18Z</time>
      </trkpt>
      <trkpt lat="46.4155" lon="-0.41906">
        <ele>100.6</ele>
        <time>2012-05-01T15:33:24Z</time>
      </trkpt>
      <trkpt lat="46.41551" lon="-0.41907">
        <ele>100.3</ele>
        <time>2012-05-01T15:33:28Z</time>
      </trkpt>
      <trkpt lat="46.41551" lon="-0.41907">
        <ele>100.3</ele>
        <time>2012-05-01T15:33:33Z</time>
      </trkpt>
      <trkpt lat="46.41553" lon="-0.41904">
        <ele>100.6</ele>
        <time>2012-05-01T15:33:38Z</time>
      </trkpt>
      <trkpt lat="46.41556" lon="-0.419">
        <ele>99.5</ele>
        <time>2012-05-01T15:33:46Z</time>
      </trkpt>
      <trkpt lat="46.41558" lon="-0.41898">
        <ele>98.9</ele>
        <time>2012-05-01T15:33:48Z</time>
      </trkpt>
      <trkpt lat="46.41562" lon="-0.41896">
        <ele>101.9</ele>
        <time>2012-05-01T15:33:53Z</time>
      </trkpt>
      <trkpt lat="46.41567" lon="-0.41889">
        <ele>101.9</ele>
        <time>2012-05-01T15:33:58Z</time>
      </trkpt>
      <trkpt lat="46.4157" lon="-0.41881">
        <ele>101.6</ele>
        <time>2012-05-01T15:34:05Z</time>
      </trkpt>
      <trkpt lat="46.41572" lon="-0.41878">
        <ele>100.4</ele>
        <time>2012-05-01T15:34:08Z</time>
      </trkpt>
      <trkpt lat="46.41576" lon="-0.41873">
        <ele>100.4</ele>
        <time>2012-05-01T15:34:14Z</time>
      </trkpt>
      <trkpt lat="46.4158" lon="-0.41867">
        <ele>101.1</ele>
        <time>2012-05-01T15:34:21Z</time>
      </trkpt>
      <trkpt lat="46.41581" lon="-0.41864">
        <ele>101.6</ele>
        <time>2012-05-01T15:34:24Z</time>
      </trkpt>
      <trkpt lat="46.41586" lon="-0.41857">
        <ele>102</ele>
        <time>2012-05-01T15:34:28Z</time>
      </trkpt>
      <trkpt lat="46.41591" lon="-0.41849">
        <ele>104.1</ele>
        <time>2012-05-01T15:34:33Z</time>
      </trkpt>
      <trkpt lat="46.41595" lon="-0.41844">
        <ele>103.7</ele>
        <time>2012-05-01T15:34:38Z</time>
      </trkpt>
      <trkpt lat="46.41599" lon="-0.41838">
        <ele>104.1</ele>
        <time>2012-05-01T15:34:46Z</time>
      </trkpt>
      <trkpt lat="46.41602" lon="-0.41836">
        <ele>104.7</ele>
        <time>2012-05-01T15:34:48Z</time>
      </trkpt>
      <trkpt lat="46.41606" lon="-0.41828">
        <ele>104.4</ele>
        <time>2012-05-01T15:34:54Z</time>
      </trkpt>
      <trkpt lat="46.41612" lon="-0.41822">
        <ele>104.1</ele>
        <time>2012-05-01T15:34:59Z</time>
      </trkpt>
      <trkpt lat="46.41616" lon="-0.41817">
        <ele>104.2</ele>
        <time>2012-05-01T15:35:03Z</time>
      </trkpt>
      <trkpt lat="46.4162" lon="-0.4181">
        <ele>102.4</ele>
        <time>2012-05-01T15:35:11Z</time>
      </trkpt>
      <trkpt lat="46.41624" lon="-0.41806">
        <ele>102</ele>
        <time>2012-05-01T15:35:13Z</time>
      </trkpt>
      <trkpt lat="46.41627" lon="-0.418">
        <ele>101.1</ele>
        <time>2012-05-01T15:35:18Z</time>
      </trkpt>
      <trkpt lat="46.4163" lon="-0.41794">
        <ele>99.2</ele>
        <time>2012-05-01T15:35:23Z</time>
      </trkpt>
      <trkpt lat="46.41635" lon="-0.4179">
        <ele>99.7</ele>
        <time>2012-05-01T15:35:28Z</time>
      </trkpt>
      <trkpt lat="46.41641" lon="-0.41785">
        <ele>99.4</ele>
        <time>2012-05-01T15:35:36Z</time>
      </trkpt>
      <trkpt lat="46.41646" lon="-0.41784">
        <ele>99.8</ele>
        <time>2012-05-01T15:35:38Z</time>
      </trkpt>
      <trkpt lat="46.4165" lon="-0.41782">
        <ele>101.8</ele>
        <time>2012-05-01T15:35:43Z</time>
      </trkpt>
      <trkpt lat="46.41655" lon="-0.41775">
        <ele>99.7</ele>
        <time>2012-05-01T15:35:48Z</time>
      </trkpt>
      <trkpt lat="46.41661" lon="-0.41772">
        <ele>100.7</ele>
        <time>2012-05-01T15:35:56Z</time>
      </trkpt>
      <trkpt lat="46.41663" lon="-0.41769">
        <ele>101.9</ele>
        <time>2012-05-01T15:35:58Z</time>
      </trkpt>
      <trkpt lat="46.41667" lon="-0.41765">
        <ele>102.9</ele>
        <time>2012-05-01T15:36:04Z</time>
      </trkpt>
      <trkpt lat="46.41673" lon="-0.4176">
        <ele>107.1</ele>
        <time>2012-05-01T15:36:08Z</time>
      </trkpt>
      <trkpt lat="46.41678" lon="-0.41755">
        <ele>108.6</ele>
        <time>2012-05-01T15:36:13Z</time>
      </trkpt>
      <trkpt lat="46.41682" lon="-0.41749">
        <ele>109.5</ele>
        <time>2012-05-01T15:36:21Z</time>
      </trkpt>
      <trkpt lat="46.41684" lon="-0.41745">
        <ele>108</ele>
        <time>2012-05-01T15:36:23Z</time>
      </trkpt>
      <trkpt lat="46.41689" lon="-0.41737">
        <ele>108.4</ele>
        <time>2012-05-01T15:36:31Z</time>
      </trkpt>
      <trkpt lat="46.4169" lon="-0.41735">
        <ele>108.2</ele>
        <time>2012-05-01T15:36:33Z</time>
      </trkpt>
      <trkpt lat="46.41694" lon="-0.41724">
        <ele>107.9</ele>
        <time>2012-05-01T15:36:38Z</time>
      </trkpt>
      <trkpt lat="46.41698" lon="-0.41716">
        <ele>105.6</ele>
        <time>2012-05-01T15:36:43Z</time>
      </trkpt>
      <trkpt lat="46.41705" lon="-0.41708">
        <ele>108.5</ele>
        <time>2012-05-01T15:36:48Z</time>
      </trkpt>
      <trkpt lat="46.41706" lon="-0.41703">
        <ele>108.3</ele>
        <time>2012-05-01T15:36:56Z</time>
      </trkpt>
      <trkpt lat="46.41706" lon="-0.41699">
        <ele>106.2</ele>
        <time>2012-05-01T15:36:59Z</time>
      </trkpt>
      <trkpt lat="46.41708" lon="-0.41693">
        <ele>105.4</ele>
        <time>2012-05-01T15:37:03Z</time>
      </trkpt>
      <trkpt lat="46.41712" lon="-0.41683">
        <ele>104.9</ele>
        <time>2012-05-01T15:37:09Z</time>
      </trkpt>
      <trkpt lat="46.41713" lon="-0.41676">
        <ele>104.6</ele>
        <time>2012-05-01T15:37:13Z</time>
      </trkpt>
      <trkpt lat="46.41714" lon="-0.41667">
        <ele>104</ele>
        <time>2012-05-01T15:37:19Z</time>
      </trkpt>
      <trkpt lat="46.41719" lon="-0.41658">
        <ele>103.1</ele>
        <time>2012-05-01T15:37:26Z</time>
      </trkpt>
      <trkpt lat="46.4172" lon="-0.41652">
        <ele>100.6</ele>
        <time>2012-05-01T15:37:28Z</time>
      </trkpt>
      <trkpt lat="46.41725" lon="-0.41646">
        <ele>100</ele>
        <time>2012-05-01T15:37:34Z</time>
      </trkpt>
      <trkpt lat="46.41727" lon="-0.4164">
        <ele>100.1</ele>
        <time>2012-05-01T15:37:39Z</time>
      </trkpt>
      <trkpt lat="46.41725" lon="-0.41633">
        <ele>97.9</ele>
        <time>2012-05-01T15:37:43Z</time>
      </trkpt>
      <trkpt lat="46.41724" lon="-0.41633">
        <ele>101.6</ele>
        <time>2012-05-01T15:37:48Z</time>
      </trkpt>
      <trkpt lat="46.4172" lon="-0.41637">
        <ele>102.3</ele>
        <time>2012-05-01T15:37:53Z</time>
      </trkpt>
      <trkpt lat="46.41717" lon="-0.41638">
        <ele>103.3</ele>
        <time>2012-05-01T15:37:58Z</time>
      </trkpt>
      <trkpt lat="46.41714" lon="-0.41639">
        <ele>103.6</ele>
        <time>2012-05-01T15:38:03Z</time>
      </trkpt>
      <trkpt lat="46.41711" lon="-0.41641">
        <ele>104.6</ele>
        <time>2012-05-01T15:38:11Z</time>
      </trkpt>
      <trkpt lat="46.41709" lon="-0.41642">
        <ele>105.1</ele>
        <time>2012-05-01T15:38:13Z</time>
      </trkpt>
      <trkpt lat="46.41704" lon="-0.41644">
        <ele>108</ele>
        <time>2012-05-01T15:38:18Z</time>
      </trkpt>
      <trkpt lat="46.41701" lon="-0.41648">
        <ele>108.8</ele>
        <time>2012-05-01T15:38:23Z</time>
      </trkpt>
      <trkpt lat="46.41697" lon="-0.41651">
        <ele>109</ele>
        <time>2012-05-01T15:38:30Z</time>
      </trkpt>
      <trkpt lat="46.41693" lon="-0.41652">
        <ele>109.2</ele>
        <time>2012-05-01T15:38:33Z</time>
      </trkpt>
      <trkpt lat="46.41691" lon="-0.41655">
        <ele>107</ele>
        <time>2012-05-01T15:38:41Z</time>
      </trkpt>
      <trkpt lat="46.41689" lon="-0.41658">
        <ele>109.2</ele>
        <time>2012-05-01T15:38:43Z</time>
      </trkpt>
      <trkpt lat="46.41684" lon="-0.41661">
        <ele>108.4</ele>
        <time>2012-05-01T15:38:48Z</time>
      </trkpt>
      <trkpt lat="46.41679" lon="-0.41664">
        <ele>109.4</ele>
        <time>2012-05-01T15:38:56Z</time>
      </trkpt>
      <trkpt lat="46.41676" lon="-0.41666">
        <ele>109.8</ele>
        <time>2012-05-01T15:38:59Z</time>
      </trkpt>
      <trkpt lat="46.41672" lon="-0.41668">
        <ele>110.7</ele>
        <time>2012-05-01T15:39:04Z</time>
      </trkpt>
      <trkpt lat="46.41666" lon="-0.41672">
        <ele>109.7</ele>
        <time>2012-05-01T15:39:08Z</time>
      </trkpt>
      <trkpt lat="46.41663" lon="-0.41674">
        <ele>109</ele>
        <time>2012-05-01T15:39:13Z</time>
      </trkpt>
      <trkpt lat="46.41659" lon="-0.41675">
        <ele>108.7</ele>
        <time>2012-05-01T15:39:20Z</time>
      </trkpt>
      <trkpt lat="46.41656" lon="-0.41671">
        <ele>107.9</ele>
        <time>2012-05-01T15:39:23Z</time>
      </trkpt>
      <trkpt lat="46.41653" lon="-0.41664">
        <ele>106.9</ele>
        <time>2012-05-01T15:39:31Z</time>
      </trkpt>
      <trkpt lat="46.41652" lon="-0.41661">
        <ele>107.7</ele>
        <time>2012-05-01T15:39:34Z</time>
      </trkpt>
      <trkpt lat="46.41649" lon="-0.41655">
        <ele>110.1</ele>
        <time>2012-05-01T15:39:41Z</time>
      </trkpt>
      <trkpt lat="46.41648" lon="-0.41653">
        <ele>110.2</ele>
        <time>2012-05-01T15:39:43Z</time>
      </trkpt>
      <trkpt lat="46.41646" lon="-0.41647">
        <ele>110.8</ele>
        <time>2012-05-01T15:39:48Z</time>
      </trkpt>
      <trkpt lat="46.41643" lon="-0.41642">
        <ele>111.8</ele>
        <time>2012-05-01T15:39:56Z</time>
      </trkpt>
      <trkpt lat="46.41643" lon="-0.41639">
        <ele>111.7</ele>
        <time>2012-05-01T15:39:58Z</time>
      </trkpt>
      <trkpt lat="46.41641" lon="-0.41635">
        <ele>112.3</ele>
        <time>2012-05-01T15:40:05Z</time>
      </trkpt>
      <trkpt lat="46.41637" lon="-0.41629">
        <ele>113.1</ele>
        <time>2012-05-01T15:40:08Z</time>
      </trkpt>
      <trkpt lat="46.41634" lon="-0.41623">
        <ele>112.7</ele>
        <time>2012-05-01T15:40:16Z</time>
      </trkpt>
      <trkpt lat="46.41631" lon="-0.41621">
        <ele>112.4</ele>
        <time>2012-05-01T15:40:18Z</time>
      </trkpt>
      <trkpt lat="46.41628" lon="-0.41615">
        <ele>111.8</ele>
        <time>2012-05-01T15:40:26Z</time>
      </trkpt>
      <trkpt lat="46.41625" lon="-0.41608">
        <ele>112</ele>
        <time>2012-05-01T15:40:28Z</time>
      </trkpt>
      <trkpt lat="46.41623" lon="-0.41604">
        <ele>111.7</ele>
        <time>2012-05-01T15:40:33Z</time>
      </trkpt>
      <trkpt lat="46.4162" lon="-0.41598">
        <ele>111.1</ele>
        <time>2012-05-01T15:40:41Z</time>
      </trkpt>
      <trkpt lat="46.41618" lon="-0.41593">
        <ele>111.8</ele>
        <time>2012-05-01T15:40:44Z</time>
      </trkpt>
      <trkpt lat="46.41617" lon="-0.41588">
        <ele>112.8</ele>
        <time>2012-05-01T15:40:48Z</time>
      </trkpt>
      <trkpt lat="46.41613" lon="-0.41582">
        <ele>111.4</ele>
        <time>2012-05-01T15:40:53Z</time>
      </trkpt>
      <trkpt lat="46.41611" lon="-0.41576">
        <ele>111.6</ele>
        <time>2012-05-01T15:40:58Z</time>
      </trkpt>
      <trkpt lat="46.41608" lon="-0.41568">
        <ele>111.9</ele>
        <time>2012-05-01T15:41:06Z</time>
      </trkpt>
      <trkpt lat="46.41607" lon="-0.41565">
        <ele>112</ele>
        <time>2012-05-01T15:41:08Z</time>
      </trkpt>
      <trkpt lat="46.41603" lon="-0.41557">
        <ele>112.1</ele>
        <time>2012-05-01T15:41:16Z</time>
      </trkpt>
      <trkpt lat="46.41601" lon="-0.41552">
        <ele>112.4</ele>
        <time>2012-05-01T15:41:19Z</time>
      </trkpt>
      <trkpt lat="46.416" lon="-0.41545">
        <ele>112.7</ele>
        <time>2012-05-01T15:41:23Z</time>
      </trkpt>
      <trkpt lat="46.41597" lon="-0.41539">
        <ele>113.2</ele>
        <time>2012-05-01T15:41:29Z</time>
      </trkpt>
      <trkpt lat="46.41594" lon="-0.41534">
        <ele>114.1</ele>
        <time>2012-05-01T15:41:33Z</time>
      </trkpt>
      <trkpt lat="46.4159" lon="-0.41528">
        <ele>113.6</ele>
        <time>2012-05-01T15:41:39Z</time>
      </trkpt>
      <trkpt lat="46.41586" lon="-0.41526">
        <ele>113.8</ele>
        <time>2012-05-01T15:41:44Z</time>
      </trkpt>
      <trkpt lat="46.41585" lon="-0.41525">
        <ele>114.8</ele>
        <time>2012-05-01T15:41:49Z</time>
      </trkpt>
      <trkpt lat="46.41584" lon="-0.41525">
        <ele>115.1</ele>
        <time>2012-05-01T15:41:56Z</time>
      </trkpt>
      <trkpt lat="46.41584" lon="-0.41525">
        <ele>115.3</ele>
        <time>2012-05-01T15:41:58Z</time>
      </trkpt>
      <trkpt lat="46.41584" lon="-0.41525">
        <ele>115.7</ele>
        <time>2012-05-01T15:42:04Z</time>
      </trkpt>
      <trkpt lat="46.41584" lon="-0.41525">
        <ele>115.9</ele>
        <time>2012-05-01T15:42:08Z</time>
      </trkpt>
      <trkpt lat="46.41584" lon="-0.41525">
        <ele>115.9</ele>
        <time>2012-05-01T15:42:13Z</time>
      </trkpt>
      <trkpt lat="46.41584" lon="-0.41525">
        <ele>115.9</ele>
        <time>2012-05-01T15:42:18Z</time>
      </trkpt>
      <trkpt lat="46.41584" lon="-0.41525">
        <ele>115.9</ele>
        <time>2012-05-01T15:42:23Z</time>
      </trkpt>
      <trkpt lat="46.41584" lon="-0.41525">
        <ele>115.9</ele>
        <time>2012-05-01T15:42:28Z</time>
      </trkpt>
      <trkpt lat="46.41584" lon="-0.41525">
        <ele>115.7</ele>
        <time>2012-05-01T15:42:33Z</time>
      </trkpt>
      <trkpt lat="46.41585" lon="-0.41525">
        <ele>115.6</ele>
        <time>2012-05-01T15:42:38Z</time>
      </trkpt>
      <trkpt lat="46.41585" lon="-0.41525">
        <ele>115.6</ele>
        <time>2012-05-01T15:42:44Z</time>
      </trkpt>
      <trkpt lat="46.41585" lon="-0.41525">
        <ele>115.5</ele>
        <time>2012-05-01T15:42:48Z</time>
      </trkpt>
      <trkpt lat="46.41585" lon="-0.41525">
        <ele>115.9</ele>
        <time>2012-05-01T15:42:53Z</time>
      </trkpt>
      <trkpt lat="46.41585" lon="-0.41525">
        <ele>116.2</ele>
        <time>2012-05-01T15:43:01Z</time>
      </trkpt>
      <trkpt lat="46.41585" lon="-0.41525">
        <ele>115.8</ele>
        <time>2012-05-01T15:43:03Z</time>
      </trkpt>
      <trkpt lat="46.41584" lon="-0.41525">
        <ele>115.7</ele>
        <time>2012-05-01T15:43:09Z</time>
      </trkpt>
      <trkpt lat="46.41584" lon="-0.41525">
        <ele>115.8</ele>
        <time>2012-05-01T15:43:13Z</time>
      </trkpt>
      <trkpt lat="46.41584" lon="-0.41525">
        <ele>115.8</ele>
        <time>2012-05-01T15:43:18Z</time>
      </trkpt>
      <trkpt lat="46.41584" lon="-0.41525">
        <ele>115.8</ele>
        <time>2012-05-01T15:43:25Z</time>
      </trkpt>
      <trkpt lat="46.41584" lon="-0.41525">
        <ele>115.8</ele>
        <time>2012-05-01T15:43:34Z</time>
      </trkpt>
      <trkpt lat="46.41582" lon="-0.41527">
        <ele>114.5</ele>
        <time>2012-05-01T15:43:38Z</time>
      </trkpt>
      <trkpt lat="46.41581" lon="-0.4153">
        <ele>113.6</ele>
        <time>2012-05-01T15:43:43Z</time>
      </trkpt>
      <trkpt lat="46.41577" lon="-0.41535">
        <ele>115.6</ele>
        <time>2012-05-01T15:43:48Z</time>
      </trkpt>
      <trkpt lat="46.41574" lon="-0.41539">
        <ele>116.4</ele>
        <time>2012-05-01T15:43:53Z</time>
      </trkpt>
      <trkpt lat="46.41568" lon="-0.41543">
        <ele>116.4</ele>
        <time>2012-05-01T15:44:01Z</time>
      </trkpt>
      <trkpt lat="46.41567" lon="-0.41547">
        <ele>116</ele>
        <time>2012-05-01T15:44:03Z</time>
      </trkpt>
      <trkpt lat="46.41564" lon="-0.41552">
        <ele>115.7</ele>
        <time>2012-05-01T15:44:09Z</time>
      </trkpt>
      <trkpt lat="46.4156" lon="-0.41559">
        <ele>114.8</ele>
        <time>2012-05-01T15:44:13Z</time>
      </trkpt>
      <trkpt lat="46.41557" lon="-0.41565">
        <ele>114.3</ele>
        <time>2012-05-01T15:44:18Z</time>
      </trkpt>
      <trkpt lat="46.41554" lon="-0.41571">
        <ele>113.8</ele>
        <time>2012-05-01T15:44:23Z</time>
      </trkpt>
      <trkpt lat="46.41549" lon="-0.41579">
        <ele>113.2</ele>
        <time>2012-05-01T15:44:31Z</time>
      </trkpt>
      <trkpt lat="46.41546" lon="-0.41584">
        <ele>113.5</ele>
        <time>2012-05-01T15:44:33Z</time>
      </trkpt>
      <trkpt lat="46.41543" lon="-0.4159">
        <ele>113.1</ele>
        <time>2012-05-01T15:44:39Z</time>
      </trkpt>
      <trkpt lat="46.41539" lon="-0.41596">
        <ele>112.3</ele>
        <time>2012-05-01T15:44:43Z</time>
      </trkpt>
      <trkpt lat="46.41537" lon="-0.41602">
        <ele>111.9</ele>
        <time>2012-05-01T15:44:48Z</time>
      </trkpt>
      <trkpt lat="46.41532" lon="-0.4161">
        <ele>111.7</ele>
        <time>2012-05-01T15:44:56Z</time>
      </trkpt>
      <trkpt lat="46.4153" lon="-0.41613">
        <ele>109.7</ele>
        <time>2012-05-01T15:44:58Z</time>
      </trkpt>
      <trkpt lat="46.41526" lon="-0.41621">
        <ele>109.5</ele>
        <time>2012-05-01T15:45:03Z</time>
      </trkpt>
      <trkpt lat="46.41524" lon="-0.41623">
        <ele>110.4</ele>
        <time>2012-05-01T15:45:08Z</time>
      </trkpt>
      <trkpt lat="46.41524" lon="-0.41623">
        <ele>110.6</ele>
        <time>2012-05-01T15:45:14Z</time>
      </trkpt>
      <trkpt lat="46.41524" lon="-0.41623">
        <ele>110.5</ele>
        <time>2012-05-01T15:45:18Z</time>
      </trkpt>
      <trkpt lat="46.41525" lon="-0.41625">
        <ele>107.2</ele>
        <time>2012-05-01T15:45:23Z</time>
      </trkpt>
      <trkpt lat="46.41521" lon="-0.4163">
        <ele>106.8</ele>
        <time>2012-05-01T15:45:28Z</time>
      </trkpt>
      <trkpt lat="46.41518" lon="-0.41635">
        <ele>107.3</ele>
        <time>2012-05-01T15:45:33Z</time>
      </trkpt>
      <trkpt lat="46.41515" lon="-0.41642">
        <ele>105.8</ele>
        <time>2012-05-01T15:45:41Z</time>
      </trkpt>
      <trkpt lat="46.41514" lon="-0.41646">
        <ele>105.6</ele>
        <time>2012-05-01T15:45:44Z</time>
      </trkpt>
      <trkpt lat="46.41509" lon="-0.41653">
        <ele>106</ele>
        <time>2012-05-01T15:45:48Z</time>
      </trkpt>
      <trkpt lat="46.41503" lon="-0.41659">
        <ele>107.4</ele>
        <time>2012-05-01T15:45:54Z</time>
      </trkpt>
      <trkpt lat="46.41499" lon="-0.41665">
        <ele>106.7</ele>
        <time>2012-05-01T15:46:00Z</time>
      </trkpt>
      <trkpt lat="46.41495" lon="-0.41671">
        <ele>107.1</ele>
        <time>2012-05-01T15:46:03Z</time>
      </trkpt>
      <trkpt lat="46.41491" lon="-0.41677">
        <ele>108.5</ele>
        <time>2012-05-01T15:46:08Z</time>
      </trkpt>
      <trkpt lat="46.41487" lon="-0.41683">
        <ele>107.9</ele>
        <time>2012-05-01T15:46:14Z</time>
      </trkpt>
      <trkpt lat="46.41481" lon="-0.4169">
        <ele>108.6</ele>
        <time>2012-05-01T15:46:18Z</time>
      </trkpt>
      <trkpt lat="46.41477" lon="-0.41696">
        <ele>109.2</ele>
        <time>2012-05-01T15:46:25Z</time>
      </trkpt>
      <trkpt lat="46.41474" lon="-0.417">
        <ele>109.9</ele>
        <time>2012-05-01T15:46:29Z</time>
      </trkpt>
      <trkpt lat="46.4147" lon="-0.41705">
        <ele>108.2</ele>
        <time>2012-05-01T15:46:33Z</time>
      </trkpt>
      <trkpt lat="46.41465" lon="-0.41713">
        <ele>109.8</ele>
        <time>2012-05-01T15:46:38Z</time>
      </trkpt>
      <trkpt lat="46.41462" lon="-0.41718">
        <ele>110.4</ele>
        <time>2012-05-01T15:46:44Z</time>
      </trkpt>
      <trkpt lat="46.41457" lon="-0.41725">
        <ele>110.2</ele>
        <time>2012-05-01T15:46:48Z</time>
      </trkpt>
      <trkpt lat="46.41451" lon="-0.41731">
        <ele>111.9</ele>
        <time>2012-05-01T15:46:53Z</time>
      </trkpt>
      <trkpt lat="46.41448" lon="-0.41736">
        <ele>112.4</ele>
        <time>2012-05-01T15:47:01Z</time>
      </trkpt>
      <trkpt lat="46.41445" lon="-0.41739">
        <ele>113.8</ele>
        <time>2012-05-01T15:47:03Z</time>
      </trkpt>
      <trkpt lat="46.41441" lon="-0.41745">
        <ele>113.1</ele>
        <time>2012-05-01T15:47:08Z</time>
      </trkpt>
      <trkpt lat="46.41437" lon="-0.41751">
        <ele>112.2</ele>
        <time>2012-05-01T15:47:14Z</time>
      </trkpt>
      <trkpt lat="46.41434" lon="-0.41756">
        <ele>112.1</ele>
        <time>2012-05-01T15:47:18Z</time>
      </trkpt>
      <trkpt lat="46.41432" lon="-0.4176">
        <ele>111.3</ele>
        <time>2012-05-01T15:47:23Z</time>
      </trkpt>
      <trkpt lat="46.41429" lon="-0.41764">
        <ele>110.8</ele>
        <time>2012-05-01T15:47:31Z</time>
      </trkpt>
      <trkpt lat="46.41426" lon="-0.41768">
        <ele>108.4</ele>
        <time>2012-05-01T15:47:34Z</time>
      </trkpt>
      <trkpt lat="46.41422" lon="-0.41774">
        <ele>107.2</ele>
        <time>2012-05-01T15:47:41Z</time>
      </trkpt>
      <trkpt lat="46.4142" lon="-0.41778">
        <ele>107.1</ele>
        <time>2012-05-01T15:47:43Z</time>
      </trkpt>
      <trkpt lat="46.41415" lon="-0.41783">
        <ele>106.8</ele>
        <time>2012-05-01T15:47:51Z</time>
      </trkpt>
      <trkpt lat="46.41412" lon="-0.41786">
        <ele>107.1</ele>
        <time>2012-05-01T15:47:53Z</time>
      </trkpt>
      <trkpt lat="46.4141" lon="-0.41789">
        <ele>105.3</ele>
        <time>2012-05-01T15:47:59Z</time>
      </trkpt>
      <trkpt lat="46.41404" lon="-0.41791">
        <ele>105.5</ele>
        <time>2012-05-01T15:48:03Z</time>
      </trkpt>
      <trkpt lat="46.41398" lon="-0.41792">
        <ele>105.4</ele>
        <time>2012-05-01T15:48:08Z</time>
      </trkpt>
      <trkpt lat="46.41392" lon="-0.41794">
        <ele>105.4</ele>
        <time>2012-05-01T15:48:16Z</time>
      </trkpt>
      <trkpt lat="46.41388" lon="-0.41795">
        <ele>104.9</ele>
        <time>2012-05-01T15:48:18Z</time>
      </trkpt>
      <trkpt lat="46.41386" lon="-0.41794">
        <ele>104.6</ele>
        <time>2012-05-01T15:48:24Z</time>
      </trkpt>
      <trkpt lat="46.41383" lon="-0.41795">
        <ele>105</ele>
        <time>2012-05-01T15:48:28Z</time>
      </trkpt>
      <trkpt lat="46.41376" lon="-0.41797">
        <ele>105.8</ele>
        <time>2012-05-01T15:48:33Z</time>
      </trkpt>
      <trkpt lat="46.41371" lon="-0.41798">
        <ele>106</ele>
        <time>2012-05-01T15:48:38Z</time>
      </trkpt>
      <trkpt lat="46.41365" lon="-0.418">
        <ele>106.9</ele>
        <time>2012-05-01T15:48:43Z</time>
      </trkpt>
      <trkpt lat="46.41359" lon="-0.41801">
        <ele>107.8</ele>
        <time>2012-05-01T15:48:51Z</time>
      </trkpt>
      <trkpt lat="46.41355" lon="-0.41802">
        <ele>108.4</ele>
        <time>2012-05-01T15:48:53Z</time>
      </trkpt>
      <trkpt lat="46.41351" lon="-0.41803">
        <ele>109</ele>
        <time>2012-05-01T15:48:58Z</time>
      </trkpt>
      <trkpt lat="46.41345" lon="-0.41804">
        <ele>108.9</ele>
        <time>2012-05-01T15:49:03Z</time>
      </trkpt>
      <trkpt lat="46.41339" lon="-0.41805">
        <ele>107.6</ele>
        <time>2012-05-01T15:49:08Z</time>
      </trkpt>
      <trkpt lat="46.41335" lon="-0.41807">
        <ele>107.7</ele>
        <time>2012-05-01T15:49:16Z</time>
      </trkpt>
      <trkpt lat="46.4133" lon="-0.41809">
        <ele>107.2</ele>
        <time>2012-05-01T15:49:18Z</time>
      </trkpt>
      <trkpt lat="46.4132" lon="-0.41811">
        <ele>106.7</ele>
        <time>2012-05-01T15:49:25Z</time>
      </trkpt>
      <trkpt lat="46.41316" lon="-0.41812">
        <ele>107.6</ele>
        <time>2012-05-01T15:49:28Z</time>
      </trkpt>
      <trkpt lat="46.4131" lon="-0.41814">
        <ele>108.1</ele>
        <time>2012-05-01T15:49:36Z</time>
      </trkpt>
      <trkpt lat="46.41307" lon="-0.41816">
        <ele>107.8</ele>
        <time>2012-05-01T15:49:39Z</time>
      </trkpt>
      <trkpt lat="46.41303" lon="-0.41816">
        <ele>107.8</ele>
        <time>2012-05-01T15:49:43Z</time>
      </trkpt>
      <trkpt lat="46.41297" lon="-0.41818">
        <ele>107.4</ele>
        <time>2012-05-01T15:49:51Z</time>
      </trkpt>
      <trkpt lat="46.41296" lon="-0.41818">
        <ele>107.1</ele>
        <time>2012-05-01T15:49:53Z</time>
      </trkpt>
      <trkpt lat="46.41296" lon="-0.41818">
        <ele>107.7</ele>
        <time>2012-05-01T15:49:58Z</time>
      </trkpt>
      <trkpt lat="46.41293" lon="-0.41819">
        <ele>107.8</ele>
        <time>2012-05-01T15:50:03Z</time>
      </trkpt>
      <trkpt lat="46.4129" lon="-0.41823">
        <ele>107.7</ele>
        <time>2012-05-01T15:50:08Z</time>
      </trkpt>
      <trkpt lat="46.41286" lon="-0.41827">
        <ele>108.9</ele>
        <time>2012-05-01T15:50:16Z</time>
      </trkpt>
      <trkpt lat="46.41282" lon="-0.41829">
        <ele>108.8</ele>
        <time>2012-05-01T15:50:18Z</time>
      </trkpt>
      <trkpt lat="46.41278" lon="-0.41833">
        <ele>108.2</ele>
        <time>2012-05-01T15:50:25Z</time>
      </trkpt>
      <trkpt lat="46.41274" lon="-0.41835">
        <ele>107</ele>
        <time>2012-05-01T15:50:28Z</time>
      </trkpt>
      <trkpt lat="46.4127" lon="-0.41837">
        <ele>107.3</ele>
        <time>2012-05-01T15:50:33Z</time>
      </trkpt>
      <trkpt lat="46.41264" lon="-0.4184">
        <ele>107</ele>
        <time>2012-05-01T15:50:40Z</time>
      </trkpt>
      <trkpt lat="46.41259" lon="-0.41843">
        <ele>106</ele>
        <time>2012-05-01T15:50:43Z</time>
      </trkpt>
      <trkpt lat="46.41253" lon="-0.41846">
        <ele>106.2</ele>
        <time>2012-05-01T15:50:49Z</time>
      </trkpt>
      <trkpt lat="46.41248" lon="-0.4185">
        <ele>106.1</ele>
        <time>2012-05-01T15:50:53Z</time>
      </trkpt>
      <trkpt lat="46.41244" lon="-0.41854">
        <ele>106.5</ele>
        <time>2012-05-01T15:50:58Z</time>
      </trkpt>
      <trkpt lat="46.4124" lon="-0.41859">
        <ele>107.6</ele>
        <time>2012-05-01T15:51:05Z</time>
      </trkpt>
      <trkpt lat="46.41235" lon="-0.41863">
        <ele>109.4</ele>
        <time>2012-05-01T15:51:08Z</time>
      </trkpt>
      <trkpt lat="46.41231" lon="-0.41867">
        <ele>108.9</ele>
        <time>2012-05-01T15:51:16Z</time>
      </trkpt>
      <trkpt lat="46.41227" lon="-0.41868">
        <ele>108.7</ele>
        <time>2012-05-01T15:51:18Z</time>
      </trkpt>
      <trkpt lat="46.41221" lon="-0.41872">
        <ele>108.4</ele>
        <time>2012-05-01T15:51:23Z</time>
      </trkpt>
      <trkpt lat="46.41217" lon="-0.41875">
        <ele>105.5</ele>
        <time>2012-05-01T15:51:29Z</time>
      </trkpt>
      <trkpt lat="46.41212" lon="-0.41877">
        <ele>105.9</ele>
        <time>2012-05-01T15:51:36Z</time>
      </trkpt>
      <trkpt lat="46.4121" lon="-0.41878">
        <ele>106.7</ele>
        <time>2012-05-01T15:51:39Z</time>
      </trkpt>
      <trkpt lat="46.41204" lon="-0.41881">
        <ele>107.1</ele>
        <time>2012-05-01T15:51:43Z</time>
      </trkpt>
      <trkpt lat="46.412" lon="-0.41883">
        <ele>105.7</ele>
        <time>2012-05-01T15:51:49Z</time>
      </trkpt>
      <trkpt lat="46.41195" lon="-0.41887">
        <ele>106.6</ele>
        <time>2012-05-01T15:51:53Z</time>
      </trkpt>
      <trkpt lat="46.4119" lon="-0.4189">
        <ele>106.9</ele>
        <time>2012-05-01T15:51:58Z</time>
      </trkpt>
      <trkpt lat="46.41187" lon="-0.41895">
        <ele>103.8</ele>
        <time>2012-05-01T15:52:06Z</time>
      </trkpt>
      <trkpt lat="46.41185" lon="-0.41897">
        <ele>103</ele>
        <time>2012-05-01T15:52:08Z</time>
      </trkpt>
      <trkpt lat="46.4118" lon="-0.41901">
        <ele>101.9</ele>
        <time>2012-05-01T15:52:13Z</time>
      </trkpt>
      <trkpt lat="46.41175" lon="-0.41903">
        <ele>100.9</ele>
        <time>2012-05-01T15:52:18Z</time>
      </trkpt>
      <trkpt lat="46.4117" lon="-0.41907">
        <ele>101.3</ele>
        <time>2012-05-01T15:52:26Z</time>
      </trkpt>
      <trkpt lat="46.41167" lon="-0.41909">
        <ele>101.5</ele>
        <time>2012-05-01T15:52:29Z</time>
      </trkpt>
      <trkpt lat="46.41163" lon="-0.41914">
        <ele>100.1</ele>
        <time>2012-05-01T15:52:33Z</time>
      </trkpt>
      <trkpt lat="46.41159" lon="-0.41917">
        <ele>100.3</ele>
        <time>2012-05-01T15:52:39Z</time>
      </trkpt>
      <trkpt lat="46.41154" lon="-0.41919">
        <ele>98.8</ele>
        <time>2012-05-01T15:52:45Z</time>
      </trkpt>
      <trkpt lat="46.4115" lon="-0.41921">
        <ele>99.3</ele>
        <time>2012-05-01T15:52:50Z</time>
      </trkpt>
      <trkpt lat="46.41149" lon="-0.41921">
        <ele>99.9</ele>
        <time>2012-05-01T15:52:53Z</time>
      </trkpt>
      <trkpt lat="46.41148" lon="-0.4192">
        <ele>101</ele>
        <time>2012-05-01T15:52:59Z</time>
      </trkpt>
      <trkpt lat="46.41148" lon="-0.41921">
        <ele>101.2</ele>
        <time>2012-05-01T15:53:04Z</time>
      </trkpt>
      <trkpt lat="46.41144" lon="-0.41928">
        <ele>103.6</ele>
        <time>2012-05-01T15:53:11Z</time>
      </trkpt>
      <trkpt lat="46.41143" lon="-0.41931">
        <ele>103.5</ele>
        <time>2012-05-01T15:53:13Z</time>
      </trkpt>
      <trkpt lat="46.41143" lon="-0.41935">
        <ele>104.6</ele>
        <time>2012-05-01T15:53:18Z</time>
      </trkpt>
      <trkpt lat="46.41143" lon="-0.41942">
        <ele>103.9</ele>
        <time>2012-05-01T15:53:23Z</time>
      </trkpt>
      <trkpt lat="46.41145" lon="-0.41948">
        <ele>102.2</ele>
        <time>2012-05-01T15:53:28Z</time>
      </trkpt>
      <trkpt lat="46.41145" lon="-0.41953">
        <ele>101</ele>
        <time>2012-05-01T15:53:35Z</time>
      </trkpt>
      <trkpt lat="46.41145" lon="-0.41959">
        <ele>99.9</ele>
        <time>2012-05-01T15:53:39Z</time>
      </trkpt>
      <trkpt lat="46.41146" lon="-0.41963">
        <ele>99.8</ele>
        <time>2012-05-01T15:53:43Z</time>
      </trkpt>
      <trkpt lat="46.41145" lon="-0.41968">
        <ele>96.6</ele>
        <time>2012-05-01T15:53:48Z</time>
      </trkpt>
      <trkpt lat="46.41143" lon="-0.41975">
        <ele>94.3</ele>
        <time>2012-05-01T15:53:56Z</time>
      </trkpt>
      <trkpt lat="46.41143" lon="-0.4198">
        <ele>95.2</ele>
        <time>2012-05-01T15:53:58Z</time>
      </trkpt>
      <trkpt lat="46.41145" lon="-0.41988">
        <ele>97.3</ele>
        <time>2012-05-01T15:54:04Z</time>
      </trkpt>
      <trkpt lat="46.41147" lon="-0.42">
        <ele>99.4</ele>
        <time>2012-05-01T15:54:10Z</time>
      </trkpt>
      <trkpt lat="46.41147" lon="-0.42006">
        <ele>99.4</ele>
        <time>2012-05-01T15:54:13Z</time>
      </trkpt>
      <trkpt lat="46.41149" lon="-0.42015">
        <ele>100.7</ele>
        <time>2012-05-01T15:54:18Z</time>
      </trkpt>
      <trkpt lat="46.41148" lon="-0.42022">
        <ele>100.1</ele>
        <time>2012-05-01T15:54:23Z</time>
      </trkpt>
      <trkpt lat="46.4115" lon="-0.42029">
        <ele>99.5</ele>
        <time>2012-05-01T15:54:28Z</time>
      </trkpt>
      <trkpt lat="46.4115" lon="-0.42033">
        <ele>99</ele>
        <time>2012-05-01T15:54:33Z</time>
      </trkpt>
      <trkpt lat="46.4115" lon="-0.42042">
        <ele>99.2</ele>
        <time>2012-05-01T15:54:38Z</time>
      </trkpt>
      <trkpt lat="46.41151" lon="-0.42047">
        <ele>97.5</ele>
        <time>2012-05-01T15:54:43Z</time>
      </trkpt>
      <trkpt lat="46.41152" lon="-0.42053">
        <ele>95.7</ele>
        <time>2012-05-01T15:54:51Z</time>
      </trkpt>
      <trkpt lat="46.41153" lon="-0.42053">
        <ele>95.7</ele>
        <time>2012-05-01T15:54:53Z</time>
      </trkpt>
      <trkpt lat="46.41153" lon="-0.42054">
        <ele>95.8</ele>
        <time>2012-05-01T15:54:59Z</time>
      </trkpt>
      <trkpt lat="46.41153" lon="-0.42054">
        <ele>95.7</ele>
        <time>2012-05-01T15:55:03Z</time>
      </trkpt>
      <trkpt lat="46.41153" lon="-0.42054">
        <ele>95.7</ele>
        <time>2012-05-01T15:55:08Z</time>
      </trkpt>
      <trkpt lat="46.41153" lon="-0.42054">
        <ele>95.7</ele>
        <time>2012-05-01T15:55:13Z</time>
      </trkpt>
      <trkpt lat="46.41153" lon="-0.42054">
        <ele>96.7</ele>
        <time>2012-05-01T15:55:18Z</time>
      </trkpt>
      <trkpt lat="46.41154" lon="-0.42054">
        <ele>96.7</ele>
        <time>2012-05-01T15:55:23Z</time>
      </trkpt>
      <trkpt lat="46.41151" lon="-0.42057">
        <ele>98.7</ele>
        <time>2012-05-01T15:55:28Z</time>
      </trkpt>
      <trkpt lat="46.41143" lon="-0.42057">
        <ele>99.5</ele>
        <time>2012-05-01T15:55:33Z</time>
      </trkpt>
      <trkpt lat="46.41139" lon="-0.42059">
        <ele>97.8</ele>
        <time>2012-05-01T15:55:38Z</time>
      </trkpt>
      <trkpt lat="46.41135" lon="-0.4206">
        <ele>96.7</ele>
        <time>2012-05-01T15:55:44Z</time>
      </trkpt>
      <trkpt lat="46.41135" lon="-0.4206">
        <ele>96.6</ele>
        <time>2012-05-01T15:55:49Z</time>
      </trkpt>
      <trkpt lat="46.41132" lon="-0.42061">
        <ele>94.1</ele>
        <time>2012-05-01T15:55:53Z</time>
      </trkpt>
      <trkpt lat="46.41126" lon="-0.42062">
        <ele>91</ele>
        <time>2012-05-01T15:56:01Z</time>
      </trkpt>
      <trkpt lat="46.41124" lon="-0.42062">
        <ele>90.6</ele>
        <time>2012-05-01T15:56:03Z</time>
      </trkpt>
      <trkpt lat="46.41119" lon="-0.42064">
        <ele>90.2</ele>
        <time>2012-05-01T15:56:08Z</time>
      </trkpt>
      <trkpt lat="46.41116" lon="-0.42065">
        <ele>90.1</ele>
        <time>2012-05-01T15:56:15Z</time>
      </trkpt>
      <trkpt lat="46.41112" lon="-0.42067">
        <ele>90.9</ele>
        <time>2012-05-01T15:56:19Z</time>
      </trkpt>
      <trkpt lat="46.41108" lon="-0.42073">
        <ele>91.1</ele>
        <time>2012-05-01T15:56:24Z</time>
      </trkpt>
      <trkpt lat="46.41103" lon="-0.42077">
        <ele>91.3</ele>
        <time>2012-05-01T15:56:28Z</time>
      </trkpt>
      <trkpt lat="46.41098" lon="-0.42081">
        <ele>88.8</ele>
        <time>2012-05-01T15:56:35Z</time>
      </trkpt>
      <trkpt lat="46.41095" lon="-0.42087">
        <ele>88.5</ele>
        <time>2012-05-01T15:56:38Z</time>
      </trkpt>
      <trkpt lat="46.41089" lon="-0.42091">
        <ele>89.1</ele>
        <time>2012-05-01T15:56:43Z</time>
      </trkpt>
      <trkpt lat="46.41085" lon="-0.42096">
        <ele>90.8</ele>
        <time>2012-05-01T15:56:48Z</time>
      </trkpt>
      <trkpt lat="46.41082" lon="-0.42103">
        <ele>93.6</ele>
        <time>2012-05-01T15:56:53Z</time>
      </trkpt>
      <trkpt lat="46.4108" lon="-0.4211">
        <ele>92.7</ele>
        <time>2012-05-01T15:56:58Z</time>
      </trkpt>
      <trkpt lat="46.41078" lon="-0.42118">
        <ele>93.4</ele>
        <time>2012-05-01T15:57:05Z</time>
      </trkpt>
      <trkpt lat="46.41078" lon="-0.4212">
        <ele>93.1</ele>
        <time>2012-05-01T15:57:08Z</time>
      </trkpt>
      <trkpt lat="46.41078" lon="-0.42131">
        <ele>92.7</ele>
        <time>2012-05-01T15:57:13Z</time>
      </trkpt>
      <trkpt lat="46.41077" lon="-0.42139">
        <ele>93.7</ele>
        <time>2012-05-01T15:57:19Z</time>
      </trkpt>
      <trkpt lat="46.41077" lon="-0.42145">
        <ele>93.3</ele>
        <time>2012-05-01T15:57:23Z</time>
      </trkpt>
      <trkpt lat="46.41076" lon="-0.42151">
        <ele>94</ele>
        <time>2012-05-01T15:57:28Z</time>
      </trkpt>
      <trkpt lat="46.41074" lon="-0.42158">
        <ele>94.6</ele>
        <time>2012-05-01T15:57:33Z</time>
      </trkpt>
      <trkpt lat="46.41071" lon="-0.42167">
        <ele>93.2</ele>
        <time>2012-05-01T15:57:38Z</time>
      </trkpt>
      <trkpt lat="46.41063" lon="-0.42173">
        <ele>91.2</ele>
        <time>2012-05-01T15:57:43Z</time>
      </trkpt>
      <trkpt lat="46.41058" lon="-0.42177">
        <ele>90.1</ele>
        <time>2012-05-01T15:57:51Z</time>
      </trkpt>
      <trkpt lat="46.41055" lon="-0.4218">
        <ele>90.4</ele>
        <time>2012-05-01T15:57:53Z</time>
      </trkpt>
      <trkpt lat="46.41051" lon="-0.42183">
        <ele>89.2</ele>
        <time>2012-05-01T15:57:59Z</time>
      </trkpt>
      <trkpt lat="46.41046" lon="-0.42185">
        <ele>89.7</ele>
        <time>2012-05-01T15:58:05Z</time>
      </trkpt>
      <trkpt lat="46.41042" lon="-0.42187">
        <ele>90.9</ele>
        <time>2012-05-01T15:58:10Z</time>
      </trkpt>
      <trkpt lat="46.41035" lon="-0.42188">
        <ele>89.5</ele>
        <time>2012-05-01T15:58:13Z</time>
      </trkpt>
      <trkpt lat="46.41031" lon="-0.42189">
        <ele>89.1</ele>
        <time>2012-05-01T15:58:21Z</time>
      </trkpt>
      <trkpt lat="46.41027" lon="-0.4219">
        <ele>89</ele>
        <time>2012-05-01T15:58:23Z</time>
      </trkpt>
      <trkpt lat="46.41022" lon="-0.42189">
        <ele>89.4</ele>
        <time>2012-05-01T15:58:28Z</time>
      </trkpt>
      <trkpt lat="46.41017" lon="-0.42187">
        <ele>89.9</ele>
        <time>2012-05-01T15:58:33Z</time>
      </trkpt>
      <trkpt lat="46.4101" lon="-0.42183">
        <ele>89.8</ele>
        <time>2012-05-01T15:58:41Z</time>
      </trkpt>
      <trkpt lat="46.41007" lon="-0.4218">
        <ele>89</ele>
        <time>2012-05-01T15:58:43Z</time>
      </trkpt>
      <trkpt lat="46.41003" lon="-0.42172">
        <ele>87.9</ele>
        <time>2012-05-01T15:58:48Z</time>
      </trkpt>
      <trkpt lat="46.41" lon="-0.42166">
        <ele>88.4</ele>
        <time>2012-05-01T15:58:56Z</time>
      </trkpt>
      <trkpt lat="46.40998" lon="-0.42165">
        <ele>89.3</ele>
        <time>2012-05-01T15:58:58Z</time>
      </trkpt>
      <trkpt lat="46.40997" lon="-0.42165">
        <ele>88</ele>
        <time>2012-05-01T15:59:03Z</time>
      </trkpt>
      <trkpt lat="46.40993" lon="-0.42164">
        <ele>90.4</ele>
        <time>2012-05-01T15:59:08Z</time>
      </trkpt>
      <trkpt lat="46.40994" lon="-0.42163">
        <ele>89.8</ele>
        <time>2012-05-01T15:59:13Z</time>
      </trkpt>
      <trkpt lat="46.40991" lon="-0.42156">
        <ele>89</ele>
        <time>2012-05-01T15:59:18Z</time>
      </trkpt>
      <trkpt lat="46.40989" lon="-0.42148">
        <ele>89.9</ele>
        <time>2012-05-01T15:59:23Z</time>
      </trkpt>
      <trkpt lat="46.40988" lon="-0.42144">
        <ele>87.6</ele>
        <time>2012-05-01T15:59:28Z</time>
      </trkpt>
      <trkpt lat="46.40989" lon="-0.42144">
        <ele>87.3</ele>
        <time>2012-05-01T15:59:33Z</time>
      </trkpt>
      <trkpt lat="46.40989" lon="-0.42144">
        <ele>86.9</ele>
        <time>2012-05-01T15:59:38Z</time>
      </trkpt>
      <trkpt lat="46.40989" lon="-0.42144">
        <ele>86.8</ele>
        <time>2012-05-01T15:59:43Z</time>
      </trkpt>
      <trkpt lat="46.40989" lon="-0.42135">
        <ele>86.7</ele>
        <time>2012-05-01T15:59:48Z</time>
      </trkpt>
      <trkpt lat="46.40988" lon="-0.42127">
        <ele>88.7</ele>
        <time>2012-05-01T15:59:53Z</time>
      </trkpt>
      <trkpt lat="46.40988" lon="-0.42119">
        <ele>88</ele>
        <time>2012-05-01T15:59:58Z</time>
      </trkpt>
      <trkpt lat="46.40986" lon="-0.42111">
        <ele>88</ele>
        <time>2012-05-01T16:00:03Z</time>
      </trkpt>
      <trkpt lat="46.40984" lon="-0.42102">
        <ele>89.5</ele>
        <time>2012-05-01T16:00:08Z</time>
      </trkpt>
      <trkpt lat="46.40984" lon="-0.42094">
        <ele>89.6</ele>
        <time>2012-05-01T16:00:13Z</time>
      </trkpt>
      <trkpt lat="46.4098" lon="-0.42087">
        <ele>88.2</ele>
        <time>2012-05-01T16:00:20Z</time>
      </trkpt>
      <trkpt lat="46.4098" lon="-0.42084">
        <ele>87.5</ele>
        <time>2012-05-01T16:00:23Z</time>
      </trkpt>
      <trkpt lat="46.40978" lon="-0.42077">
        <ele>88.3</ele>
        <time>2012-05-01T16:00:29Z</time>
      </trkpt>
      <trkpt lat="46.40976" lon="-0.4207">
        <ele>91.5</ele>
        <time>2012-05-01T16:00:34Z</time>
      </trkpt>
      <trkpt lat="46.40972" lon="-0.42069">
        <ele>91.6</ele>
        <time>2012-05-01T16:00:40Z</time>
      </trkpt>
      <trkpt lat="46.40969" lon="-0.42068">
        <ele>91.4</ele>
        <time>2012-05-01T16:00:43Z</time>
      </trkpt>
      <trkpt lat="46.40964" lon="-0.42068">
        <ele>90.6</ele>
        <time>2012-05-01T16:00:48Z</time>
      </trkpt>
      <trkpt lat="46.40963" lon="-0.42068">
        <ele>90.9</ele>
        <time>2012-05-01T16:00:54Z</time>
      </trkpt>
      <trkpt lat="46.40957" lon="-0.42072">
        <ele>91.9</ele>
        <time>2012-05-01T16:01:00Z</time>
      </trkpt>
      <trkpt lat="46.40956" lon="-0.42075">
        <ele>90.1</ele>
        <time>2012-05-01T16:01:03Z</time>
      </trkpt>
      <trkpt lat="46.40956" lon="-0.42081">
        <ele>95.2</ele>
        <time>2012-05-01T16:01:09Z</time>
      </trkpt>
      <trkpt lat="46.40952" lon="-0.42085">
        <ele>98.9</ele>
        <time>2012-05-01T16:01:16Z</time>
      </trkpt>
      <trkpt lat="46.408" lon="-0.4194">
        <ele>108.4</ele>
        <time>2012-05-01T16:07:20Z</time>
      </trkpt>
      <trkpt lat="46.40793" lon="-0.41951">
        <ele>116.8</ele>
        <time>2012-05-01T16:07:25Z</time>
      </trkpt>
      <trkpt lat="46.40796" lon="-0.41943">
        <ele>113.5</ele>
        <time>2012-05-01T16:07:30Z</time>
      </trkpt>
      <trkpt lat="46.40793" lon="-0.41947">
        <ele>111.1</ele>
        <time>2012-05-01T16:07:35Z</time>
      </trkpt>
      <trkpt lat="46.40791" lon="-0.41952">
        <ele>112</ele>
        <time>2012-05-01T16:07:40Z</time>
      </trkpt>
      <trkpt lat="46.40786" lon="-0.41956">
        <ele>113.4</ele>
        <time>2012-05-01T16:07:45Z</time>
      </trkpt>
      <trkpt lat="46.40781" lon="-0.41962">
        <ele>113.8</ele>
        <time>2012-05-01T16:07:50Z</time>
      </trkpt>
      <trkpt lat="46.40778" lon="-0.41967">
        <ele>112.7</ele>
        <time>2012-05-01T16:07:55Z</time>
      </trkpt>
      <trkpt lat="46.40773" lon="-0.41973">
        <ele>113.5</ele>
        <time>2012-05-01T16:08:00Z</time>
      </trkpt>
      <trkpt lat="46.40769" lon="-0.41979">
        <ele>114.2</ele>
        <time>2012-05-01T16:08:05Z</time>
      </trkpt>
      <trkpt lat="46.4077" lon="-0.42005">
        <ele>116.3</ele>
        <time>2012-05-01T16:08:10Z</time>
      </trkpt>
      <trkpt lat="46.40758" lon="-0.42002">
        <ele>116.8</ele>
        <time>2012-05-01T16:08:15Z</time>
      </trkpt>
      <trkpt lat="46.40752" lon="-0.42">
        <ele>116.3</ele>
        <time>2012-05-01T16:08:20Z</time>
      </trkpt>
      <trkpt lat="46.40749" lon="-0.42002">
        <ele>115.8</ele>
        <time>2012-05-01T16:08:25Z</time>
      </trkpt>
      <trkpt lat="46.40745" lon="-0.42006">
        <ele>116.4</ele>
        <time>2012-05-01T16:08:30Z</time>
      </trkpt>
      <trkpt lat="46.40742" lon="-0.42008">
        <ele>114.9</ele>
        <time>2012-05-01T16:08:35Z</time>
      </trkpt>
      <trkpt lat="46.40738" lon="-0.42012">
        <ele>112.9</ele>
        <time>2012-05-01T16:08:40Z</time>
      </trkpt>
      <trkpt lat="46.40735" lon="-0.42017">
        <ele>112.9</ele>
        <time>2012-05-01T16:08:45Z</time>
      </trkpt>
      <trkpt lat="46.40731" lon="-0.42022">
        <ele>113.1</ele>
        <time>2012-05-01T16:08:50Z</time>
      </trkpt>
      <trkpt lat="46.40727" lon="-0.42026">
        <ele>112.3</ele>
        <time>2012-05-01T16:08:55Z</time>
      </trkpt>
      <trkpt lat="46.40723" lon="-0.42031">
        <ele>112</ele>
        <time>2012-05-01T16:09:00Z</time>
      </trkpt>
      <trkpt lat="46.40719" lon="-0.42036">
        <ele>112.1</ele>
        <time>2012-05-01T16:09:05Z</time>
      </trkpt>
      <trkpt lat="46.40716" lon="-0.42041">
        <ele>112.6</ele>
        <time>2012-05-01T16:09:10Z</time>
      </trkpt>
      <trkpt lat="46.40711" lon="-0.42046">
        <ele>112.2</ele>
        <time>2012-05-01T16:09:15Z</time>
      </trkpt>
      <trkpt lat="46.40706" lon="-0.42051">
        <ele>113</ele>
        <time>2012-05-01T16:09:20Z</time>
      </trkpt>
      <trkpt lat="46.40702" lon="-0.42056">
        <ele>112.6</ele>
        <time>2012-05-01T16:09:25Z</time>
      </trkpt>
      <trkpt lat="46.40698" lon="-0.42061">
        <ele>111.9</ele>
        <time>2012-05-01T16:09:30Z</time>
      </trkpt>
      <trkpt lat="46.40693" lon="-0.42065">
        <ele>111.7</ele>
        <time>2012-05-01T16:09:35Z</time>
      </trkpt>
      <trkpt lat="46.40689" lon="-0.4207">
        <ele>111.7</ele>
        <time>2012-05-01T16:09:40Z</time>
      </trkpt>
      <trkpt lat="46.40684" lon="-0.42073">
        <ele>111.9</ele>
        <time>2012-05-01T16:09:45Z</time>
      </trkpt>
      <trkpt lat="46.40679" lon="-0.42076">
        <ele>112</ele>
        <time>2012-05-01T16:09:50Z</time>
      </trkpt>
      <trkpt lat="46.40675" lon="-0.4208">
        <ele>110.9</ele>
        <time>2012-05-01T16:09:55Z</time>
      </trkpt>
      <trkpt lat="46.40671" lon="-0.42084">
        <ele>111.3</ele>
        <time>2012-05-01T16:10:00Z</time>
      </trkpt>
      <trkpt lat="46.40666" lon="-0.42088">
        <ele>110.7</ele>
        <time>2012-05-01T16:10:05Z</time>
      </trkpt>
      <trkpt lat="46.40662" lon="-0.42095">
        <ele>111</ele>
        <time>2012-05-01T16:10:10Z</time>
      </trkpt>
      <trkpt lat="46.4066" lon="-0.42101">
        <ele>110.3</ele>
        <time>2012-05-01T16:10:15Z</time>
      </trkpt>
      <trkpt lat="46.40658" lon="-0.42106">
        <ele>110.2</ele>
        <time>2012-05-01T16:10:20Z</time>
      </trkpt>
      <trkpt lat="46.40658" lon="-0.42114">
        <ele>111.2</ele>
        <time>2012-05-01T16:10:25Z</time>
      </trkpt>
      <trkpt lat="46.4066" lon="-0.4212">
        <ele>110.8</ele>
        <time>2012-05-01T16:10:30Z</time>
      </trkpt>
      <trkpt lat="46.40662" lon="-0.42127">
        <ele>111.3</ele>
        <time>2012-05-01T16:10:35Z</time>
      </trkpt>
      <trkpt lat="46.40666" lon="-0.42133">
        <ele>110.3</ele>
        <time>2012-05-01T16:10:40Z</time>
      </trkpt>
      <trkpt lat="46.40669" lon="-0.42139">
        <ele>109.3</ele>
        <time>2012-05-01T16:10:45Z</time>
      </trkpt>
      <trkpt lat="46.40672" lon="-0.42146">
        <ele>109.4</ele>
        <time>2012-05-01T16:10:50Z</time>
      </trkpt>
      <trkpt lat="46.40676" lon="-0.42152">
        <ele>109.4</ele>
        <time>2012-05-01T16:10:55Z</time>
      </trkpt>
      <trkpt lat="46.40678" lon="-0.42159">
        <ele>108.4</ele>
        <time>2012-05-01T16:11:00Z</time>
      </trkpt>
      <trkpt lat="46.40683" lon="-0.42164">
        <ele>107.5</ele>
        <time>2012-05-01T16:11:05Z</time>
      </trkpt>
      <trkpt lat="46.40684" lon="-0.42171">
        <ele>105.7</ele>
        <time>2012-05-01T16:11:10Z</time>
      </trkpt>
      <trkpt lat="46.40684" lon="-0.42179">
        <ele>104.3</ele>
        <time>2012-05-01T16:11:15Z</time>
      </trkpt>
      <trkpt lat="46.40685" lon="-0.42188">
        <ele>106.4</ele>
        <time>2012-05-01T16:11:20Z</time>
      </trkpt>
      <trkpt lat="46.4069" lon="-0.42193">
        <ele>108.4</ele>
        <time>2012-05-01T16:11:25Z</time>
      </trkpt>
      <trkpt lat="46.40692" lon="-0.42201">
        <ele>108.5</ele>
        <time>2012-05-01T16:11:30Z</time>
      </trkpt>
      <trkpt lat="46.40693" lon="-0.4221">
        <ele>107.4</ele>
        <time>2012-05-01T16:11:35Z</time>
      </trkpt>
      <trkpt lat="46.4069" lon="-0.42219">
        <ele>108</ele>
        <time>2012-05-01T16:11:40Z</time>
      </trkpt>
      <trkpt lat="46.40689" lon="-0.42226">
        <ele>108.4</ele>
        <time>2012-05-01T16:11:45Z</time>
      </trkpt>
      <trkpt lat="46.40692" lon="-0.42232">
        <ele>107.8</ele>
        <time>2012-05-01T16:11:50Z</time>
      </trkpt>
      <trkpt lat="46.40694" lon="-0.4224">
        <ele>107.2</ele>
        <time>2012-05-01T16:11:55Z</time>
      </trkpt>
      <trkpt lat="46.40696" lon="-0.42246">
        <ele>107.6</ele>
        <time>2012-05-01T16:12:00Z</time>
      </trkpt>
      <trkpt lat="46.40699" lon="-0.42254">
        <ele>107.5</ele>
        <time>2012-05-01T16:12:05Z</time>
      </trkpt>
      <trkpt lat="46.407" lon="-0.42262">
        <ele>105.8</ele>
        <time>2012-05-01T16:12:10Z</time>
      </trkpt>
      <trkpt lat="46.40701" lon="-0.4227">
        <ele>105.4</ele>
        <time>2012-05-01T16:12:15Z</time>
      </trkpt>
      <trkpt lat="46.40702" lon="-0.42278">
        <ele>105.6</ele>
        <time>2012-05-01T16:12:20Z</time>
      </trkpt>
      <trkpt lat="46.40703" lon="-0.42287">
        <ele>104.9</ele>
        <time>2012-05-01T16:12:25Z</time>
      </trkpt>
      <trkpt lat="46.40705" lon="-0.42294">
        <ele>103.9</ele>
        <time>2012-05-01T16:12:30Z</time>
      </trkpt>
      <trkpt lat="46.40704" lon="-0.42301">
        <ele>103.2</ele>
        <time>2012-05-01T16:12:35Z</time>
      </trkpt>
      <trkpt lat="46.40703" lon="-0.42304">
        <ele>102.3</ele>
        <time>2012-05-01T16:12:40Z</time>
      </trkpt>
      <trkpt lat="46.40704" lon="-0.42304">
        <ele>103.5</ele>
        <time>2012-05-01T16:12:45Z</time>
      </trkpt>
      <trkpt lat="46.40705" lon="-0.42304">
        <ele>104.5</ele>
        <time>2012-05-01T16:12:50Z</time>
      </trkpt>
      <trkpt lat="46.40704" lon="-0.42305">
        <ele>105.3</ele>
        <time>2012-05-01T16:12:55Z</time>
      </trkpt>
      <trkpt lat="46.40704" lon="-0.42305">
        <ele>105.7</ele>
        <time>2012-05-01T16:13:00Z</time>
      </trkpt>
      <trkpt lat="46.40704" lon="-0.42305">
        <ele>105.7</ele>
        <time>2012-05-01T16:13:05Z</time>
      </trkpt>
      <trkpt lat="46.40704" lon="-0.42305">
        <ele>105.9</ele>
        <time>2012-05-01T16:13:10Z</time>
      </trkpt>
      <trkpt lat="46.40704" lon="-0.42305">
        <ele>105.9</ele>
        <time>2012-05-01T16:13:15Z</time>
      </trkpt>
      <trkpt lat="46.40704" lon="-0.42305">
        <ele>105.9</ele>
        <time>2012-05-01T16:13:20Z</time>
      </trkpt>
      <trkpt lat="46.40704" lon="-0.42305">
        <ele>105.9</ele>
        <time>2012-05-01T16:13:25Z</time>
      </trkpt>
      <trkpt lat="46.40704" lon="-0.42305">
        <ele>105.9</ele>
        <time>2012-05-01T16:13:30Z</time>
      </trkpt>
      <trkpt lat="46.40704" lon="-0.42305">
        <ele>105.9</ele>
        <time>2012-05-01T16:13:35Z</time>
      </trkpt>
      <trkpt lat="46.40699" lon="-0.42305">
        <ele>106.4</ele>
        <time>2012-05-01T16:13:40Z</time>
      </trkpt>
      <trkpt lat="46.40693" lon="-0.42306">
        <ele>107.2</ele>
        <time>2012-05-01T16:13:45Z</time>
      </trkpt>
      <trkpt lat="46.4069" lon="-0.42301">
        <ele>104.8</ele>
        <time>2012-05-01T16:13:50Z</time>
      </trkpt>
      <trkpt lat="46.40684" lon="-0.423">
        <ele>106.4</ele>
        <time>2012-05-01T16:13:55Z</time>
      </trkpt>
      <trkpt lat="46.4068" lon="-0.42301">
        <ele>106.6</ele>
        <time>2012-05-01T16:14:00Z</time>
      </trkpt>
      <trkpt lat="46.40681" lon="-0.423">
        <ele>107.2</ele>
        <time>2012-05-01T16:14:05Z</time>
      </trkpt>
      <trkpt lat="46.40677" lon="-0.42298">
        <ele>106.3</ele>
        <time>2012-05-01T16:14:10Z</time>
      </trkpt>
      <trkpt lat="46.40675" lon="-0.42296">
        <ele>106.5</ele>
        <time>2012-05-01T16:14:15Z</time>
      </trkpt>
      <trkpt lat="46.40674" lon="-0.42295">
        <ele>107</ele>
        <time>2012-05-01T16:14:20Z</time>
      </trkpt>
      <trkpt lat="46.40673" lon="-0.42295">
        <ele>107</ele>
        <time>2012-05-01T16:14:25Z</time>
      </trkpt>
      <trkpt lat="46.40671" lon="-0.42295">
        <ele>105.2</ele>
        <time>2012-05-01T16:14:30Z</time>
      </trkpt>
      <trkpt lat="46.40669" lon="-0.42295">
        <ele>105.2</ele>
        <time>2012-05-01T16:14:35Z</time>
      </trkpt>
      <trkpt lat="46.40668" lon="-0.42296">
        <ele>104.8</ele>
        <time>2012-05-01T16:14:40Z</time>
      </trkpt>
      <trkpt lat="46.40659" lon="-0.42292">
        <ele>105.6</ele>
        <time>2012-05-01T16:14:45Z</time>
      </trkpt>
      <trkpt lat="46.40655" lon="-0.42297">
        <ele>104.5</ele>
        <time>2012-05-01T16:14:50Z</time>
      </trkpt>
      <trkpt lat="46.40656" lon="-0.42297">
        <ele>99.4</ele>
        <time>2012-05-01T16:14:55Z</time>
      </trkpt>
      <trkpt lat="46.40657" lon="-0.42297">
        <ele>97.7</ele>
        <time>2012-05-01T16:15:00Z</time>
      </trkpt>
      <trkpt lat="46.40656" lon="-0.42295">
        <ele>97.8</ele>
        <time>2012-05-01T16:15:05Z</time>
      </trkpt>
      <trkpt lat="46.40656" lon="-0.42295">
        <ele>98.1</ele>
        <time>2012-05-01T16:15:10Z</time>
      </trkpt>
      <trkpt lat="46.40656" lon="-0.42295">
        <ele>98.1</ele>
        <time>2012-05-01T16:15:15Z</time>
      </trkpt>
      <trkpt lat="46.40657" lon="-0.42295">
        <ele>97.4</ele>
        <time>2012-05-01T16:15:20Z</time>
      </trkpt>
      <trkpt lat="46.40653" lon="-0.42295">
        <ele>95.8</ele>
        <time>2012-05-01T16:15:25Z</time>
      </trkpt>
      <trkpt lat="46.40651" lon="-0.42293">
        <ele>96</ele>
        <time>2012-05-01T16:15:30Z</time>
      </trkpt>
      <trkpt lat="46.4065" lon="-0.42291">
        <ele>98</ele>
        <time>2012-05-01T16:15:35Z</time>
      </trkpt>
      <trkpt lat="46.4065" lon="-0.42291">
        <ele>97.9</ele>
        <time>2012-05-01T16:15:40Z</time>
      </trkpt>
      <trkpt lat="46.4065" lon="-0.42291">
        <ele>97.8</ele>
        <time>2012-05-01T16:15:45Z</time>
      </trkpt>
      <trkpt lat="46.4065" lon="-0.42291">
        <ele>97.9</ele>
        <time>2012-05-01T16:15:50Z</time>
      </trkpt>
      <trkpt lat="46.4065" lon="-0.42291">
        <ele>97.9</ele>
        <time>2012-05-01T16:15:55Z</time>
      </trkpt>
      <trkpt lat="46.4065" lon="-0.42291">
        <ele>97.9</ele>
        <time>2012-05-01T16:16:00Z</time>
      </trkpt>
      <trkpt lat="46.4065" lon="-0.42291">
        <ele>98</ele>
        <time>2012-05-01T16:16:05Z</time>
      </trkpt>
      <trkpt lat="46.4065" lon="-0.4229">
        <ele>98</ele>
        <time>2012-05-01T16:16:10Z</time>
      </trkpt>
      <trkpt lat="46.4065" lon="-0.42291">
        <ele>97.9</ele>
        <time>2012-05-01T16:16:15Z</time>
      </trkpt>
      <trkpt lat="46.4065" lon="-0.42291">
        <ele>97.9</ele>
        <time>2012-05-01T16:16:20Z</time>
      </trkpt>
      <trkpt lat="46.4065" lon="-0.4229">
        <ele>97.9</ele>
        <time>2012-05-01T16:16:25Z</time>
      </trkpt>
      <trkpt lat="46.40649" lon="-0.42291">
        <ele>97.7</ele>
        <time>2012-05-01T16:16:30Z</time>
      </trkpt>
      <trkpt lat="46.40648" lon="-0.42291">
        <ele>97.6</ele>
        <time>2012-05-01T16:16:35Z</time>
      </trkpt>
      <trkpt lat="46.40646" lon="-0.42293">
        <ele>98.3</ele>
        <time>2012-05-01T16:16:40Z</time>
      </trkpt>
      <trkpt lat="46.40645" lon="-0.42293">
        <ele>98.6</ele>
        <time>2012-05-01T16:16:45Z</time>
      </trkpt>
      <trkpt lat="46.40643" lon="-0.42293">
        <ele>97.5</ele>
        <time>2012-05-01T16:16:50Z</time>
      </trkpt>
      <trkpt lat="46.4064" lon="-0.42293">
        <ele>98.2</ele>
        <time>2012-05-01T16:16:55Z</time>
      </trkpt>
      <trkpt lat="46.40639" lon="-0.42293">
        <ele>100.1</ele>
        <time>2012-05-01T16:17:00Z</time>
      </trkpt>
      <trkpt lat="46.40638" lon="-0.42294">
        <ele>100.7</ele>
        <time>2012-05-01T16:17:05Z</time>
      </trkpt>
      <trkpt lat="46.40637" lon="-0.42295">
        <ele>102</ele>
        <time>2012-05-01T16:17:10Z</time>
      </trkpt>
      <trkpt lat="46.40637" lon="-0.42294">
        <ele>102.5</ele>
        <time>2012-05-01T16:17:15Z</time>
      </trkpt>
      <trkpt lat="46.40637" lon="-0.42294">
        <ele>102.4</ele>
        <time>2012-05-01T16:17:20Z</time>
      </trkpt>
      <trkpt lat="46.40637" lon="-0.42294">
        <ele>102</ele>
        <time>2012-05-01T16:17:25Z</time>
      </trkpt>
      <trkpt lat="46.40637" lon="-0.42294">
        <ele>101.9</ele>
        <time>2012-05-01T16:17:30Z</time>
      </trkpt>
      <trkpt lat="46.40636" lon="-0.42294">
        <ele>102.1</ele>
        <time>2012-05-01T16:17:35Z</time>
      </trkpt>
      <trkpt lat="46.40636" lon="-0.42294">
        <ele>102.1</ele>
        <time>2012-05-01T16:17:40Z</time>
      </trkpt>
      <trkpt lat="46.40636" lon="-0.42294">
        <ele>101.9</ele>
        <time>2012-05-01T16:17:45Z</time>
      </trkpt>
      <trkpt lat="46.40637" lon="-0.42294">
        <ele>101.5</ele>
        <time>2012-05-01T16:17:50Z</time>
      </trkpt>
      <trkpt lat="46.40637" lon="-0.42294">
        <ele>101.4</ele>
        <time>2012-05-01T16:17:55Z</time>
      </trkpt>
      <trkpt lat="46.40637" lon="-0.42294">
        <ele>101.4</ele>
        <time>2012-05-01T16:18:00Z</time>
      </trkpt>
      <trkpt lat="46.40637" lon="-0.42294">
        <ele>101.4</ele>
        <time>2012-05-01T16:18:05Z</time>
      </trkpt>
      <trkpt lat="46.40637" lon="-0.42294">
        <ele>101.4</ele>
        <time>2012-05-01T16:18:10Z</time>
      </trkpt>
      <trkpt lat="46.40637" lon="-0.42294">
        <ele>101.4</ele>
        <time>2012-05-01T16:18:15Z</time>
      </trkpt>
      <trkpt lat="46.40637" lon="-0.42294">
        <ele>101.4</ele>
        <time>2012-05-01T16:18:20Z</time>
      </trkpt>
      <trkpt lat="46.40637" lon="-0.42294">
        <ele>101.4</ele>
        <time>2012-05-01T16:18:25Z</time>
      </trkpt>
      <trkpt lat="46.40635" lon="-0.42295">
        <ele>102.2</ele>
        <time>2012-05-01T16:18:30Z</time>
      </trkpt>
      <trkpt lat="46.40631" lon="-0.42296">
        <ele>101</ele>
        <time>2012-05-01T16:18:35Z</time>
      </trkpt>
      <trkpt lat="46.4063" lon="-0.42295">
        <ele>101.6</ele>
        <time>2012-05-01T16:18:40Z</time>
      </trkpt>
      <trkpt lat="46.40629" lon="-0.42296">
        <ele>102.1</ele>
        <time>2012-05-01T16:18:45Z</time>
      </trkpt>
      <trkpt lat="46.40628" lon="-0.42297">
        <ele>102.7</ele>
        <time>2012-05-01T16:18:50Z</time>
      </trkpt>
      <trkpt lat="46.40628" lon="-0.42298">
        <ele>103</ele>
        <time>2012-05-01T16:18:55Z</time>
      </trkpt>
      <trkpt lat="46.40627" lon="-0.42298">
        <ele>102.9</ele>
        <time>2012-05-01T16:19:00Z</time>
      </trkpt>
      <trkpt lat="46.40624" lon="-0.42301">
        <ele>102</ele>
        <time>2012-05-01T16:19:05Z</time>
      </trkpt>
      <trkpt lat="46.40623" lon="-0.42301">
        <ele>101.5</ele>
        <time>2012-05-01T16:19:10Z</time>
      </trkpt>
      <trkpt lat="46.40619" lon="-0.42301">
        <ele>99.8</ele>
        <time>2012-05-01T16:19:15Z</time>
      </trkpt>
      <trkpt lat="46.40617" lon="-0.42303">
        <ele>97.2</ele>
        <time>2012-05-01T16:19:20Z</time>
      </trkpt>
      <trkpt lat="46.40614" lon="-0.42297">
        <ele>98.9</ele>
        <time>2012-05-01T16:19:25Z</time>
      </trkpt>
      <trkpt lat="46.40612" lon="-0.42299">
        <ele>99.5</ele>
        <time>2012-05-01T16:19:30Z</time>
      </trkpt>
      <trkpt lat="46.40612" lon="-0.423">
        <ele>98.9</ele>
        <time>2012-05-01T16:19:35Z</time>
      </trkpt>
      <trkpt lat="46.40612" lon="-0.42301">
        <ele>98.4</ele>
        <time>2012-05-01T16:19:40Z</time>
      </trkpt>
      <trkpt lat="46.40612" lon="-0.42301">
        <ele>98</ele>
        <time>2012-05-01T16:19:45Z</time>
      </trkpt>
      <trkpt lat="46.40613" lon="-0.42301">
        <ele>97.5</ele>
        <time>2012-05-01T16:19:50Z</time>
      </trkpt>
      <trkpt lat="46.40613" lon="-0.42301">
        <ele>97.4</ele>
        <time>2012-05-01T16:19:55Z</time>
      </trkpt>
      <trkpt lat="46.40613" lon="-0.42301">
        <ele>97.4</ele>
        <time>2012-05-01T16:20:00Z</time>
      </trkpt>
      <trkpt lat="46.40613" lon="-0.42301">
        <ele>97.4</ele>
        <time>2012-05-01T16:20:05Z</time>
      </trkpt>
      <trkpt lat="46.40611" lon="-0.42304">
        <ele>97.4</ele>
        <time>2012-05-01T16:20:10Z</time>
      </trkpt>
      <trkpt lat="46.40611" lon="-0.42305">
        <ele>97.3</ele>
        <time>2012-05-01T16:20:15Z</time>
      </trkpt>
      <trkpt lat="46.4061" lon="-0.42306">
        <ele>97.2</ele>
        <time>2012-05-01T16:20:20Z</time>
      </trkpt>
      <trkpt lat="46.4061" lon="-0.42306">
        <ele>97.5</ele>
        <time>2012-05-01T16:20:25Z</time>
      </trkpt>
      <trkpt lat="46.4061" lon="-0.42306">
        <ele>97.5</ele>
        <time>2012-05-01T16:20:30Z</time>
      </trkpt>
      <trkpt lat="46.4061" lon="-0.42306">
        <ele>97.7</ele>
        <time>2012-05-01T16:20:35Z</time>
      </trkpt>
      <trkpt lat="46.4061" lon="-0.42306">
        <ele>98.2</ele>
        <time>2012-05-01T16:20:40Z</time>
      </trkpt>
      <trkpt lat="46.4061" lon="-0.42306">
        <ele>98.2</ele>
        <time>2012-05-01T16:20:45Z</time>
      </trkpt>
      <trkpt lat="46.4061" lon="-0.42306">
        <ele>98.2</ele>
        <time>2012-05-01T16:20:50Z</time>
      </trkpt>
      <trkpt lat="46.4061" lon="-0.42306">
        <ele>98.2</ele>
        <time>2012-05-01T16:20:55Z</time>
      </trkpt>
      <trkpt lat="46.4061" lon="-0.42306">
        <ele>98.2</ele>
        <time>2012-05-01T16:21:00Z</time>
      </trkpt>
      <trkpt lat="46.4061" lon="-0.42306">
        <ele>98.2</ele>
        <time>2012-05-01T16:21:05Z</time>
      </trkpt>
      <trkpt lat="46.4061" lon="-0.42306">
        <ele>98.2</ele>
        <time>2012-05-01T16:21:10Z</time>
      </trkpt>
      <trkpt lat="46.4061" lon="-0.42306">
        <ele>98.1</ele>
        <time>2012-05-01T16:21:15Z</time>
      </trkpt>
      <trkpt lat="46.4061" lon="-0.42306">
        <ele>98.1</ele>
        <time>2012-05-01T16:21:20Z</time>
      </trkpt>
      <trkpt lat="46.4061" lon="-0.42306">
        <ele>98.1</ele>
        <time>2012-05-01T16:21:25Z</time>
      </trkpt>
      <trkpt lat="46.4061" lon="-0.42306">
        <ele>98.1</ele>
        <time>2012-05-01T16:21:30Z</time>
      </trkpt>
      <trkpt lat="46.4061" lon="-0.42306">
        <ele>98.1</ele>
        <time>2012-05-01T16:21:35Z</time>
      </trkpt>
      <trkpt lat="46.4061" lon="-0.42306">
        <ele>98.1</ele>
        <time>2012-05-01T16:21:40Z</time>
      </trkpt>
      <trkpt lat="46.4061" lon="-0.42306">
        <ele>98.1</ele>
        <time>2012-05-01T16:21:45Z</time>
      </trkpt>
      <trkpt lat="46.40611" lon="-0.42307">
        <ele>95.5</ele>
        <time>2012-05-01T16:21:50Z</time>
      </trkpt>
      <trkpt lat="46.40612" lon="-0.42308">
        <ele>94.4</ele>
        <time>2012-05-01T16:21:55Z</time>
      </trkpt>
      <trkpt lat="46.40611" lon="-0.42308">
        <ele>93.7</ele>
        <time>2012-05-01T16:22:00Z</time>
      </trkpt>
      <trkpt lat="46.40611" lon="-0.42308">
        <ele>93.5</ele>
        <time>2012-05-01T16:22:05Z</time>
      </trkpt>
      <trkpt lat="46.40611" lon="-0.42309">
        <ele>93.4</ele>
        <time>2012-05-01T16:22:10Z</time>
      </trkpt>
      <trkpt lat="46.40611" lon="-0.42309">
        <ele>93.5</ele>
        <time>2012-05-01T16:22:15Z</time>
      </trkpt>
      <trkpt lat="46.40611" lon="-0.42309">
        <ele>93.4</ele>
        <time>2012-05-01T16:22:20Z</time>
      </trkpt>
      <trkpt lat="46.40613" lon="-0.4231">
        <ele>92.7</ele>
        <time>2012-05-01T16:22:25Z</time>
      </trkpt>
      <trkpt lat="46.40612" lon="-0.42319">
        <ele>92.5</ele>
        <time>2012-05-01T16:22:30Z</time>
      </trkpt>
      <trkpt lat="46.4061" lon="-0.42318">
        <ele>93.6</ele>
        <time>2012-05-01T16:22:35Z</time>
      </trkpt>
      <trkpt lat="46.40613" lon="-0.42328">
        <ele>90.1</ele>
        <time>2012-05-01T16:22:40Z</time>
      </trkpt>
      <trkpt lat="46.40612" lon="-0.42334">
        <ele>93.7</ele>
        <time>2012-05-01T16:22:45Z</time>
      </trkpt>
      <trkpt lat="46.40613" lon="-0.42341">
        <ele>94.4</ele>
        <time>2012-05-01T16:22:50Z</time>
      </trkpt>
      <trkpt lat="46.40616" lon="-0.42345">
        <ele>94.4</ele>
        <time>2012-05-01T16:22:55Z</time>
      </trkpt>
      <trkpt lat="46.40617" lon="-0.42347">
        <ele>94.8</ele>
        <time>2012-05-01T16:23:00Z</time>
      </trkpt>
      <trkpt lat="46.40617" lon="-0.42353">
        <ele>94.9</ele>
        <time>2012-05-01T16:23:05Z</time>
      </trkpt>
      <trkpt lat="46.4062" lon="-0.42362">
        <ele>94.8</ele>
        <time>2012-05-01T16:23:10Z</time>
      </trkpt>
      <trkpt lat="46.40619" lon="-0.42369">
        <ele>99.1</ele>
        <time>2012-05-01T16:23:15Z</time>
      </trkpt>
      <trkpt lat="46.4062" lon="-0.42378">
        <ele>98.4</ele>
        <time>2012-05-01T16:23:20Z</time>
      </trkpt>
      <trkpt lat="46.40621" lon="-0.42386">
        <ele>97.6</ele>
        <time>2012-05-01T16:23:25Z</time>
      </trkpt>
      <trkpt lat="46.40626" lon="-0.42397">
        <ele>94.8</ele>
        <time>2012-05-01T16:23:30Z</time>
      </trkpt>
      <trkpt lat="46.40632" lon="-0.42406">
        <ele>93.1</ele>
        <time>2012-05-01T16:23:35Z</time>
      </trkpt>
      <trkpt lat="46.40633" lon="-0.42414">
        <ele>95.6</ele>
        <time>2012-05-01T16:23:40Z</time>
      </trkpt>
      <trkpt lat="46.40633" lon="-0.42421">
        <ele>96.6</ele>
        <time>2012-05-01T16:23:45Z</time>
      </trkpt>
      <trkpt lat="46.40637" lon="-0.42425">
        <ele>95.3</ele>
        <time>2012-05-01T16:23:50Z</time>
      </trkpt>
      <trkpt lat="46.40639" lon="-0.42431">
        <ele>94.2</ele>
        <time>2012-05-01T16:23:55Z</time>
      </trkpt>
      <trkpt lat="46.40639" lon="-0.42437">
        <ele>97.7</ele>
        <time>2012-05-01T16:24:00Z</time>
      </trkpt>
      <trkpt lat="46.40643" lon="-0.42441">
        <ele>94.3</ele>
        <time>2012-05-01T16:24:05Z</time>
      </trkpt>
      <trkpt lat="46.40643" lon="-0.42445">
        <ele>94</ele>
        <time>2012-05-01T16:24:10Z</time>
      </trkpt>
      <trkpt lat="46.40645" lon="-0.4245">
        <ele>94.6</ele>
        <time>2012-05-01T16:24:15Z</time>
      </trkpt>
      <trkpt lat="46.40646" lon="-0.42457">
        <ele>94</ele>
        <time>2012-05-01T16:24:20Z</time>
      </trkpt>
      <trkpt lat="46.40649" lon="-0.42464">
        <ele>92.5</ele>
        <time>2012-05-01T16:24:25Z</time>
      </trkpt>
      <trkpt lat="46.4065" lon="-0.42471">
        <ele>92.3</ele>
        <time>2012-05-01T16:24:30Z</time>
      </trkpt>
      <trkpt lat="46.40654" lon="-0.42478">
        <ele>91.5</ele>
        <time>2012-05-01T16:24:35Z</time>
      </trkpt>
      <trkpt lat="46.40653" lon="-0.42491">
        <ele>90.3</ele>
        <time>2012-05-01T16:24:40Z</time>
      </trkpt>
      <trkpt lat="46.40655" lon="-0.42498">
        <ele>91.3</ele>
        <time>2012-05-01T16:24:45Z</time>
      </trkpt>
      <trkpt lat="46.40656" lon="-0.42504">
        <ele>92.4</ele>
        <time>2012-05-01T16:24:50Z</time>
      </trkpt>
      <trkpt lat="46.40657" lon="-0.42509">
        <ele>93.2</ele>
        <time>2012-05-01T16:24:55Z</time>
      </trkpt>
      <trkpt lat="46.40657" lon="-0.42515">
        <ele>93.6</ele>
        <time>2012-05-01T16:25:00Z</time>
      </trkpt>
      <trkpt lat="46.40659" lon="-0.42519">
        <ele>92.5</ele>
        <time>2012-05-01T16:25:05Z</time>
      </trkpt>
      <trkpt lat="46.4066" lon="-0.42526">
        <ele>91.6</ele>
        <time>2012-05-01T16:25:10Z</time>
      </trkpt>
      <trkpt lat="46.4066" lon="-0.42533">
        <ele>90.4</ele>
        <time>2012-05-01T16:25:15Z</time>
      </trkpt>
      <trkpt lat="46.4066" lon="-0.42542">
        <ele>88.8</ele>
        <time>2012-05-01T16:25:20Z</time>
      </trkpt>
      <trkpt lat="46.40661" lon="-0.42548">
        <ele>87.1</ele>
        <time>2012-05-01T16:25:25Z</time>
      </trkpt>
      <trkpt lat="46.4066" lon="-0.42554">
        <ele>84.9</ele>
        <time>2012-05-01T16:25:30Z</time>
      </trkpt>
      <trkpt lat="46.4066" lon="-0.42561">
        <ele>85.7</ele>
        <time>2012-05-01T16:25:35Z</time>
      </trkpt>
      <trkpt lat="46.4066" lon="-0.42572">
        <ele>86.8</ele>
        <time>2012-05-01T16:25:40Z</time>
      </trkpt>
      <trkpt lat="46.40659" lon="-0.4258">
        <ele>87.3</ele>
        <time>2012-05-01T16:25:45Z</time>
      </trkpt>
      <trkpt lat="46.40655" lon="-0.42589">
        <ele>88.8</ele>
        <time>2012-05-01T16:25:50Z</time>
      </trkpt>
      <trkpt lat="46.40658" lon="-0.42599">
        <ele>82.6</ele>
        <time>2012-05-01T16:25:55Z</time>
      </trkpt>
      <trkpt lat="46.4066" lon="-0.42606">
        <ele>79.7</ele>
        <time>2012-05-01T16:26:00Z</time>
      </trkpt>
      <trkpt lat="46.40659" lon="-0.42612">
        <ele>82.3</ele>
        <time>2012-05-01T16:26:05Z</time>
      </trkpt>
      <trkpt lat="46.4066" lon="-0.42619">
        <ele>82</ele>
        <time>2012-05-01T16:26:10Z</time>
      </trkpt>
      <trkpt lat="46.4066" lon="-0.42622">
        <ele>81.1</ele>
        <time>2012-05-01T16:26:15Z</time>
      </trkpt>
      <trkpt lat="46.40662" lon="-0.4263">
        <ele>80.1</ele>
        <time>2012-05-01T16:26:20Z</time>
      </trkpt>
      <trkpt lat="46.40661" lon="-0.42638">
        <ele>79.5</ele>
        <time>2012-05-01T16:26:25Z</time>
      </trkpt>
      <trkpt lat="46.40659" lon="-0.42637">
        <ele>78.9</ele>
        <time>2012-05-01T16:26:30Z</time>
      </trkpt>
      <trkpt lat="46.40658" lon="-0.42637">
        <ele>79.1</ele>
        <time>2012-05-01T16:26:35Z</time>
      </trkpt>
      <trkpt lat="46.4066" lon="-0.42645">
        <ele>77.5</ele>
        <time>2012-05-01T16:26:40Z</time>
      </trkpt>
      <trkpt lat="46.40661" lon="-0.42653">
        <ele>77.2</ele>
        <time>2012-05-01T16:26:45Z</time>
      </trkpt>
      <trkpt lat="46.4066" lon="-0.42661">
        <ele>78.9</ele>
        <time>2012-05-01T16:26:50Z</time>
      </trkpt>
      <trkpt lat="46.40659" lon="-0.42668">
        <ele>80.4</ele>
        <time>2012-05-01T16:26:55Z</time>
      </trkpt>
      <trkpt lat="46.40661" lon="-0.42674">
        <ele>80.9</ele>
        <time>2012-05-01T16:27:00Z</time>
      </trkpt>
      <trkpt lat="46.40662" lon="-0.42682">
        <ele>80.4</ele>
        <time>2012-05-01T16:27:05Z</time>
      </trkpt>
      <trkpt lat="46.40661" lon="-0.42692">
        <ele>80.5</ele>
        <time>2012-05-01T16:27:10Z</time>
      </trkpt>
      <trkpt lat="46.4066" lon="-0.42701">
        <ele>78.9</ele>
        <time>2012-05-01T16:27:15Z</time>
      </trkpt>
      <trkpt lat="46.40659" lon="-0.42709">
        <ele>79.7</ele>
        <time>2012-05-01T16:27:20Z</time>
      </trkpt>
      <trkpt lat="46.40659" lon="-0.42716">
        <ele>80.7</ele>
        <time>2012-05-01T16:27:25Z</time>
      </trkpt>
      <trkpt lat="46.40659" lon="-0.42723">
        <ele>81.2</ele>
        <time>2012-05-01T16:27:30Z</time>
      </trkpt>
      <trkpt lat="46.40659" lon="-0.42731">
        <ele>80.5</ele>
        <time>2012-05-01T16:27:35Z</time>
      </trkpt>
      <trkpt lat="46.40659" lon="-0.42741">
        <ele>82.6</ele>
        <time>2012-05-01T16:27:40Z</time>
      </trkpt>
      <trkpt lat="46.40661" lon="-0.42748">
        <ele>81.6</ele>
        <time>2012-05-01T16:27:45Z</time>
      </trkpt>
      <trkpt lat="46.40664" lon="-0.42755">
        <ele>81.7</ele>
        <time>2012-05-01T16:27:50Z</time>
      </trkpt>
      <trkpt lat="46.40666" lon="-0.42761">
        <ele>80.1</ele>
        <time>2012-05-01T16:27:55Z</time>
      </trkpt>
      <trkpt lat="46.4067" lon="-0.42768">
        <ele>80.2</ele>
        <time>2012-05-01T16:28:00Z</time>
      </trkpt>
      <trkpt lat="46.40674" lon="-0.42773">
        <ele>79.4</ele>
        <time>2012-05-01T16:28:05Z</time>
      </trkpt>
      <trkpt lat="46.40678" lon="-0.42778">
        <ele>79.1</ele>
        <time>2012-05-01T16:28:10Z</time>
      </trkpt>
      <trkpt lat="46.40683" lon="-0.42783">
        <ele>79.2</ele>
        <time>2012-05-01T16:28:15Z</time>
      </trkpt>
      <trkpt lat="46.40687" lon="-0.42786">
        <ele>79.3</ele>
        <time>2012-05-01T16:28:20Z</time>
      </trkpt>
      <trkpt lat="46.40695" lon="-0.42787">
        <ele>77.8</ele>
        <time>2012-05-01T16:28:25Z</time>
      </trkpt>
      <trkpt lat="46.40701" lon="-0.42788">
        <ele>78.6</ele>
        <time>2012-05-01T16:28:30Z</time>
      </trkpt>
      <trkpt lat="46.40706" lon="-0.42787">
        <ele>80.3</ele>
        <time>2012-05-01T16:28:35Z</time>
      </trkpt>
      <trkpt lat="46.40712" lon="-0.42786">
        <ele>80.7</ele>
        <time>2012-05-01T16:28:40Z</time>
      </trkpt>
      <trkpt lat="46.40716" lon="-0.42782">
        <ele>79.9</ele>
        <time>2012-05-01T16:28:45Z</time>
      </trkpt>
      <trkpt lat="46.4072" lon="-0.42778">
        <ele>80.5</ele>
        <time>2012-05-01T16:28:50Z</time>
      </trkpt>
      <trkpt lat="46.40724" lon="-0.42778">
        <ele>80.5</ele>
        <time>2012-05-01T16:28:55Z</time>
      </trkpt>
      <trkpt lat="46.40723" lon="-0.42777">
        <ele>80.4</ele>
        <time>2012-05-01T16:29:00Z</time>
      </trkpt>
      <trkpt lat="46.40723" lon="-0.42777">
        <ele>80.1</ele>
        <time>2012-05-01T16:29:05Z</time>
      </trkpt>
      <trkpt lat="46.40723" lon="-0.42776">
        <ele>80.9</ele>
        <time>2012-05-01T16:29:10Z</time>
      </trkpt>
      <trkpt lat="46.40726" lon="-0.42771">
        <ele>78.6</ele>
        <time>2012-05-01T16:29:15Z</time>
      </trkpt>
      <trkpt lat="46.40727" lon="-0.42765">
        <ele>77</ele>
        <time>2012-05-01T16:29:20Z</time>
      </trkpt>
      <trkpt lat="46.40732" lon="-0.42763">
        <ele>78.2</ele>
        <time>2012-05-01T16:29:25Z</time>
      </trkpt>
      <trkpt lat="46.40738" lon="-0.4276">
        <ele>79</ele>
        <time>2012-05-01T16:29:30Z</time>
      </trkpt>
      <trkpt lat="46.40743" lon="-0.42759">
        <ele>77.8</ele>
        <time>2012-05-01T16:29:35Z</time>
      </trkpt>
      <trkpt lat="46.40747" lon="-0.42761">
        <ele>78</ele>
        <time>2012-05-01T16:29:40Z</time>
      </trkpt>
      <trkpt lat="46.40748" lon="-0.42768">
        <ele>79.6</ele>
        <time>2012-05-01T16:29:45Z</time>
      </trkpt>
      <trkpt lat="46.40751" lon="-0.42772">
        <ele>80.5</ele>
        <time>2012-05-01T16:29:50Z</time>
      </trkpt>
      <trkpt lat="46.40755" lon="-0.42771">
        <ele>80.3</ele>
        <time>2012-05-01T16:29:55Z</time>
      </trkpt>
      <trkpt lat="46.40762" lon="-0.42768">
        <ele>81.2</ele>
        <time>2012-05-01T16:30:00Z</time>
      </trkpt>
      <trkpt lat="46.40767" lon="-0.42764">
        <ele>81.7</ele>
        <time>2012-05-01T16:30:05Z</time>
      </trkpt>
      <trkpt lat="46.40773" lon="-0.42762">
        <ele>81.5</ele>
        <time>2012-05-01T16:30:10Z</time>
      </trkpt>
      <trkpt lat="46.40778" lon="-0.42762">
        <ele>81.8</ele>
        <time>2012-05-01T16:30:15Z</time>
      </trkpt>
      <trkpt lat="46.40782" lon="-0.42761">
        <ele>81.6</ele>
        <time>2012-05-01T16:30:20Z</time>
      </trkpt>
      <trkpt lat="46.40782" lon="-0.42761">
        <ele>82</ele>
        <time>2012-05-01T16:30:25Z</time>
      </trkpt>
      <trkpt lat="46.40782" lon="-0.42761">
        <ele>82.1</ele>
        <time>2012-05-01T16:30:30Z</time>
      </trkpt>
      <trkpt lat="46.40782" lon="-0.42761">
        <ele>82.2</ele>
        <time>2012-05-01T16:30:35Z</time>
      </trkpt>
      <trkpt lat="46.40782" lon="-0.42761">
        <ele>82.2</ele>
        <time>2012-05-01T16:30:40Z</time>
      </trkpt>
      <trkpt lat="46.40782" lon="-0.42759">
        <ele>82.1</ele>
        <time>2012-05-01T16:30:45Z</time>
      </trkpt>
      <trkpt lat="46.40782" lon="-0.42759">
        <ele>82.3</ele>
        <time>2012-05-01T16:30:50Z</time>
      </trkpt>
      <trkpt lat="46.40782" lon="-0.42759">
        <ele>82.3</ele>
        <time>2012-05-01T16:30:55Z</time>
      </trkpt>
      <trkpt lat="46.40782" lon="-0.42759">
        <ele>82.3</ele>
        <time>2012-05-01T16:31:00Z</time>
      </trkpt>
      <trkpt lat="46.40782" lon="-0.42759">
        <ele>82.3</ele>
        <time>2012-05-01T16:31:05Z</time>
      </trkpt>
      <trkpt lat="46.40782" lon="-0.42759">
        <ele>82.3</ele>
        <time>2012-05-01T16:31:10Z</time>
      </trkpt>
      <trkpt lat="46.40783" lon="-0.42759">
        <ele>82.3</ele>
        <time>2012-05-01T16:31:15Z</time>
      </trkpt>
      <trkpt lat="46.40784" lon="-0.42759">
        <ele>82.7</ele>
        <time>2012-05-01T16:31:20Z</time>
      </trkpt>
      <trkpt lat="46.40784" lon="-0.42759">
        <ele>83.1</ele>
        <time>2012-05-01T16:31:25Z</time>
      </trkpt>
      <trkpt lat="46.40784" lon="-0.42759">
        <ele>83.3</ele>
        <time>2012-05-01T16:31:30Z</time>
      </trkpt>
      <trkpt lat="46.40784" lon="-0.42759">
        <ele>83.3</ele>
        <time>2012-05-01T16:31:35Z</time>
      </trkpt>
      <trkpt lat="46.40784" lon="-0.42759">
        <ele>83.3</ele>
        <time>2012-05-01T16:31:40Z</time>
      </trkpt>
      <trkpt lat="46.40784" lon="-0.42759">
        <ele>83.3</ele>
        <time>2012-05-01T16:31:45Z</time>
      </trkpt>
      <trkpt lat="46.40784" lon="-0.42759">
        <ele>83.3</ele>
        <time>2012-05-01T16:31:50Z</time>
      </trkpt>
    </trkseg>
  </trk>
</gpx>